     2.11           OBSERVATION DATA    G (GPS)             RINEX VERSION / TYPE
teqc 2010Oct21 OPUS Account 20111025 19:51:48UTC            PGM / RUN BY / DATE
3287                                                        MARKER NAME
1137                                                        MARKER NUMBER
CSMIDDLETON NGS                                             OBSERVER / AGENCY
0220284361 TRIMBLE 5700 NP 1.22 / SP 1.22                   REC # / TYPE / VERS
12234991 TRM41249.00 NONE                                   ANT # / TYPE
  -739013.9320 -5480265.1859  3167894.7265                  APPROX POSITION XYZ
        2.0000        0.0000        0.0000                  ANTENNA: DELTA H/E/N
     1     1                                                WAVELENGTH FACT L1/2
     5    L1    L2    C1    P1    P2                        # / TYPES OF OBSERV
    15                                                      LEAP SECONDS
  2011     7    28     0     0    0.0000000     GPS         TIME OF FIRST OBS
                                                            END OF HEADER
 11  7 28  0  0  0.0000000  0  8G17G02G04G09G28G27G20G10
   1618938.75048   1288718.67246  21443821.6724   21443819.2854   21016614.00448
  16403480.99845                  22415808.5084                   22415806.6484
   3041641.93048   2399472.85847  19984288.2584   19984286.6024   22555680.53547
  17601675.42945                  22256239.2034   22256238.8284
  -3540609.18747  -2740862.78745  21869542.2734                   21869540.6414
  15583427.34847  12167657.29145  22488739.9224   22488739.3204
  30305014.49646                  23628452.39243  24278692.4694   24278692.7114
  30912721.27347                  24112851.49544  23634789.7424   23634790.6254
 11  7 28  0  0 30.0000000  0  8G17G02G04G09G28G27G20G10
   1615077.68848   1285710.02846  21443086.8834   21443084.7624   20901907.52348
  16314099.43645                  22393980.2974                   22393978.8554
   2991859.05948   2360681.03347  19974814.6884   19974813.6414   22492466.14147
  17552417.47145                  22244209.8914   22244209.2464
  -3525338.50847  -2728963.59845  21872448.4614                   21872446.5984
  15537520.88747  12131886.00245  22480004.3914   22480003.6804
  30304599.36346                  23628128.92343  24278614.0004   24278613.6604
  30784171.55947                  24012683.01144  23610327.3284   23610328.1684
 11  7 28  0  1  0.0000000  0  8G17G02G04G09G28G27G20G10
   1611317.35547   1282779.88546  21442371.2504   21442368.8984   20787496.94148
  16224948.44445                  22372209.1254                   22372206.7624
   2942655.52348   2322340.62246  19965451.6094   19965450.0944   22429891.50847
  17503658.02045                  22232302.1174   22232301.9304
  -3509688.84047  -2716769.07845  21875426.6334                   21875424.4574
  15492112.86347  12096503.11145  22471363.5704   22471363.1214
  30304685.03145                  23628195.61743  24278630.1644   24278629.3984
  30655669.98447                  23912552.06144  23585874.2504   23585875.2504
 11  7 28  0  1 30.0000000  0  8G17G02G04G09G28G27G20G10
   1607658.34048   1279928.68046  21441674.5944   21441672.3984   20673384.93048
  16136030.07845                  22350494.2664                   22350492.1374
   2894032.53548   2284452.59746  19956199.0944   19956197.3404   22367958.43447
  17455398.49245                  22220516.7504   22220516.6214
  -3493658.81648  -2704278.18645  21878476.6484                   21878474.5004
  15447204.57447  12061509.59945  22462817.7034   22462817.1454
  30305278.52355                  23628657.38253  24278742.0314   24278741.8244
  30527221.00447                  23812462.07144  23561430.6254   23561432.3164
 11  7 28  0  2  0.0000000  0  8G17G02G04G09G28G27G20G10
   1604097.78947   1277154.20046  21440997.1334   21440995.6214   20559570.00448
  16047343.22645                  22328836.0004                   22328833.4144
   2845986.83248   2247014.40547  19947055.9144   19947054.7344   22306664.94947
  17407637.35145                  22208853.0944   22208852.4104
  -3477251.39547  -2691493.20645  21881599.0784                   21881596.8714
  15402792.85247  12026903.03945  22454366.2194   22454365.8364
  30306364.06645                  23629503.23943  24278948.0634   24278948.3094
  30398824.87547                  23712413.26244  23536997.9224   23536998.7234
 11  7 28  0  2 30.0000000  0  8G17G02G04G09G28G27G20G10
   1600636.05148   1274456.73246  21440338.6024   21440336.7504   20446054.97347
  15958890.05245                  22307234.4694                   22307232.5314
   2798519.33648   2210026.76247  19938023.5474   19938021.8794   22246013.00447
  17360376.11445                  22197311.6174   22197310.8714
  -3460465.39547  -2678413.24345  21884793.3284                   21884791.5864
  15358878.85947  11992684.30545  22446010.0784   22446009.4884
  30307948.53546                  23630737.84343  24279249.6804   24279249.5864
  30270485.73447                  23612408.82144  23512575.8754   23512576.8364
 11  7 28  0  3  0.0000000  0  8G17G02G04G09G28G27G20G10
   1597276.12148   1271838.59446  21439699.0784   21439696.9454   20332843.71148
  15870673.58645                  22285690.7734                   22285688.6994
   2751632.46148   2173491.55146  19929100.8284   19929099.4494   22186005.83647
  17313617.30145                  22185891.6564   22185892.0394
  -3443297.75848  -2665035.89846  21888060.0474                   21888058.8324
  15315465.42247  11958855.64045  22437748.5704   22437748.2544
  30310033.80546                  23632362.71443  24279648.2114   24279646.8524
  30142210.06647                  23512453.86044  23488166.1414   23488166.8204
 11  7 28  0  3 30.0000000  0  8G17G02G04G09G28G27G20G10
   1594016.65248   1269298.74546  21439078.7194   21439077.1764   20219936.69948
  15782694.17545                  22264205.5394                   22264203.6374
   2705325.04748   2137407.86446  19920289.2894   19920287.6524   22126643.40247
  17267360.87445                  22174596.2974   22174595.6484
  -3425749.28947  -2651361.79545  21891399.7424                   21891398.0704
  15272551.80947  11925416.44145  22429582.4844   22429581.9184
  30312618.64846                  23634376.85243  24280139.7584   24280137.8244
  30014000.04747                  23412550.07944  23463767.8594   23463768.6994
 11  7 28  0  4  0.0000000  0  8G17G02G04G09G28G27G20G10
   1590856.57048   1266836.34846  21438477.6804   21438475.8794   20107334.50048
  15694952.29845                  22242777.9224                   22242775.9104
   2659595.94548   2101774.81747  19911586.9304   19911585.6604   22067925.06347
  17221606.32845                  22163422.3444   22163422.1174
  -3407820.96948  -2637391.69945  21894811.5004                   21894809.5004
  15230137.00447  11892365.92645  22421511.3284   22421511.0044
  30315701.14146                  23636778.80443  24280726.7274   24280724.7584
  29885857.69547                  23312699.00744  23439383.6094   23439384.3284
 11  7 28  0  4 30.0000000  0  7G17G02G04G09G28G27G10
   1587797.62548   1264452.74546  21437895.5234   21437893.5984   19995040.56348
  15607450.61846                  22221409.0084                   22221406.6484
   2614446.93848   2066593.79346  19902995.5474   19902994.0594   22009853.52047
  17176355.78645                  22152372.1024   22152371.6174
  -3389510.57048  -2623123.89545  21898295.8754                   21898293.9574
  15188223.06347  11859705.70845  22413535.1484   22413534.5474
  29757788.54347                  23212905.02444  23415012.8204   23415013.6954
 11  7 28  0  5  0.0000000  0  7G17G02G04G09G28G27G10
   1584838.91048   1262147.24046  21437332.5474   21437330.5084   19883055.42648
  15520189.56746                  22200099.2344                   22200096.7114
   2569876.82848   2031863.85046  19894514.1804   19894512.6334   21952428.30947
  17131608.86345                  22141444.0864   22141443.2464
  -3370818.89548  -2608558.99345  21901852.7814                   21901850.9024
  15146808.91447  11827434.93345  22405654.5784   22405654.0704
  29629795.25847                  23113170.16044  23390655.6024   23390657.2274
 11  7 28  0  5 30.0000000  0  7G17G02G04G09G28G27G10
   1581991.16048   1259928.20546  21436790.4694   21436788.5784   19771391.64848
  15433178.91446                  22178850.1024                   22178847.5634
   2525896.32848   1997593.35347  19886145.1334   19886143.5594   21895661.52747
  17087375.02345                  22130641.4844   22130641.5704
  -3351734.72747  -2593688.25645  21905484.2734                   21905482.4574
  15105905.74647  11795562.32145  22397870.4924   22397869.9144
  29501892.33647                  23013505.69844  23366317.2194   23366317.3914
 11  7 28  0  6  0.0000000  0  7G17G02G04G09G28G27G10
   1579258.02348   1257798.46446  21436270.0704   21436268.6094   19660054.11348
  15346422.47446                  22157663.1724                   22157661.0904
   2482508.60948   1963784.75747  19877888.3984   19877887.3674   21839557.47347
  17043657.58245                  22119965.5234   22119965.1254
  -3332254.66447  -2578509.02845  21909191.5394                   21909189.4774
  15065516.87147  11764090.48045  22390185.2344   22390184.7464
  29374086.44547                  22913916.84444  23341996.1414   23341997.3834
 11  7 28  0  6 30.0000000  0  7G17G02G04G09G28G27G10
   1576639.72348   1255758.22046  21435772.4844   21435770.1644   19549044.79748
  15259921.80146                  22136538.6804                   22136536.5044
   2439713.87948   1930438.23047  19869745.0314   19869743.5234   21784116.84047
  17000457.07845                  22109415.4534   22109414.8954
  -3312378.29347  -2563020.98545  21912973.8444                   21912972.3324
  15025642.94947  11733019.87845  22382597.4224   22382597.2544
  29246381.58246                  22814406.68144  23317694.4384   23317695.7464
 11  7 28  0  7  0.0000000  0  7G17G02G04G09G28G27G10
   1574131.88348   1253804.05046  21435295.0554   21435293.2384   19438360.68448
  15173674.52846                  22115476.2034                   22115473.6524
   2397507.43048   1897550.09246  19861713.3754   19861712.0594   21729335.57847
  16957770.35245                  22098990.6724   22098990.1564
  -3292109.53147  -2547227.18645  21916830.5864                   21916828.6374
  14986279.16047  11702346.79945  22375106.9534   22375106.0864
  29118776.35946                  22714974.21944  23293411.6564   23293413.1134
 11  7 28  0  7 30.0000000  0  7G17G02G04G09G28G27G10
   1571726.60948   1251929.78646  21434837.2114   21434835.5314   19327995.64148
  15087675.88146                  22094474.5394                   22094471.7504
   2355880.99648   1865113.93147  19853792.0004   19853790.7544   21675206.60547
  16915591.92645                  22088690.4774   22088689.8914
  -3271455.98847  -2531133.56145  21920761.0394                   21920759.1684
  14947417.77047  11672065.19245  22367711.9144   22367711.1254
  28991266.59846                  22615616.10444  23269147.5394   23269148.5864
 11  7 28  0  8  0.0000000  0  7G17G02G04G09G28G27G10
   1569423.32048   1250135.02446  21434398.9774   21434397.4454   19217950.84048
  15001926.78346                  22073533.8284                   22073531.1054
   2314833.98448   1833129.25546  19845981.2424   19845979.6884   21621730.11747
  16873921.90545                  22078514.3754   22078513.7704
  -3250418.12147  -2514740.46345  21924764.3984                   21924762.5124
  14909058.50047  11642174.86445  22360412.1724   22360411.7814
  28863855.43046                  22516334.81844  23244901.6024   23244902.7034
 11  7 28  0  8 30.0000000  0  7G17G02G04G09G28G27G10
   1567217.38747   1248416.09346  21433979.3284   21433977.5704   19108222.85948
  14916424.54146                  22052652.7424                   22052650.0744
   2274361.49648   1801592.26446  19838279.4614   19838278.1374   21568901.97347
  16832757.08545                  22068461.6644   22068460.9144
  -3229000.48047  -2498051.44745  21928840.2114                   21928838.2934
  14871196.58647  11612672.07845  22353207.3834   22353207.3634
  28736541.51647                  22417129.31244  23220674.5004   23220675.5204
 11  7 28  0  9  0.0000000  0  7G17G02G04G09G28G27G10
   1565109.19948   1246773.34646  21433578.4774   21433576.3874   18998812.99648
  14831170.18946                  22031832.8364                   22031830.1914
   2234462.83248   1770502.40846  19830687.0084   19830685.5514   21516722.67647
  16792097.87545                  22058532.2734   22058531.8134
  -3207202.99247  -2481066.42945  21932987.8674                   21932986.6024
  14833831.84847  11583556.70445  22346097.0864   22346096.8634
  28609328.35547                  22318002.30244  23196466.6484   23196467.4654
 11  7 28  0  9 30.0000000  0  7G17G02G04G09G28G27G10
   1563100.86347   1245208.40846  21433196.1564   21433193.9774   18889725.18448
  14746166.77746                  22011073.9304                   22011071.6644
   2195140.34848   1739861.51947  19823204.2424   19823202.5234   21465194.99247
  16751946.39445                  22048726.6024   22048726.3324
  -3185023.30147  -2463783.60045  21937208.6174                   21937207.4454
  14796966.68047  11554830.59745  22339081.6484   22339081.2624
  28482221.88747                  22218958.48944  23172278.8524   23172279.8984
 11  7 28  0 10  0.0000000  0  7G17G02G04G09G28G27G10
   1561193.30948   1243721.98446  21432833.1724   21432831.1374   18780961.67648
  14661416.07546                  21990376.9534                   21990374.1414
   2156394.09048   1709669.63847  19815830.9534   19815829.4494   21414320.24247
  16712303.70145                  22039045.8524   22039045.5004
  -3162460.27047  -2446202.07845  21941502.6644                   21941500.6374
  14760601.75447  11526494.30245  22332161.9144   22332161.3094
  28355226.66046                  22120001.25744  23148112.9384   23148113.5474
 11  7 28  0 10 30.0000000  0  7G17G02G04G09G28G27G10
   1559380.87148   1242309.67446  21432488.2504   21432485.8954   18672518.13348
  14576914.69146                  21969740.7034                   21969738.1844
   2118217.77048   1679921.87047  19808566.1804   19808564.5744   21364092.70347
  16673165.33545                  22029487.8524   22029487.3954
  -3139520.13747  -2428326.68945  21945867.7974                   21945866.2814
  14724730.61347  11498542.75045  22325335.9304   22325335.7034
  28228340.06646                  22021128.68144  23123966.9304   23123967.4654
 11  7 28  0 11  0.0000000  0  7G17G02G04G09G28G27G10
   1557669.68048   1240976.26246  21432162.5944   21432160.2774   18564402.48848
  14492668.81846                  21949166.6564                   21949164.3594
   2080617.73448   1650623.14947  19801411.0864   19801409.5944   21314519.43847
  16634536.78545                  22020054.4144   22020054.1294
  -3116195.82047  -2410151.94645  21950306.2114                   21950304.6524
  14689360.09847  11470981.29345  22318604.9774   22318604.3914
  28101572.35546                  21922348.76844  23099843.8914   23099844.3404
 11  7 28  0 11 30.0000000  0  7G17G02G04G09G28G27G10
   1556052.99248   1239716.48146  21431854.8754   21431852.9924   18456609.10948
  14408674.05446                  21928654.3204                   21928651.9654
   2043586.41448   1621767.59046  19794364.5234   19794363.0704   21265593.73847
  16596412.83745                  22010743.8054   22010743.7274
  -3092494.45347  -2391683.39545  21954816.3984                   21954814.6094
  14654482.93047  11443804.26745  22311968.2034   22311967.6334
  27974919.67647                  21823658.48644  23075742.5004   23075742.8054
 11  7 28  0 12  0.0000000  0  7G17G02G04G09G28G27G10
   1554533.95748   1238532.81946  21431565.4694   21431563.9884   18349142.51648
  14324933.93046                  21908204.1174                   21908201.5164
   2007125.99248   1593356.88446  19787426.1254   19787424.3714   21217318.87547
  16558796.05145                  22001557.4924   22001556.7894
  -3068413.30147  -2372918.88045  21959399.1804                   21959397.7344
  14620101.89547  11417013.83645  22305425.8444   22305425.0204
  27848388.69946                  21725063.04044  23051663.7894   23051664.5634
 11  7 28  0 12 30.0000000  0  7G17G02G04G09G28G27G10
   1553110.77747   1237423.83846  21431295.2504   21431293.0514   18242002.23448
  14241448.06146                  21887816.0634                   21887813.2894
   1971234.70348   1565389.65746  19780596.2274   19780594.5204   21169693.46547
  16521685.32745                  21992494.4144   21992494.1334
  -3043953.80947  -2353859.58645  21964053.6094                   21964052.0234
  14586215.05947  11390608.51045  22298977.0004   22298976.8754
  27721981.34846                  21626563.91744  23027609.7194   23027610.0004
 11  7 28  0 13  0.0000000  0  7G17G02G04G09G28G27G10
   1551785.52347   1236391.17246  21431042.9454   21431041.2624   18135191.42648
  14158218.93146                  21867490.6954                   21867488.0664
   1935913.62148   1537866.75047  19773874.7194   19773873.5164   21122719.41847
  16485082.15645                  21983555.8134   21983555.3674
  -3019114.50047  -2334504.33545  21968781.1024                   21968778.7734
  14552823.94947  11364589.44945  22292622.9384   22292622.4344
  27595702.90646                  21528165.24744  23003579.6334   23003579.8404
 11  7 28  0 13 30.0000000  0  7G17G02G04G09G28G27G10
   1550559.04347   1235435.45646  21430809.4454   21430807.7624   18028712.16848
  14075248.15846                  21847227.7344                   21847225.5514
   1901162.76248   1510788.17047  19767262.1564   19767260.2704   21076397.96147
  16448987.49945                  21974741.2814   21974740.3834
  -2993893.96547  -2314852.03045  21973579.6094                   21973577.8834
  14519928.87947  11338956.91445  22286363.3364   22286362.8634
  27469557.33646                  21429870.09344  22979574.6174   22979574.9264
 11  7 28  0 14  0.0000000  0  7G17G02G04G09G28G27G10
   1549430.12148   1234555.76046  21430594.5474   21430592.8244   17922564.91848
  13992536.08446                  21827028.8674                   21827026.5664
   1866980.35948   1484152.53647  19760757.3914   19760755.6884   21030728.00447
  16413400.53345                  21966050.6644   21966050.2274
  -2968294.07447  -2294904.11245  21978451.2034                   21978449.3324
  14487528.68447  11313709.99445  22280197.8834   22280197.2894
  27343547.20346                  21331680.52144  22955596.0784   22955596.1094
 11  7 28  0 14 30.0000000  0  7G17G02G04G09G28G27G10
   1548396.74247   1233750.52046  21430397.8834   21430396.3324   17816748.62148
  13910081.89246                  21806892.5634                   21806890.3524
   1833363.82848   1457957.85646  19754360.1804   19754358.9344   20985707.32047
  16378319.47045                  21957483.3524   21957482.9454
  -2942317.25047  -2274662.48245  21983394.2664                   21983392.9574
  14455620.58247  11288846.51945  22274125.6334   22274125.2424
  27217673.93446                  21233597.55544  22931642.5784   22931643.0704
 11  7 28  0 15  0.0000000  0  7G17G02G04G09G28G27G10
   1547462.61347   1233022.61746  21430220.2194   21430217.9844   17711268.18447
  13827889.41346                  21786820.4694                   21786817.8204
   1800316.10248   1432206.39347  19748071.6094   19748069.4614   20941339.73447
  16343747.34345                  21949040.8674   21949039.8484
  -2915959.58647  -2254124.10445  21988410.0314                   21988408.3164
  14424208.10947  11264369.25145  22268148.2974   22268148.1134
  27091944.77747                  21135626.90044  22907717.2274   22907717.6764
 11  7 28  0 15 30.0000000  0  7G17G02G04G09G28G27G10
   1546623.17647   1232368.50146  21430060.5784   21430058.5044   17606120.51247
  13745956.23546                  21766811.4924                   21766808.6884
   1767831.99647   1406894.12547  19741889.8364   19741888.7734   20897620.82047
  16309680.66045                  21940721.0784   21940720.4224
  -2889225.63347  -2233292.51045  21993497.8134                   21993495.8244
  14393286.34847  11240274.35045  22262264.0004   22262263.3954
  26966358.84447                  21037767.86144  22883818.5864   22883819.3674
 11  7 28  0 16  0.0000000  0  7G17G02G04G09G28G27G10
   1545880.23447   1231789.56446  21429919.5944   21429917.0704   17501308.25848
  13664284.41846                  21746866.2584                   21746863.4924
   1735912.27048   1382021.61946  19735815.8134   19735814.2814   20854552.36347
  16276120.83445                  21932525.6644   21932525.1374
  -2862114.23047  -2212166.78745  21998656.4454                   21998654.7584
  14362856.40247  11216562.67145  22256473.4224   22256473.1214
  26840921.12147                  20940024.30344  22859948.7274   22859949.3794
 11  7 28  0 16 30.0000000  0  7G17G02G04G09G28G27G10
   1545236.18847   1231287.69646  21429796.4064   21429794.4844   17396835.16048
  13582876.86846                  21726985.7344                   21726982.8594
   1704558.23448   1357589.92547  19729849.3984   19729847.8054   20812136.24647
  16243069.31145                  21924453.9384   21924453.5744
  -2834623.45347  -2190745.44245  22003888.3364                   22003886.4224
  14332920.01247  11193235.60945  22250776.5394   22250776.4144
  26715637.03947                  20842400.45044  22836108.0164   22836108.4654
 11  7 28  0 17  0.0000000  0  7G17G02G04G09G28G27G10
   3120103.01247   2458456.63346  21729483.8524   21729482.3204   18868117.62148
  14729330.79346                  22006961.3594                   22006958.7894
   3249182.58247   2561193.32246  20023781.4774   20023779.7114   22345785.72347
  17438120.87245                  22216297.8754   22216297.1884
  -1231341.96147   -941435.26345  22308982.4064                   22308981.0354
  15878889.48047  12397887.12045  22544964.8524   22544964.5824
  28165926.43047                  21972496.18844  23112088.6644   23112089.1604
 11  7 28  0 17 30.0000000  0  7G17G02G04G09G28G27G10
   3119646.29347   2458100.73146  21729396.7734   21729395.3554   18764315.96948
  14648446.45146                  21987208.5234                   21987205.9654
   3218947.56348   2537633.58147  20018028.0704   20018026.4804   22304663.53147
  17406077.60645                  22208472.6174   22208472.1644
  -1203102.92247   -919430.85945  22314356.2424                   22314354.6214
  15849928.12947  12375319.80945  22539453.9304   22539453.6484   28040949.93047
  21875112.00544                  23088306.3914   23088306.7194
 11  7 28  0 18  0.0000000  0  7G17G02G04G09G28G27G10
   3119282.65647   2457817.36646  21729327.5784   21729325.7624   18660850.74248
  14567824.25946                  21967519.6804                   21967516.8914
   3189270.05548   2514508.25847  20012380.5234   20012378.8284   22264187.41847
  17374537.78945                  22200770.3134   22200769.7704
  -1174490.89147   -897135.83545  22319801.1094                   22319799.5314
  15821452.82847  12353131.25945  22534034.6884   22534035.0124   27916131.66047
                                  21777851.14144  23064554.4614   23064554.7544
 11  7 28  0 18 30.0000000  0  7G17G02G04G09G28G27G10
   3119012.73847   2457607.03346  21729276.1334   21729274.4694   18557723.75848
  14487465.63346                  21947895.2894                   21947892.7974
   3160149.49247   2491816.91447  20006839.2194   20006837.3444   22224357.62947
  17343501.57845                  22193191.0314   22193190.0354
  -1145505.54347   -874549.90545  22325316.6484                   22325315.1414
  15793463.45747  12331321.33245  22528708.9694   22528708.5824   27791475.39547
                                  21680716.48944  23040832.7504   23040833.1954
 11  7 28  0 19  0.0000000  0  7G17G02G04G09G28G27G10
   3118833.71147   2457467.51646  21729242.2504   21729240.1724   18454933.46148
  14407369.35546                  21928335.2114                   21928332.0984
   3131582.46548   2469556.90546  20001403.1414   20001401.4064   22185171.33247
  17312966.81445                  22185733.7424   22185733.1644
  -1116150.39547   -851675.80545  22330902.8754                   22330901.2194
  15765956.74647  12309887.52045  22523474.6644   22523474.3634   27666982.24647
                                  21583708.94044  23017142.6804   23017142.8284
 11  7 28  0 19 30.0000000  0  7G17G02G04G09G28G27G10
   3118750.36748   2457402.56946  21729226.3984   21729224.0434   18352485.67648
  14327539.96246                  21908839.5474                   21908837.0124
   3103572.71948   2447731.13947  19996073.0164   19996071.0864   22146633.11347
  17282937.03345                  22178400.3674   22178399.6914
  -1086420.68047   -828509.84645  22336560.3674                   22336558.8134
  15738936.88347  12288833.05745  22518333.0704   22518332.7304   27542660.30547
                                  21486834.80745  22993484.5004   22993484.8364
 11  7 28  0 20  0.0000000  0  7G17G02G04G09G28G27G10
   3118759.85248   2457409.94946  21729228.2424   21729226.1454   18250378.71548
  14247976.16146                  21889409.2894                   21889406.8404
   3076116.18048   2426336.45247  19990848.1804   19990846.2344   22108739.81347
  17253409.78845                  22171188.7504   22171188.8794
  -1056319.68047   -805054.57145  22342288.1174                   22342287.1134
  15712400.23847  12268155.14445  22513283.0704   22513283.1804   27418510.25447
                                  21390094.62345  22969859.5634   22969859.9924
 11  7 28  0 20 30.0000000  0  7G17G02G04G09G28G27G10
   3118864.69948   2457491.63646  21729247.9454   21729245.9844   18148615.84048
  14168680.47946                  21870044.3984                   21870041.3874
   3049214.24648   2405373.91247  19985729.2114   19985727.0354   22071492.94147
  17224386.26745                  22164102.0864   22164101.1644
  -1025845.60947   -781308.60345  22348087.5234                   22348086.1644
  15686348.16847  12247854.81445  22508325.9774   22508325.2774   27294537.44547
                                  21293492.54345  22946268.4774   22946268.5124
 11  7 28  0 21  0.0000000  0  7G17G02G04G09G28G27G10
   3119062.00047   2457645.35646  21729285.9694   21729284.0044   18047195.07448
  14089651.38046                  21850744.5234                   21850741.5004
   3022862.93048   2384840.42847  19980714.5004   19980712.8054   22034889.06347
  17195863.75745                  22157135.9384   22157135.4844
   -995001.89147   -757274.58745  22353956.8204                   22353955.5004
  15660777.09847  12227929.29445  22503460.0944   22503459.5164   27170742.50447
                                  21197029.05445  22922711.0634   22922711.0004
 11  7 28  0 21 30.0000000  0  8G17G02G04G09G28G27G12G10
   3119349.25447   2457869.17846  21729340.4694   21729338.6054   17946115.79748
  14010888.36246                  21831509.6024                   21831506.9304
   2997059.07047   2364733.54447  19975804.0164   19975802.3674   21998925.98047
  17167840.56445                  22150292.6804   22150291.9534
   -963790.96547   -732954.43645  22359895.9454                   22359894.5354
  15635684.22746  12208376.40145  22498684.9534   22498684.5514
  37629721.23856  29347124.23454  24424693.1024   24424692.5234   27047126.66047
                                  21100705.11945  22899187.4384   22899187.3794
 11  7 28  0 22  0.0000000  0  8G17G02G04G09G28G27G12G10
   3119719.60248   2458157.75446  21729411.0394   21729409.0904   17845371.05148
  13932386.03246                  21812338.6724                   21812336.0634
   2971794.14848   2345046.60447  19970996.4694   19970994.6254   21963595.89547
  17140310.62145                  22143569.7894   22143569.0434
   -932220.63347   -708354.24345  22365903.9694                   22365902.2584
  15611061.47347  12189189.83445  22493999.2504   22493999.1334
  37498377.42246  29244778.47643  24399699.0394   24399698.2544   26923686.28147
                                  21004517.92844  22875697.5394   22875697.7304
 11  7 28  0 22 30.0000000  0  8G17G02G04G09G28G27G12G10
   3120166.42247   2458505.90546  21729495.9224   21729494.0314   17744955.43848
  13854140.16046                  21793230.2814                   21793227.3754
   2947060.51248   2325773.63747  19966289.5784   19966287.8404   21928891.71947
  17113268.41845                  22136965.6484   22136964.8874
   -900297.59447   -683479.21945  22371978.9534                   22371977.4614
  15586901.26247  12170363.70345  22489401.5234   22489401.3284
  37367031.37946  29142431.04844  24374704.7894   24374704.0784   26800418.15247
                                  20908464.94144  22852240.5004   22852240.4494
 11  7 28  0 23  0.0000000  0  8G17G02G04G09G28G27G12G10
   3120694.02047   2458917.01946  21729596.0864   21729594.3594   17644874.18848
  13776154.84646                  21774185.4144                   21774182.2464
   2922861.33648   2306917.14446  19961684.6954   19961682.4024   21894816.88347
  17086716.58945                  22130481.0164   22130480.4884
   -868018.73847   -658326.91045  22378121.3134                   22378119.9844
  15563207.07847  12151900.68245  22484892.8594   22484892.1724
  37235689.18446  29040086.55243  24349711.2194   24349710.1804   26677329.84047
                                  20812552.05944  22828817.4614   22828817.1174
 11  7 28  0 23 30.0000000  0  8G17G02G04G09G28G27G12G10
   3121303.02748   2459391.56046  21729712.0004   21729710.1484   17545128.87948
  13698431.29646                  21755204.0004                   21755201.1724
   2899195.71948   2288476.41946  19957181.3834   19957179.3324   21861371.65647
  17060655.38745                  22124117.1724   22124116.0204
   -835383.85247   -632897.20145  22384331.4844                   22384329.7814
  15539978.53147  12133800.50945  22480472.5234   22480472.1214
  37104352.96146  28937746.67743  24324718.3914   24324717.4184   26554425.19147
                                  20716782.30744  22805428.9064   22805428.8244
 11  7 28  0 24  0.0000000  0  8G17G02G04G09G28G27G12G10
   3121996.68848   2459932.05946  21729844.3524   21729842.3134   17445723.84048
  13620972.88546                  21736288.3674                   21736285.4454
   2876066.10948   2270453.35547  19952779.8594   19952777.9534   21828558.39147
  17035086.59245                  22117872.8204   22117871.9304
   -802389.97747   -607187.75345  22390609.6094                   22390608.1294
  15517218.05947  12116065.08345  22476141.2424   22476140.6254
  36973028.06646  28835415.67943  24299728.4614   24299727.3444   26431711.14847
                                  20621161.09644  22782077.5554   22782077.4184
 11  7 28  0 24 30.0000000  0  8G17G02G04G09G28G27G12G10
   3122784.41848   2460545.85546  21729994.0784   21729991.9734   17346668.98448
  13543787.35546                  21717438.3834                   21717435.4964
   2853480.49248   2252854.17846  19948481.6254   19948480.1024   21796385.80147
  17010017.05145                  22111750.7584   22111749.4304
   -769028.73047   -581192.03845  22396958.2424                   22396956.9694
  15494934.11747  12098700.96645  22471900.9454   22471900.3954
  36841725.73047  28733102.25643  24274742.0234   24274739.9024   26309200.16047
                                  20525698.07644  22758764.0704   22758764.2154
 11  7 28  0 25  0.0000000  0  8G17G02G04G09G28G27G12G10
   3123666.04748   2461232.80046  21730162.2034   21730160.0984   17247965.05948
  13466875.26746                  21698655.9454                   21698652.6374
   2831437.27048   2235677.63547  19944287.2814   19944285.4344   21764853.03547
  16985446.08445                  22105750.0314   22105749.1764
   -735300.76247   -554910.58745  22403376.4924                   22403375.3954
  15473125.44947  12081707.19245  22467750.9534   22467750.2194
  36710447.96147  28630807.98343  24249760.7974   24249759.4024   26186895.48847
                                  20430395.81344  22735490.3054   22735489.6134
 11  7 28  0 25 30.0000000  0  8G17G02G04G09G28G27G12G10
   3124640.34048   2461991.97446  21730347.6174   21730345.4964   17149611.69948
  13390236.35846                  21679939.7194                   21679936.7424
   2809933.99248   2218921.84947  19940195.1174   19940193.2274   21733958.20747
  16961372.21545                  22099870.8914   22099870.3484
   -701207.76647   -528344.67345  22409864.4534                   22409863.0434
  15451789.82047  12065082.02245  22463690.8444   22463690.2274
  36579194.96547  28528532.96944  24224784.2504   24224782.3674   26064799.23047
                                  20335255.96944  22712255.9064   22712255.7934
 11  7 28  0 26  0.0000000  0  8G17G02G04G09G28G27G12G10
   3125711.22348   2462826.41346  21730551.4454   21730549.2854   17051613.64848
  13313874.30646                  21661291.2424                   21661288.2544
   2788973.14148   2202588.72147  19936206.5634   19936204.7274   21703704.27047
  16937797.71645                  22094113.9924   22094112.6764
   -666746.71147   -501491.94645  22416422.0004                   22416420.8404
  15430930.04747  12048827.63945  22459721.1334   22459720.5274
  36447972.49247  28426281.77344  24199813.0944   24199811.6214   25942918.58247
                                  20240284.13244  22689063.0234   22689062.6954
 11  7 28  0 26 30.0000000  0  8G17G02G04G09G28G27G12G10
   3126876.65248   2463734.52346  21730773.1724   21730771.3794   16953969.15648
  13237787.74346                  21642710.0394                   21642707.1954
   2768551.10948   2186675.45746  19932320.2424   19932318.4774   21674088.21547
  16914720.26945                  22088478.4924   22088477.5004
   -631920.42647   -474354.64345  22423049.8914                   22423047.6024
  15410542.81647  12032941.47945  22455841.7504   22455840.9884
  36316780.37147  28324054.23944  24174848.5474   24174847.1334   25821254.89547
                                  20145481.34745  22665910.9304   22665911.2624
 11  7 28  0 27  0.0000000  0  8G17G02G04G09G28G27G12G10
   3128136.40648   2464716.14446  21731012.7034   21731010.9064   16856679.43448
  13161977.63946                  21624196.0784                   21624193.7114
   2748666.46948   2171180.94647  19928536.5314   19928534.3444   21645109.03147
  16892139.10145                  22082963.5314   22082962.5234
   -596729.66847   -446933.33745  22429746.4534                   22429744.3754
  15390627.02747  12017422.66145  22452051.6254   22452051.1254
  36185620.46147  28221851.79644  24149889.4304   24149887.9924   25699811.23047
                                  20050849.99744  22642801.1254   22642800.7624
 11  7 28  0 27 30.0000000  0  8G17G02G04G09G28G27G12G10
   3129482.70347   2465765.20146  21731268.5234   21731266.9064   16759737.50848
  13086438.53946                  21605748.8754                   21605745.9384
   2729310.11748   2156098.08047  19924853.1644   19924851.1134   21616758.16847
  16870047.53545                  22077568.3204   22077567.9184
   -561182.77747   -419234.50345  22436510.5784                   22436509.2424
  15371173.98847  12002264.43445  22448349.8674   22448349.6724
  36054486.77047  28119669.75944  24124935.0704   24124934.7974   25578583.46947
                                  19956386.89345  22619732.1484   22619732.1294
 11  7 28  0 28  0.0000000  0  8G17G02G04G09G28G27G12G10
   3130923.12947   2466887.60346  21731543.1334   21731541.0234   16663150.95348
  13011176.35446                  21587369.2504                   21587366.2624
   2710487.69548   2141431.26147  19921271.4224   19921269.2814   21589041.71147
  16848450.30445                  22072294.4064   22072293.6414
   -525273.66447   -391253.44245  22443344.2734                   22443342.6214
  15352189.35547  11987471.19945  22444737.5314   22444736.5554
  35923388.11347  28017515.04944  24099987.6644   24099986.1414   25457581.37947
                                  19862099.66245  22596706.1414   22596705.7464
 11  7 28  0 28 30.0000000  0  8G17G02G04G09G28G27G12G10
   3132459.24648   2468084.57346  21731835.4304   21731833.5234   16566922.52348
  12936193.23146                  21569057.4144                   21569054.0904
   2692199.89548   2127181.04947  19917791.0704   19917789.6334   21561960.70747
  16827348.24845                  22067140.9844   22067140.4534
   -489001.12547   -362989.20845  22450246.2194                   22450244.4964
  15333674.15247  11973043.75545  22441214.2584   22441213.8484
  35792328.66447  27915390.89544  24075048.0164   24075047.0314   25336810.69547
                                  19767992.70845  22573724.3364   22573724.0044
 11  7 28  0 29  0.0000000  0  8G17G02G04G09G28G27G12G10
   3134088.73848   2469354.28346  21732145.7974   21732143.4574   16471050.69148
  12861487.95546                  21550813.6094                   21550810.4804
   2674442.72348   2113344.29446  19914412.0164   19914410.2384   21535511.70747
  16806738.65345                  22062107.8914   22062106.7664
   -452368.05547   -334444.01945  22457217.4694                   22457215.5784
  15315624.80147  11958979.33145  22437779.4454   22437778.7034
  35661308.06347  27813296.98244  24050115.2664   24050114.1294   25216272.44947
                                  19674066.89745  22550786.5554   22550785.9884
 11  7 28  0 29 30.0000000  0  8G17G02G04G09G28G27G12G10
   3135812.24647   2470697.26946  21732473.4454   21732471.4344   16375536.44548
  12787061.33246                  21532637.9224                   21532634.8984
   2657215.10548   2099920.19547  19911133.6254   19911131.9964   21509693.93847
  16786620.90745                  22057194.7034   22057194.2194
   -415375.03947   -305618.33845  22464256.8594                   22464255.5204
  15298040.40248  11945277.17645  22434433.4614   22434432.8524
  35530328.36747  27711234.90144  24025191.0394   24025189.7464   25095970.25447
                                  19580324.99845  22527893.7274   22527893.2624
 11  7 28  0 30  0.0000000  0  8G17G02G04G09G28G27G12G10
   3137631.95347   2472115.21546  21732819.6644   21732817.8014   16280382.59848
  12712915.52846                  21514530.5704                   21514527.6254
   2640517.46548   2086909.06547  19907956.3754   19907954.5594   21484508.43847
  16766995.86645                  22052402.1644   22052401.3954
   -378020.90247   -276511.27345  22471365.2504                   22471364.0044
  15280921.77347  11931937.99545  22431175.8284   22431175.0944
  35399393.48447  27609207.77544  24000274.5784   24000273.8914   24975909.14847
                                  19486770.97545  22505046.5554   22505046.5004
 11  7 28  0 30 30.0000000  0  8G17G02G04G09G28G27G12G10
   3139543.45747   2473604.69346  21733183.4224   21733181.4184   16185585.85948
  12639047.99746                  21496491.2424                   21496488.2344
   2624344.58648   2074306.82047  19904878.6644   19904877.0554   21459950.10947
  16747859.48945                  22047728.8364   22047728.1764
   -340310.30547   -247126.46945  22478541.2894                   22478540.5984
  15264263.99647  11918957.89445  22428005.8594   22428005.5664
  35268501.72747  27507214.26144  23975367.1174   23975366.4414   24856088.77347
                                  19393404.53045  22482245.4694   22482245.3404
 11  7 28  0 31  0.0000000  0  8G17G02G04G09G28G27G12G10
   3141546.04347   2475165.14346  21733564.7194   21733563.0234   16091145.80548
  12565458.40646                  21478519.8364                   21478516.5204
   2608693.39848   2062111.09847  19901900.4384   19901898.7154   21436016.73847
  16729210.11445                  22043174.3524   22043173.9304
   -302244.98847   -217465.26145  22485784.9064                   22485783.6954
  15248064.74647  11906335.10345  22424922.8754   22424923.0984
  35137653.87147  27405254.95444  23950467.7194   23950466.5314   24736511.42647
                                  19300227.47545  22459490.5634   22459490.7704
 11  7 28  0 31 30.0000000  0  8G17G02G04G09G28G27G12G10
   3143640.51248   2476797.18746  21733963.2504   21733961.2424   15997063.86348
  12492147.84746                  21460616.6414                   21460613.6054
   2593563.28148   2050321.41147  19899021.1644   19899019.6884   21412707.76647
  16711047.28645                  22038738.8204   22038738.1684
   -263825.39847   -187527.96445  22493095.9924                   22493094.9614
  15232323.17246  11894068.92245  22421927.6414   22421927.2304
  35006852.46947  27303331.83844  23925576.5164   23925575.6054   24617181.12947
                                  19207242.92345  22436782.9064   22436782.6724
 11  7 28  0 32  0.0000000  0  8G17G02G04G09G28G27G12G10
   3145827.44948   2478501.26846  21734379.4534   21734377.4774   15903341.04348
  12419117.11746                  21442781.7504                   21442778.7304
   2578952.99648   2038936.77247  19896240.9924   19896239.4574   21390022.70747
  16693370.61145                  22034422.1414   22034421.6294
   -225051.77047   -157314.82445  22500474.5234                   22500473.5594
  15217038.36347  11882158.70645  22419019.1644   22419018.7074
  34876099.85547  27201446.74644  23900694.8754   23900694.8524   24498101.60947
                                  19114453.74945  22414122.6884   22414122.6644
 11  7 28  0 32 30.0000000  0  8G17G02G04G09G28G27G12G10
   3148108.17648   2480278.44346  21734813.5634   21734811.6254   15809979.31348
  12346367.77146                  21425015.4614                   21425012.3014
   2564862.52348   2027957.18246  19893559.8674   19893558.0234   21367961.80947
  16676180.28345                  22030224.1724   22030223.7034
   -185923.92247   -126825.65045  22507920.5704                   22507919.0944
  15202210.41847  11870604.44245  22416197.9064   22416197.1884
  34745399.48047  27099602.36744  23875823.3834   23875822.5824   24379277.45747
                                  19021863.57445  22391511.5474   22391511.2974
 11  7 28  0 33  0.0000000  0  8G17G02G04G09G28G27G12G10
   3150477.18047   2482124.40346  21735264.3284   21735262.2344   15716973.55148
  12273895.81046                  21407316.8364                   21407313.8634
   2551284.56348   2017376.96047  19890976.0704   19890974.3594   21346518.19147
  16659470.98445                  22026143.7504   22026142.8524
   -146448.10547    -96065.33845  22515432.1024                   22515431.2624
  15187832.35947  11859400.74745  22413461.2734   22413461.1914
  34614747.57047  26997795.76344  23850961.1414   23850960.9774   24260706.41047
                                  18929470.62745  22368948.1024   22368947.4884
 11  7 28  0 33 30.0000000  0  8G17G02G04G09G28G27G12G10
   3152940.66847   2484043.99646  21735733.1174   21735731.5984   15624330.39148
  12201706.38146                  21389687.5394                   21389684.5634
   2538223.40248   2007199.43846  19888490.3364   19888489.0274   21325696.34447
  16643246.16045                  22022181.1024   22022180.9344
   -106619.46947    -65030.13044  22523011.2034                   22523010.3834
  15173908.67247  11848551.11045  22410811.6954   22410811.4884
  34484152.41847  26896033.37144  23826110.0474   23826109.4264   24142397.84047
                                  18837282.19045  22346434.5864   22346433.6724
 11  7 28  0 34  0.0000000  0  8G17G02G04G09G28G27G12G10
   3155491.99648   2486032.02346  21736218.2974   21736216.6994   15532044.03148
  12129794.98646                  21372126.0084                   21372122.8054
   2525670.73848   1997418.14747  19886101.5474   19886100.1914   21305488.16847
  16627499.51445                  22018335.5704   22018335.2194
    -66445.35947    -33725.71444  22530656.6644                   22530655.4534
  15160431.49247  11838049.40945  22408246.9844   22408246.7774
  34353609.08247  26794311.32144  23801268.8834   23801267.2194   24024348.41847
                                  18745295.68745  22323970.4614   22323969.6994
 11  7 28  0 34 30.0000000  0  8G17G02G04G09G28G27G12G10
   3158131.76648   2488088.97146  21736720.9844   21736719.1294   15440115.09848
  12058162.09846                  21354632.4774                   21354629.2464
   2513625.16048   1988031.97946  19883809.2584   19883807.6684   21285892.86748
  16612230.44245                  22014607.0004   22014606.3364
    -25926.78147     -2152.86044  22538366.7344                   22538365.5744
  15147399.71946  11827894.77245  22405767.2894   22405767.0634
  34223119.59047  26692631.27044  23776437.2734   23776436.0354   23906561.53547
                                  18653513.77345  22301556.0864   22301556.0394
 11  7 28  0 35  0.0000000  0  8G17G02G04G09G28G27G12G10
   3160861.32848   2490215.87546  21737240.5944   21737238.7234   15348545.93448
  11986809.55746                  21337207.2504                   21337204.3954
   2502086.71148   1979040.97747  19881613.7734   19881611.9694   21266910.53147
  16597438.99745                  22010995.0944   22010994.2584
     14937.33647     29689.23444  22546142.9454                   22546141.6094
  15134813.70347  11818087.46745  22403372.0864   22403371.4384
  34092688.09047  26590996.41844  23751617.1484   23751616.1374   23789042.41847
                                  18561940.50345  22279193.0554   22279192.9774
 11  7 28  0 35 30.0000000  0  8G17G02G04G09G28G27G12G10
   3163681.64548   2492413.49846  21737777.0004   21737775.2154   15257337.61348
  11915738.19746                  21319851.1024                   21319847.8244
   2491054.31648   1970444.30447  19879514.6804   19879512.8634   21248540.37547
  16583124.60845                  22007499.1334   22007498.3954
     56146.79747     61800.43844  22553985.5864                   22553983.9224
  15122672.46147  11808626.75445  22401061.8754   22401061.3594
  33962317.05146  26489408.66544  23726808.3444   23726806.6764   23671794.82447
                                  18470578.82545  22256881.1334   22256881.1334
 11  7 28  0 36  0.0000000  0  8G17G02G04G09G28G27G12G10
   3166593.52747   2494682.47546  21738331.2344   21738329.4454   15166491.53148
  11844949.09546                  21302563.7034                   21302560.5084
   2480527.12148   1962241.29747  19877511.0864   19877509.5434   21230782.15247
  16569287.03445                  22004119.7974   22004119.1954
     97700.99247     94180.28744  22561892.5474                   22561891.6994
  15110975.34847  11799512.10445  22398836.1094   22398835.8594
  33832009.42247  26387870.32844  23702011.1334   23702009.9454   23554823.00047
                                  18379432.02045  22234622.3674   22234622.1954
 11  7 28  0 36 30.0000000  0  8G17G02G04G09G28G27G12G10
   3169597.44148   2497023.17146  21738902.9224   21738901.0394   15076008.39848
  11774442.80446                  21285345.2814                   21285341.8674
   2470503.56348   1954430.72746  19875603.8134   19875601.8054   21213634.49647
  16555925.20645                  22000856.4224   22000856.1914
    139599.38347    126828.30144  22569865.6024                   22569864.6804
  15099721.29346  11790742.69345  22396694.6254   22396694.0354
  33701767.82446  26286383.41444  23677226.7584   23677225.0744   23438130.27047
                                  18288502.67645  22212416.4534   22212415.6454
 11  7 28  0 37  0.0000000  0  8G17G02G04G09G28G27G12G10
   3172691.05947   2499433.76246  21739491.3204   21739489.8874   14985886.10548
  11704217.69246                  21268195.4304                   21268192.2774
   2460979.05548   1947009.02946  19873790.9924   19873789.7114   21197092.88747
  16543035.64545                  21997708.6724   21997708.1804
    181838.08247    159741.51245  22577903.6804                   22577902.2974
  15088905.90247  11782315.09145  22394636.5164   22394635.8134
  33571590.81646  26184946.87244  23652454.4844   23652454.0394   23321717.34047
                                  18197791.35145  22190264.0164   22190263.2274
 11  7 28  0 37 30.0000000  0  8G17G02G04G09G28G27G12G10
   3175871.97747   2501912.37846  21740096.7274   21740094.9494   14896122.63348
  11634272.17946                  21251114.0164                   21251110.7194
   2451949.59048   1939973.08546  19872073.0864   19872071.4774   21181153.72747
  16530615.49845                  21994675.6804   21994675.4694
    224413.69547    192917.23944  22586005.6644                   22586004.0744
  15078525.34447  11774226.32745  22392661.0314   22392660.4344
  33441478.18046  26083560.48444  23627694.9774   23627693.7274   23205585.18447
                                  18107298.82445  22168164.5704   22168164.0124
 11  7 28  0 38  0.0000000  0  8G17G02G04G09G28G27G12G10
   3179141.05547   2504459.69746  21740718.6884   21740717.1054   14806719.69148
  11564607.60146                  21234101.2974                   21234098.0084
   2443414.37548   1933322.25547  19870448.7114   19870447.2304   21165816.48048
  16518664.40845                  21991757.0634   21991756.4184
    267326.50847    226355.74344  22594171.8284                   22594170.7894
  15068579.25447  11766476.11045  22390768.2974   22390767.6644
  33311433.39546  25982226.96344  23602948.1024   23602946.5044   23089738.00047
                                  18017028.34345  22146119.2664   22146118.6994
 11  7 28  0 38 30.0000000  0  8G17G02G04G09G28G27G12G10
   3182499.29347   2507076.47846  21741358.1174   21741356.1174   14717677.88348
  11495224.42446                  21217157.4064                   21217153.9104
   2435372.25448   1927055.67147  19868918.5314   19868917.1484   21151080.18447
  16507181.57745                  21988953.0554   21988952.3714
    310575.73047    260056.35644  22602401.4534                   22602401.2154
  15059066.43047  11759063.49945  22388958.1484   22388957.9454
  33181458.67247  25880948.05544  23578215.4694   23578213.4104   22974179.44547
                                  17926982.79245  22124129.4614   22124128.7194
 11  7 28  0 39  0.0000000  0  8G17G02G04G09G28G27G12G10
   3185946.02047   2509762.20846  21742013.8914   21742012.0944   14628997.17648
  11426122.62046                  21200281.9064                   21200278.3524
   2427820.49248   1921171.18147  19867481.5704   19867479.9654   21136942.31348
  16496165.04645                  21986262.7894   21986261.9884
    354159.22747    294017.44544  22610695.8134                   22610694.2424
  15049984.53147  11751986.65745  22387229.8364   22387230.0664
  33051555.64547  25779724.98344  23553495.7734   23553494.1254   22858912.38347
                                  17837164.34945  22102195.0554   22102193.8634
 11  7 28  0 39 30.0000000  0  8G17G02G04G09G28G27G12G10
   3189480.10947   2512516.01346  21742686.5474   21742684.8014   14540676.73448
  11357301.54146                  21183474.6884                   21183471.4804
   2420755.84448   1915666.25747  19866137.0474   19866135.5944   21123399.88748
  16485612.50245                  21983685.6174   21983684.7034
    398074.71947    328237.21844  22619052.6484                   22619051.2464
  15041330.51647  11745243.23445  22385583.3754   22385583.0554
  32921724.89547  25678558.24244  23528788.8054   23528788.2274   22743938.39547
                                  17747574.29945  22080315.8674   22080315.1684
 11  7 28  0 40  0.0000000  0  8G17G02G04G09G28G27G12G10
   4768515.91447   3742933.50046  22043166.8524   22043165.5354   16028134.09848
  12516359.28046                  21466528.7114                   21466525.2154
   3989591.16848   3138135.34047  20164676.4774   20164674.7504   22685865.84048
  17703118.45245                  22281013.0314   22281012.1414
   2017734.01247   1590309.33444  22927262.9454                   22927262.2734
  16608517.35246  12966427.75745  22683809.0634   22683808.7624
  34367387.29347  26805048.50444  23803889.4844   23803888.2464   24204679.16447
                                  18885813.91645  22358285.1724   22358284.6214
 11  7 28  0 40 30.0000000  0  8G17G02G04G09G28G27G12G10
   4772219.38347   3745819.29146  22043871.6334   22043870.5664   15940529.42648
  12448095.93846                  21449857.6804                   21449854.2464
   3983489.77348   3133381.01047  20163515.2734   20163513.4384   22673503.49647
  17693485.45045                  22278660.7274   22278659.6294
   2062304.71147   1625039.66244  22935744.7664                   22935744.1454
  16600708.59047  12960342.98745  22682322.6884   22682322.9774   34237701.93447
  26703995.02244  23779211.2114   23779209.8284   24090295.53547  18796683.89345
                                  22336519.0554   22336518.1844
 11  7 28  0 41  0.0000000  0  8G17G02G04G09G28G27G12G10
   4776008.40247   3748771.75346  22044592.8914   22044591.0784   15853283.95748
  12380112.51346                  21433255.4224                   21433252.0084
   3977867.78548   3129000.23947  20162445.5864   20162444.0554   22661729.51247
  17684310.91545                  22276419.9384   22276419.2664
   2107201.89847   1660024.40644  22944288.9454                   22944287.8714
  16593320.60947  12954586.08245  22680917.2274   22680917.2114   34108092.79347
  26603000.95044                  23754547.7504   23754546.3134   23976212.36747
  18707787.96645                  22314809.9844   22314808.7624
 11  7 28  0 41 30.0000000  0  8G17G02G04G09G28G27G12G10
   4779883.03547   3751790.91946  22045330.1334   22045328.3984   15766397.69148
  12312408.98246                  21416721.4454                   21416718.0004
   3972723.17648   3124991.46446  20161466.4844   20161464.6804   22650541.86347
  17675593.26945                  22274290.4844   22274290.2504
   2152424.35947   1695262.61344  22952894.1254                   22952893.4924
  16586351.67247  12949155.72145  22679590.5944   22679590.7704   33978561.99247
  26502067.92645                  23729898.1484   23729897.5434   23862433.05947
  18619128.82345                  22293158.0554   22293156.9884
 11  7 28  0 42  0.0000000  0  8G17G02G04G09G28G27G12G10
   4783843.33247   3754876.83346  22046083.8674   22046082.0664   15679871.21148
  12244985.78246                  21400256.1724                   21400252.6334
   3968053.90248   3121353.06546  20160578.1644   20160576.3634   22639938.69947
  17667331.06445                  22272273.3914   22272272.5984
   2197971.10547   1730753.50644  22961561.5004                   22961560.7154
  16579800.25447  12944050.68045  22678344.3984   22678344.2584   33849111.48047
  26401197.45144                  23705265.1804   23705263.6844   23748960.97347
  18530709.08445                  22271564.9384   22271564.0744
 11  7 28  0 42 30.0000000  0  8G17G02G04G09G28G27G12G10
   4787889.27347   3758029.48146  22046853.9384   22046852.0634   15593704.41048
  12177842.87046                  21383858.8674                   21383855.7624
   3963857.75448   3118083.34747  20159779.3204   20159777.9264   22629917.92247
  17659522.65245                  22270366.3134   22270365.6884
   2243839.90247   1766495.32444  22970290.1094                   22970288.9224
  16573664.20747  12939269.31445  22677176.8134   22677176.1724   33719743.36347
  26300391.19844                  23680647.0944   23680645.0664   23635798.58247
  18442530.66545                  22250031.0394   22250030.4964
 11  7 28  0 43  0.0000000  0  8G17G02G04G09G28G27G12G10
   4792020.05547   3761248.22746  22047639.5864   22047637.6644   15507896.59448
  12110979.68346                  21367530.1254                   21367526.9264
   3960132.02748   3115180.17846  20159070.5784   20159068.9454   22620476.69547
  17652165.84045                  22268569.4614   22268568.7894
   2290029.20347   1802486.92044  22979079.3674                   22979079.3014
  16567940.70347  12934809.40145  22676087.4844   22676087.3014   33590458.76647
  26199650.01044                  23656044.7894   23656043.8404   23522948.13347
  18354595.30045                  22228556.3364   22228555.7194
 11  7 28  0 43 30.0000000  0  8G17G02G04G09G28G27G12G10
   4796235.94147   3764533.31246  22048442.1334   22048440.0594   15422448.03548
  12044396.43646                  21351269.9924                   21351266.7154
   3956874.34848   3112641.74547  20158450.7114   20158449.3164   22611612.79747
  17645258.89845                  22266882.9534   22266882.4224
   2336537.09447   1838726.76244  22987930.3524                   22987928.9024
  16562627.67647  12930669.34345  22675076.7424   22675076.4304   33461259.47747
  26098975.31844                  23631459.0234   23631457.7384   23410412.72747
  18266905.42445                  22207141.1644   22207140.7194
 11  7 28  0 44  0.0000000  0  8G17G02G04G09G28G27G12G10
   4800534.89147   3767883.12046  22049260.2034   22049258.2304   15337357.27348
  11978091.99146                  21335077.5944                   21335074.3754
   3954080.87548   3110465.02247  20157919.1094   20157917.1484   22603322.85547
  17638799.19745                  22265305.5944   22265304.8484
   2383361.19947   1875213.02044  22996840.5554                   22996838.8954
  16557721.76247  12926846.50645  22674143.0634   22674142.6484   33332145.74647
  25998367.27744                  23606889.3284   23606887.5864   23298193.81647
  18179462.17945                  22185786.7814   22185785.9654
 11  7 28  0 44 30.0000000  0  8G17G02G04G09G28G27G12G10
   4804916.91047   3771297.66146  22050094.1254   22050092.3014   15252624.15248
  11912066.23046                  21318953.4064                   21318949.7664
   3951749.50048   3108648.38747  20157475.6484   20157473.6724   22595604.68047
  17632785.02045                  22263836.8444   22263836.1684
   2430499.35947   1911943.97144  23005810.2034                   23005809.1024
  16553220.77047  12923339.21445  22673286.6174   22673286.3834   33203119.71547
  25897827.61144                  23582335.7894   23582334.3284   23186294.48447
  18092267.98345                  22164492.7584   22164492.1724
 11  7 28  0 45  0.0000000  0  8G17G02G04G09G28G27G12G10
   4809384.93847   3774779.21646  22050944.1414   22050942.6254   15168251.61348
  11846321.44446                  21302897.8914                   21302894.3054
   3949880.95348   3107192.38347  20157119.9454   20157118.1604   22588458.89847
  17627216.86045                  22262477.0084   22262476.1414
   2477953.10547   1948920.86344  23014841.0164                   23014839.8914
  16549125.65247  12920148.17845  22672507.3284   22672506.7304   33074185.83647
  25797359.72744                  23557800.9304   23557798.7854   23074720.76248
  18005327.45645                  22143260.9224   22143260.4804
 11  7 28  0 45 30.0000000  0  8G17G02G04G09G28G27G12G10
   4813935.62947   3778325.19746  22051810.2664   22051808.3594   15084236.65247
  11780855.26846                  21286910.1724                   21286906.9024
   3948469.69548   3106092.70446  20156851.4144   20156849.6954   22581879.81347
  17622090.27845                  22261224.6804   22261224.5004
   2525717.94547   1986140.13344  23023930.3364                   23023929.5204
  16545431.19547  12917269.31845  22671804.3594   22671803.8324   32945343.23047
  25696962.95744                  23533282.8364   23533281.2154   22963472.22748
  17918640.33845                  22122091.2114   22122090.5904
 11  7 28  0 46  0.0000000  0  8G17G02G04G09G28G27G12G10
   4818569.78547   3781936.22046  22052691.8594   22052690.1374   15000579.76248
  11715668.13046                  21270990.8594                   21270987.6914
   3947514.14848   3105348.13347  20156669.5704   20156667.8594   22575866.07847
  17617404.24245                  22260080.4924   22260080.4454
   2573792.79347   2023601.02044  23033078.4384                   23033077.6644
  16542135.91047  12914701.53945  22671177.2584   22671177.1024   32816594.00847
  25596638.95944                  23508782.8984   23508780.8404   22852552.44547
  17832209.39545                  22100984.2274   22100983.5434
 11  7 28  0 46 30.0000000  0  8G17G02G04G09G28G27G12G10
   4823285.34847   3785610.67946  22053589.4534   22053587.6724   14917278.85248
  11650758.35946                  21255139.0634                   21255135.6024
   3947009.82448   3104955.16747  20156573.7504   20156571.8204   22570413.64547
  17613155.58445                  22259042.9144   22259042.4924
   2622174.10547   2061300.69044  23042285.3204                   23042284.3554
  16539235.80547  12912441.67545  22670625.3674   22670625.5124   32687938.31647
  25496387.84944                  23484300.0784   23484298.8054   22741962.18047
  17746035.21345                  22079939.2584   22079938.5084
 11  7 28  0 47  0.0000000  0  8G17G02G04G09G28G27G12G10
   4828089.48847   3789354.16046  22054503.8754   22054502.2664   14834341.35548
  11586131.78346                  21239356.7424                   21239353.5044
   3946961.99648   3104917.90647  20156564.4454   20156562.8554   22565527.31347
  17609348.02645                  22258113.2974   22258112.4804
   2670867.90247   2099243.82644  23051551.2424                   23051550.7544
  16536735.78947  12910493.56545  22670150.0084   22670149.5944   32559385.68847
  25396217.05044                  23459837.6024   23459835.6644   22631711.55547
  17660125.70645                  22058959.1254   22058958.7194
 11  7 28  0 47 30.0000000  0  8G17G02G04G09G28G27G12G10
   4832979.52748   3793164.58346  22055434.2894   22055432.9344   14751764.24248
  11521786.01546                  21223642.7194                   21223639.1994
   3947365.43448   3105232.27847  20156640.8674   20156639.4184   22561201.92647
  17605977.56845                  22257290.0084   22257289.9534
   2719869.57447   2137426.87644  23060876.2734                   23060875.5554
  16534631.27747  12908853.63545  22669749.3444   22669749.1954   32430934.84047
  25296125.55444                  23435393.8594   23435391.8134   22521801.01247
  17574481.18745                  22038043.5864   22038043.1954
 11  7 28  0 48  0.0000000  0  8G17G02G04G09G28G27G12G10
   4837954.50847   3797041.18146  22056381.2734   22056379.4774   14669546.71548
  11457720.45046                  21207997.3444                   21207993.7504
   3948216.82848   3105895.70747  20156803.1414   20156801.5004   22557434.27347
  17603041.69345                  22256572.8914   22256572.8634
   2769176.57447   2175847.83244  23070259.1644                   23070258.3524
  16532918.85947  12907519.27045  22669423.4454   22669423.2154   32302586.98447
  25196114.28445                  23410970.2424   23410968.5784   22412232.22347
  17489102.95345                  22017193.3524   22017192.8754
 11  7 28  0 48 30.0000000  0  8G17G02G04G09G28G27G12G10
   4843015.57448   3800984.86446  22057344.0314   22057342.0824   14587689.98848
  11393936.01446                  21192420.6564                   21192416.8014
   3949515.34848   3106907.53847  20157050.3984   20157048.4844   22554223.54747
  17600539.79545                  22255962.3284   22255961.8244
   2818788.43047   2214506.34844  23079700.3594                   23079698.8134
  16531597.72747  12906489.77645  22669171.9774   22669171.5984   32174345.57847
  25096185.96145                  23386567.1254   23386565.5944   22303009.43847
  17403994.34645                  21996409.5004   21996408.5434
 11  7 28  0 49  0.0000000  0  8G17G02G04G09G28G27G12G10
   4848166.71147   3804998.74646  22058324.5474   22058322.4184   14506197.79348
  11330435.64446                  21176912.8914                   21176909.5354
   3951262.55548   3108269.00847  20157382.7194   20157380.8984   22551571.14547
  17598472.98145                  22255457.7194   22255457.3954
   2868707.78947   2253404.49344  23089199.4844                   23089198.0204
  16530669.71547  12905766.62645  22668995.2034   22668995.2154   32046216.44547
  24996345.13445                  23362184.7114   23362183.1414   22194139.92247
  17319161.00245                  21975692.0314   21975691.0634
 11  7 28  0 49 30.0000000  0  8G17G02G04G09G28G27G12G10
   4853405.63747   3809081.02246  22059321.2974   22059319.2584   14425067.61748
  11267217.35546                  21161474.3984                   21161470.9384
   3953453.47748   3109976.23246  20157799.6254   20157798.2114   22549472.09047
  17596837.31045                  22255058.1644   22255057.8554
   2918930.42647   2292538.91944  23098756.1024                   23098755.1954
  16530130.18446  12905346.19645  22668892.8914   22668892.8364   31918198.69947
  24896591.09745                  23337823.8834   23337822.0044   22085623.69147
  17234602.95645                  21955041.7974   21955041.2704
 11  7 28  0 50  0.0000000  0  8G17G02G04G09G28G27G12G10
   4858735.60547   3813234.23346  22060335.3914   22060333.7664   14344302.70748
  11204283.70046                  21146105.3594                   21146101.8634
   3956089.03148   3112029.91646  20158300.8914   20158299.5514   22547927.29747
  17595633.56445                  22254764.3594   22254763.9304
   2969458.12947   2331911.08744  23108371.3674                   23108370.6844
  16529980.22347  12905229.34945  22668864.0314   22668864.4964   31790297.67247
  24796927.99845                  23313484.4224   23313483.1954   21977466.57447
  17150324.74345                  21934460.3834   21934459.3554
 11  7 28  0 50 30.0000000  0  8G17G02G04G09G28G27G12G10
   4864156.47747   3817458.26745  22061367.2734   22061365.1374   14263902.98048
  11141634.59846                  21130805.7344                   21130802.4384
   3959166.98048   3114428.31746  20158886.8364   20158884.9654   22546934.25847
  17594859.73745                  22254575.6804   22254574.8914
   3020288.96547   2371519.46344  23118044.5004                   23118043.7734
  16530217.59047  12905414.28545  22668909.6644   22668909.4494   31662515.82047
  24697357.77545                  23289168.8834   23289167.0354   21869672.00447
  17066329.04345                  21913947.7734   21913946.7504
 11  7 28  0 51  0.0000000  0  8G17G02G04G09G28G27G12G10
   4869670.78547   3821755.12146  22062416.3054   22062414.5044   14183870.78548
  11079271.87046                  21115576.0004                   21115572.4304
   3962687.51648   3117171.58546  20159556.6644   20159554.8914   22546493.21947
  17594516.03845                  22254490.9844   22254491.3364
   3071423.85947   2411364.74544  23127775.2274                   23127774.2624
  16530842.79346  12905901.45445  22669028.7274   22669028.7734   31534857.23847
  24597883.59645                  23264876.0234   23264874.3594   21762245.13747
  16982619.84245                  21893504.7034   21893504.0434
 11  7 28  0 51 30.0000000  0  8G17G02G04G09G28G27G12G10
   4875278.90247   3826125.06146  22063484.0314   22063481.4184   14104206.42648
  11017195.78146                  21100416.6804                   21100413.0904
   3966648.41048   3120257.99246  20160310.6254   20160308.9454   22546601.86347
  17594600.66545                  22254512.3914   22254511.8954
   3122861.50047   2451445.93844  23137563.2734                   23137562.8554
  16531853.63347  12906689.12245  22669220.8444   22669220.5594   31407324.39847
  24498507.40045                  23240607.2424   23240605.8134   21655188.96947
  16899199.51645                  21873132.6414   21873131.5474
 11  7 28  0 52  0.0000000  0  8G17G02G04G09G28G27G12G10
   4880980.30947   3830567.68946  22064568.7814   22064566.9264   14024908.84048
  10955405.48846                  21085326.7974                   21085323.1094
   3971046.68448   3123685.22746  20161147.5394   20161145.5204   22547257.17247
  17595111.27445                  22254636.7664   22254636.6094
   3174599.87547   2491761.47744  23147409.3914                   23147408.0634
  16533247.33647  12907775.14045  22669485.9224   22669486.2504   31279919.07847
  24399230.60445                  23216362.6644   23216361.2234   21548505.84048
  16816069.87045                  21852831.3674   21852830.5784
 11  7 28  0 52 30.0000000  0  8G17G02G04G09G28G27G12G10
   4886774.71947   3835082.78846  22065671.6254   22065669.5274   13945977.59848
  10893900.64546                  21070306.5944                   21070303.0984
   3975879.66048   3127451.17546  20162067.1414   20162065.2704   22548456.00047
  17596045.40145                  22254865.0704   22254864.3444
   3226636.38747   2532309.33044  23157311.0004                   23157310.7424
  16535021.07447  12909157.25245  22669823.7424   22669823.7074   31152642.40647
  24300054.02745                  23192142.5314   23192140.9264   21442198.27747
  16733232.85145                  21832601.6414   21832600.4614
 11  7 28  0 53  0.0000000  0  8G17G02G04G09G28G27G12G10
   4892666.56348   3839673.80046  22066792.5554   22066790.8484   13867416.93048
  10832684.57346                  21055356.9064                   21055352.8794
   3981149.10948   3131557.23546  20163069.6334   20163068.2624   22550200.19947
  17597404.49245                  22255197.1174   22255196.8714
   3278973.91047   2573091.76244  23167270.9224                   23167270.7464
  16537176.93447  12910837.17745  22670233.7584   22670233.5704   31025501.12947
  24200982.95245                  23167948.4454   23167947.1764   21336273.31648
  16650693.97145                  21812444.8754   21812443.9304
 11  7 28  0 53 30.0000000  0  8G17G02G04G09G28G27G12G10
   4898653.71948   3844339.08246  22067931.9144   22067930.1334   13789224.57448
  10771755.49546                  21040477.3444                   21040473.8634
   3986850.55548   3135999.91247  20164154.8674   20164153.2424   22552485.09447
  17599184.91245                  22255631.6334   22255631.2814
   3331608.58247   2614105.68844  23177287.5004                   23177286.6214
  16539710.45747  12912811.33445  22670715.5234   22670715.7734   30898494.64147
  24102016.90145                  23143780.0784   23143777.5744   21230731.83648
  16568453.90145                  21792360.9064   21792359.9924
 11  7 28  0 54  0.0000000  0  8G17G02G04G09G28G27G12G10
   4904739.23448   3849081.01745  22069089.3984   22069087.9614   13711403.36348
  10711115.61246                  21025668.2814                   21025664.8714
   3992984.73048   3140779.78347  20165322.2734   20165320.7464   22555311.16847
  17601387.02445                  22256168.6884   22256169.1414
   3384541.89147   2655352.36944  23187360.0394                   23187359.1484
  16542622.69947  12915080.61745  22671270.7114   22671270.0664   30771628.58247
  24003160.25745                  23119638.3364   23119636.2934   21125579.78147
  16486517.28545                  21772351.2584   21772349.7664
 11  7 28  0 54 30.0000000  0  8G17G02G04G09G28G27G12G10
   4910918.11347   3853895.69845  22070265.2034   22070263.6524   13633948.10948
  10650760.91746                  21010929.2274                   21010926.0004
   3999544.24248   3145891.09146  20166570.2814   20166568.6804   22558670.78147
  17604004.91245                  22256808.6414   22256808.3634
   3437767.10947   2696826.46144  23197488.5784                   23197487.6484
  16545906.06647  12917639.11345  22671895.1414   22671895.0274   30644900.02047
  23904410.76645                  23095522.5004   23095520.9144   21020815.00047
  16404882.44445                  21752415.0554   21752414.1174
 11  7 28  0 55  0.0000000  0  8G17G02G04G09G28G27G12G10
   4917191.53148   3858784.03145  22071459.6024   22071457.3484   13556859.68048
  10590692.02846                  20996259.6884                   20996256.4384
   4006527.38348   3151332.48647  20167899.2894   20167897.6334   22562562.53147
  17607037.44045                  22257549.0634   22257549.0434
   3491283.31347   2738527.35044  23207672.2504                   23207671.8014
  16549559.11747  12920485.64645  22672590.0554   22672589.5044   30518311.54347
  23805770.40745                  23071433.9694   23071432.1294   20916441.01247
  16323552.12345                  21732553.1484   21732552.3634
 11  7 28  0 55 30.0000000  0  8G17G02G04G09G28G27G12G10
   4923564.00048   3863749.55945  22072672.3524   22072670.1684   13480141.23448
  10530911.46046                  20981660.7814                   20981657.5474
   4013936.26248   3157105.64446  20169309.0864   20169307.6994   22566987.71547
  17610485.62645                  22258391.4064   22258391.0554
   3545093.18447   2780457.04444  23217911.9924                   23217911.9654
  16553583.97347  12923621.88045  22673356.4534   22673355.7854   30391869.92247
  23707244.51345                  23047372.3914   23047371.1914   20812465.16848
  16242532.02645                  21712766.9774   21712766.3014
 11  7 28  0 56  0.0000000  0  9G17G02G04G09G28G27G12G10G05
   4930032.91048   3868790.23246  22073903.8834   22073901.2384   13403791.22348
  10471417.97846                  20967131.6334                   20967128.2384
   4021765.92248   3163206.67646  20170799.0164   20170797.3244   22571941.30947
  17614345.58045                  22259334.1564   22259333.5784
   3599192.32047   2822612.12544  23228206.5314                   23228206.1054
  16557975.71147  12927044.01245  22674191.8914   22674191.6454   30265574.75847
  23608832.70745                  23023338.9694   23023338.1844   20708887.98048
  16161822.59045                  21693057.2504   21693056.4414
  39193582.25856                  30567793.56454  24292906.0474   24292908.7814
 11  7 28  0 56 30.0000000  0  9G17G02G04G09G28G27G12G10G05
   4936588.66447   3873898.58746  22075151.0234   22075149.0824   13327799.20748
  10412203.44346                  20952670.7814                   20952667.3204
   4030003.79748   3169625.79846  20172366.7974   20172365.0864   22577410.62947
  17618607.40245                  22260374.9384   22260374.7234
   3653568.87947   2864983.41244  23238554.6334                   23238553.9804
  16562722.00046  12930742.42345  22675094.6954   22675094.8204   30139418.16047
  23510528.89745                  22999332.7344   22999330.8874   20605701.76648
  16081417.78645                  21673421.3054   21673420.6024
  39053384.80146                  30458549.04544  24266227.2974   24266229.9144
 11  7 28  0 57  0.0000000  0  9G17G02G04G09G28G27G12G10G05
   4943228.12948   3879072.16946  22076413.9384   22076412.3754   13252162.09448
  10353265.47546                  20938277.6094                   20938273.9024
   4038644.55548   3176358.85846  20174011.1334   20174009.2074   22583389.86747
  17623266.57345                  22261512.5864   22261512.1254
   3708218.37147   2907567.35744  23248953.9534                   23248953.0394
  16567817.62946  12934713.04445  22676064.7894   22676064.4734   30013399.58647
  23412332.65545                  22975351.6724   22975350.7734   20502906.49247
  16001317.62345                  21653860.5554   21653859.2854
  38913127.17246                  30349257.60744  24239536.9694   24239539.2544
 11  7 28  0 57 30.0000000  0  9G17G02G04G09G28G27G12G10G05
   4949955.38348   3884314.16746  22077694.3524   22077693.3204   13176882.93048
  10294606.42646                  20923952.5864                   20923949.0084
   4047689.40248   3183406.79846  20175732.1644   20175730.3754   22589880.03947
  17628323.87845                  22262747.6804   22262747.2584
   3763142.51246   2950365.32744  23259405.7504                   23259405.2274
  16573263.77046  12938956.77745  22677101.1024   22677101.1294   29887524.02047
  23314247.82645                  22951398.3914   22951396.5004   20400508.59047
  15921527.08946                  21634374.6644   21634373.3634
  38772815.50046                  30239924.09244  24212836.5784   24212839.1024
 11  7 28  0 58  0.0000000  0  9G17G02G04G09G28G27G12G10G05
   4956778.50047   3889630.88146  22078992.5704   22078991.3554   13101969.75848
  10236232.56046                  20909697.0164                   20909693.4454
   4057144.26248   3190774.21846  20177531.2034   20177529.8014   22596886.54347
  17633783.52745                  22264080.9144   22264080.5434
   3818347.70346   2993382.27844  23269910.7424                   23269910.5004
  16579066.11747  12943478.07545  22678205.0944   22678205.0784   29761802.25447
  23216282.83645                  22927474.3444   22927472.8834   20298518.94147
  15842054.67745                  21614966.6094   21614965.4384
  38632460.68046                  30130556.99044  24186127.1804   24186130.4844
 11  7 28  0 58 30.0000000  0  9G17G02G04G09G28G27G12G10G05
   4963700.58647   3895024.68946  22080310.0474   22080308.5434   13027424.89548
  10178145.69846                  20895511.4844                   20895507.8754
   4067009.14548   3198461.13546  20179408.4064   20179406.8794   22604409.78947
  17639645.81145                  22265512.7814   22265512.3524
   3873835.14147   3036619.15544  23280470.4534                   23280469.2274
  16585225.23846  12948277.39045  22679376.6024   22679377.1094   29636239.11347
  23118441.46945                  22903580.9534   22903578.7034   20196942.95748
  15762904.61045                  21595637.0234   21595636.2624
  38492067.62146                  30021160.03144  24159411.3674   24159413.8984
 11  7 28  0 59  0.0000000  0  9G17G02G04G09G28G27G12G10G05
   4970724.72747   3900498.01546  22081646.7584   22081645.2234   12953251.10548
  10120347.98046                  20881396.6724                   20881393.0394
   4077284.96948   3206468.27746  20181363.7814   20181362.1684   22612450.01647
  17645910.96045                  22267042.8914   22267042.3324
   3929605.89847   3080076.83943  23291082.9614                   23291082.4774
  16591741.72346  12953355.16745  22680617.2034   22680616.6094   29510840.11347
  23020727.99745                  22879717.9064   22879716.2384   20095787.10948
  15684081.91245                  21576387.9614   21576386.7734
  38351641.88346                  29911737.66644  24132689.2504   24132691.5554
 11  7 28  0 59 30.0000000  0  9G17G02G04G09G28G27G12G10G05
   4977844.23848   3906045.66045  22083001.5704   22082999.9024   12879441.49648
  10062834.04046                  20867351.1564                   20867347.2624
   4087962.15648   3214788.18146  20183395.7194   20183393.8594   22620997.39147
  17652571.27845                  22268669.1884   22268668.4574
   3985651.62946   3123748.75543  23301747.4144                   23301746.9774
  16598606.36747  12958704.22245  22681924.0704   22681923.3914   29385600.39847
  22923138.67645                  22855885.4844   22855884.0984   19995046.96948
  15605583.15646                  21557217.3364   21557216.1684
  38211179.27346                  29802286.63044  24105959.3754   24105961.7034
 11  7 28  1  0  0.0000000  0  9G17G02G04G09G28G27G12G10G05
   4985068.25447   3911674.73545  22084376.8364   22084374.3204   12806004.60248
  10005610.52446                  20853376.4384                   20853372.8204
   4099047.23448   3223425.89646  20185505.3204   20185503.5204   22630058.05147
  17659631.56745                  22270393.2584   22270392.6804
   4041979.23046   3167640.27943  23312466.6254                   23312465.2584
  16605825.62547  12964329.61845  22683297.3754   22683297.3054   29260531.21147
  22825682.22545                  22832085.6724   22832083.5784   19894733.77048
  15527417.08246                  21538128.6804   21538127.8674
  38070690.89546                  29692815.38144  24079225.7194   24079227.9184
 11  7 28  1  0 30.0000000  0  9G17G02G04G09G28G27G12G10G05
   4992394.76247   3917383.66245  22085770.6484   22085768.5664   12732938.29748
   9948675.78246                  20839472.1954                   20839468.8444
   4110535.92248   3232378.12746  20187691.3444   20187689.7624   22639627.07447
  17667087.97045                  22272214.3284   22272213.6914
   4098584.43446   3211748.16843  23323238.1644                   23323237.6174
  16613394.81347  12970227.66545  22684738.4144   22684737.5744   29135632.93447
  22728358.95345                  22808318.0554   22808315.7034   19794848.67248
  15449584.59146                  21519121.2194   21519120.5864
  37930177.28546                  29583324.56644  24052486.4694   24052488.4224
 11  7 28  1  1  0.0000000  0  9G17G02G04G09G28G27G12G10G05
   4999827.34047   3923175.26145  22087184.9384   22087183.1604   12660245.55548
   9892032.12246                  20825639.3524                   20825635.6454
   4122428.81348   3241645.30846  20189954.3984   20189952.8444   22649705.07047
  17674940.98445                  22274131.9924   22274131.2034
   4155469.27746   3256073.92144  23334063.1174                   23334062.9844
  16621314.95347  12976399.21045  22686244.7664   22686244.9774   29010910.41047
  22631172.64445                  22784583.9384   22784582.1214   19695397.68848
  15372090.37146                  21500196.1724   21500195.4264
  37789644.32847                  29473818.65244  24025743.8524   24025745.3714
 11  7 28  1  1 30.0000000  0  9G17G02G04G09G28G27G12G10G05
   5007363.56347   3929047.62645  22088618.9384   22088617.6214   12587922.82048
   9835676.77346                  20811876.8754                   20811872.8244
   4134720.88348   3251223.53746  20192293.6644   20192291.5784   22660286.33247
  17683186.14445                  22276145.6954   22276145.0084
   4212629.02346   3300613.91544  23344940.6334                   23344939.5554
  16629580.77347  12982840.09545  22687817.6564   22687817.7814   28886363.26247
  22534122.99145                  22760883.2974   22760882.0784   19596380.49647
  15294934.17946                  21481353.7424   21481352.7274
  37649091.64847                  29364297.30744  23998997.7664   23998998.7234
 11  7 28  1  2  0.0000000  0  9G17G02G04G09G28G27G12G10G05
   5015003.89147   3935001.12445  22090072.8754   22090071.3164   12515970.38348
   9779609.96946                  20798184.8134                   20798180.8984
   4147409.51248   3261110.78446  20194708.0474   20194706.3674   22671368.07847
  17691821.29145                  22278254.2584   22278253.5084
   4270062.05946   3345366.84943  23355869.7584                   23355869.0594
  16638190.03547  12989548.60345  22689456.0704   22689455.8164   28761994.12147
  22437212.06645                  22737216.7424   22737214.9494   19497800.19148
  15218118.40446                  21462594.4454   21462593.3834
  37508521.97347                  29254762.83244  23972248.0554   23972248.8404
 11  7 28  1  2 30.0000000  0  9G17G02G04G09G28G27G12G10G05
   6598171.13748   5168637.93245  22391339.3204   22391338.0394   14019813.25448
  10951435.61346                  21084356.4454                   21084352.6914
   5735915.00448   4498907.25946  20496990.6724   20496989.1024   24258370.31347
  18928446.40645                  22580250.8284   22580250.0204
   5903187.36746   4617931.96143  23666643.3204                   23666642.5164
  18222563.08647  14224124.99745  22990952.2894   22990952.8834   30213232.55547
  23568047.28545                  23013378.3914   23013376.6174   20975085.82447
  16369250.10345                  21743712.5394   21743711.3204
  38943365.62147                  30372823.07144  24245289.3134   24245291.1684
 11  7 28  1  3  0.0000000  0  9G17G02G04G09G28G27G12G10G05
   6606024.43447   5174757.38045  22392834.1024   22392832.3524   13948604.50848
  10895948.29746                  21070806.0084                   21070801.9384
   5749394.02048   4509410.39046  20499555.9064   20499553.9924   24270449.14847
  18937858.50445                  22582549.0784   22582548.5824
   5961165.64847   4663109.75843  23677676.2424                   23677675.3794
  18231856.49246  14231366.61445  22992720.3054   22992720.8914   30089230.49247
  23471422.37745                  22989781.4534   22989779.7934   20877391.71548
  16293124.89145                  21725121.7814   21725120.7504
  38802774.09446                  30263271.50644  24218535.5004   24218536.4614
 11  7 28  1  3 30.0000000  0  9G17G02G04G09G28G27G12G10G05
   6613982.92248   5180958.77445  22394348.6094   22394347.3914   13877765.55548
  10840749.15246                  21057325.5944                   21057322.2344
   5763263.07448   4520217.43946  20502195.1094   20502193.1484   24283020.44547
  18947654.32445                  22584941.8134   22584940.6024
   6019411.98847   4708496.41444  23688759.6804                   23688759.5944
  18241486.62147  14238870.61545  22994553.6564   22994553.2854   29965413.66847
  23374941.81245                  22966219.7894   22966218.1914   20780143.15247
  16217346.83045                  21706615.8984   21706614.8164
  38662173.69146                  30153713.02944  24191779.2504   24191780.9614
 11  7 28  1  4  0.0000000  0  9G17G02G04G09G28G27G12G10G05
   6622048.53548   5187243.64245  22395883.6884   22395882.2274   13807297.43848
  10785838.95646                  21043915.8834                   21043912.3754
   5777521.47348   4531327.88346  20504908.1254   20504906.8554   24296083.41447
  18957833.22945                  22587427.3914   22587426.8594
   6077926.49647   4754092.04944  23699895.1334                   23699895.0864
  18251452.61747  14246636.28945  22996449.8914   22996449.5514   29841786.08247
  23278608.70845                  22942694.4454   22942692.2504   20683344.44947
  16141919.32845                  21688195.6724   21688194.6724
  38521568.93046                  30044151.16244  24165023.0704   24165024.8524
 11  7 28  1  4 30.0000000  0  9G17G02G04G09G28G27G12G10G05
   6630220.92647   5193611.72845  22397438.5234   22397436.6134   13737199.64848
  10731217.32746                  21030576.8754                   21030573.2774
   5792165.94548   4542739.17246  20507694.9064   20507693.1174   24309634.35547
  18968392.39845                  22590006.1884   22590005.8284
   6136706.88347   4799894.86844  23711081.0234                   23711080.6884
  18261751.32047  14254661.23445  22998409.1724   22998409.6294   29718349.29347
  23182424.25545                  22919205.0084   22919203.0984   20586997.68448
  16066843.99245                  21669861.4064   21669860.3094
  38380961.42646                  29934587.15244  24138265.6884   24138268.0434
 11  7 28  1  5  0.0000000  0  9G17G02G04G09G28G27G12G10G05
   6638501.59447   5200064.17745  22399014.5004   22399012.0784   13667473.07848
  10676884.94946                  21017308.2344                   21017304.2974
   5807195.24247   4554450.30146  20510554.8914   20510553.3714   24323671.56646
  18979330.49245                  22592677.1644   22592676.8524
   6195752.41847   4845904.30944  23722317.1954                   23722317.1914
  18272381.66047  14262944.60045  23000431.8134   23000432.0594   29595107.14547
  23086391.46545                  22895752.7664   22895751.0234   20491106.84447
  15992123.89846                  21651614.3444   21651612.9384
  38240355.29346                  29825024.15844  24111509.3754   24111511.1024
 11  7 28  1  5 30.0000000  0  9G17G02G04G09G28G27G12G10G05
   6646890.66847   5206601.09245  22400610.9384   22400608.8094   13598116.97748
  10622841.26546                  21004110.1174                   21004106.6764
   5822606.69148   4566459.19646  20513488.0084   20513486.1884   24338191.53947
  18990644.73345                  22595440.0314   22595439.8244
   6255060.71147   4892118.46344  23733602.6564                   23733602.5234
  18283340.58247  14271483.98845  23002517.8984   23002517.9884   29472061.45347
  22990511.74845                  22872337.7424   22872335.7344   20395674.27747
  15917760.91046                  21633453.9384   21633452.8524
  38099752.65647                  29715463.91044  24084753.9144   24084755.1214
 11  7 28  1  6  0.0000000  0  9G17G02G04G09G28G27G12G10G05
   6655388.29747   5213222.61145  22402227.1334   22402226.0664   13529130.83248
  10569085.84446                  20990982.5234                   20990978.8054
   5838397.89548   4578764.04446  20516492.8984   20516490.8244   24353191.57847
  19002333.04945                  22598294.4144   22598294.1094
   6314629.93046   4938535.96344  23744937.6414                   23744938.2234
  18294625.95347  14280277.76745  23004665.7584   23004665.2934   29349214.56647
  22894786.94545                  22848960.3524   22848958.6454   20300702.86347
  15843757.27046                  21615381.4924   21615380.5164
  37959156.31347                  29605908.52344  24057998.4384   24058000.2704
 11  7 28  1  6 30.0000000  0  9G17G02G04G09G28G27G12G10G05
   6663989.03948   5219924.48645  22403864.0784   22403862.8794   13460508.63748
  10515614.02246                  20977924.2814                   20977920.3094
   5854560.50448   4591358.27246  20519568.7274   20519566.6644   24368663.05947
  19014388.73845                  22601239.0944   22601238.5904
   6374452.68846   4985151.02144  23756322.7344                   23756322.4144
  18306229.29347  14289319.31845  23006873.4224   23006873.3594   29226563.24247
  22799214.50045                  22825621.1804   22825618.8714   20206189.22748
  15770110.32046                  21597396.0394   21597395.1254
  37818563.05147                  29496355.53344  24031245.1024   24031245.9774
 11  7 28  1  7  0.0000000  0  9G17G02G04G09G28G27G12G10G05
   6672697.73847   5226710.46445  22405521.6254   22405519.8164   13392254.33248
  10462428.86046                  20964935.6334                   20964932.1174
   5871096.64548   4604243.58346  20522715.0234   20522713.4024   24384607.40247
  19026812.86645                  22604272.8594   22604272.3324
   6434531.31646   5031965.48943  23767755.2424                   23767755.8714
  18318152.65247  14298610.24445  23009142.5784   23009142.4884   29104113.94547
  22703799.48645                  22802319.7114   22802318.1374   20112140.32047
  15696825.51746                  21579499.1484   21579497.7584
  37677980.05147                  29386810.57544  24004492.6024   24004493.9964
 11  7 28  1  7 30.0000000  0  9G17G02G04G09G28G27G12G10G05
   6681520.21148   5233585.11145  22407200.7734   22407199.0234   13324373.28148
  10409534.56046                  20952018.1724                   20952014.4414
   5888009.50448   4617422.42646  20525933.5784   20525931.6604   24401027.21147
  19039607.50645                  22607397.6954   22607397.2934
   6494869.87146   5078982.41643  23779237.0944                   23779237.6764
  18330399.17647  14308152.95045  23011472.3674   23011472.8954   28981874.69947
  22608548.14345                  22779058.2114   22779056.3204   20018564.41047
  15623909.26346                  21561692.6254   21561691.1024
  37537415.43047                  29277279.88344  23977743.6484   23977745.0434
 11  7 28  1  8  0.0000000  0  9G17G02G04G09G28G27G12G10G05
   6690450.14848   5240543.50246  22408900.2034   22408898.8594   13256858.35548
  10356925.54546                  20939170.9144                   20939166.8134
   5905289.78148   4630887.57246  20529221.6724   20529220.0044   24417912.96947
  19052765.22545                  22610610.5554   22610609.8204
   6555459.56646   5126195.13844  23790767.7034                   23790767.4024
  18342959.59847  14317940.28945  23013863.3284   23013863.1564   28859841.26247
  22513457.19245                  22755835.9224   22755834.0314   19925457.66047
  15551358.60245                  21543974.5314   21543972.8954
  37396865.29347                  29167760.51844  23950997.9384   23950998.6954
 11  7 28  1  8 30.0000000  0  9G17G02G04G09G28G27G12G10G05
   6699493.28548   5247590.07345  22410621.1414   22410619.4694   13189714.26648
  10304605.50346                  20926393.5394                   20926389.7624
   5922940.41448   4644641.29346  20532580.5474   20532578.8014   24435266.82847
  19066287.70345                  22613913.3834   22613912.4384
   6616303.69946   5173606.13643  23802344.7194                   23802345.4104
  18355836.51247  14327974.18045  23016313.7734   23016313.5984   28738021.57447
  22418532.76645                  22732654.7034   22732652.4104   19832827.74647
  15479179.50546                  21526347.8594   21526346.2894
  37256337.71547                  29058258.70944  23924256.3524   23924257.0314
 11  7 28  1  9  0.0000000  0  9G17G02G04G09G28G27G12G10G05
   6708644.35548   5254720.77745  22412362.1724   22412360.8714   13122935.52048
  10252570.14446                  20913686.0164                   20913682.3634
   5940953.46948   4658677.45146  20536008.6024   20536006.7974   24453080.15647
  19080168.19945                  22617302.8444   22617301.8714
   6677395.14146   5221209.76743  23813971.0234                   23813970.9224
  18369022.02347  14338248.59545  23018822.8134   23018822.6804   28616412.15647
  22323772.20745                  22709513.2584   22709511.1884   19740671.70747
  15407369.65246                  21508810.9144   21508809.5434
  37115829.83247                  28948772.24844  23897518.4614   23897519.0354
 11  7 28  1  9 30.0000000  0  9G17G02G04G09G28G27G12G10G05
   6717905.65247   5261937.36245  22414124.4774   22414122.9184   13056523.65648
  10200820.66646                  20901048.0554                   20901044.4104
   5959328.59448   4672995.71246  20539505.0164   20539503.4064   24471352.25847
  19094406.19045                  22620779.8284   22620779.0164
   6738733.89546   5269006.07743  23825643.7274                   23825642.5514
  18382515.80547  14348763.19645  23021390.6484   23021390.5084   28495017.67247
  22229179.12545                  22686412.3914   22686410.9614   19648994.48448
  15335932.89646                  21491365.2734   21491363.7624
  36975346.24247                  28839304.76844  23870784.7974   23870785.5434
 11  7 28  1 10  0.0000000  0  9G17G02G04G09G28G27G12G10G05
   6727274.90247   5269238.07845  22415907.1024   22415905.8984   12990475.12948
  10149354.31946                  20888479.6724                   20888476.1174
   5978060.51648   4687592.01546  20543069.5944   20543067.7114   24490076.96947
  19108996.85845                  22624343.3444   22624342.1724
   6800315.04746   5316991.42043  23837362.2114                   23837361.7234
  18396312.16447  14359513.58545  23024015.6564   23024015.6294   28373837.21947
  22134752.82445                  22663352.3674   22663350.6884   19557795.52048
  15264868.81146                  21474010.3754   21474008.8404
  36834886.85547                  28729856.05744  23844056.0784   23844057.0784
 11  7 28  1 10 30.0000000  0  9G17G02G04G09G28G27G12G10G05
   6736756.00447   5276625.94945  22417711.4614   22417709.6604   12924793.31648
  10098173.71446                  20875981.0234                   20875977.1454
   5997150.35948   4702467.21046  20546702.2424   20546700.4654   24509255.12947
  19123940.87845                  22627993.0634   22627991.7974
   6862140.61746   5365167.11143  23849127.0704                   23849126.8364
  18410412.53547  14370500.86545  23026699.0234   23026699.0864   28252877.18847
  22040498.28545                  22640334.6484   22640332.8834   19467080.91848
  15194182.15246                  21456748.2114   21456746.5204
  36694457.78947                  28620431.04544  23817333.2974   23817334.2344
 11  7 28  1 11  0.0000000  0  9G17G02G04G09G28G27G12G10G05
   6746345.03947   5284097.92845  22419535.9844   22419534.1094   12859473.37548
  10047275.09146                  20863550.8984                   20863546.9184
   6016591.58648   4717616.21346  20550401.7664   20550400.2584   24528879.59847
  19139232.65045                  22631726.9384   22631725.7934
   6924204.34446   5413528.41843  23860936.4924                   23860937.9654
  18424809.99247  14381719.64445  23029438.9144   23029439.2114   28132135.89547
  21946414.20545                  22617357.7584   22617356.6334   19376849.39548
  15123871.91846                  21439577.6954   21439576.1454
  36554057.92647                  28511028.76544  23790615.8834   23790616.6374
 11  7 28  1 11 30.0000000  0  9G17G02G04G09G28G27G12G10G05
   6756044.67248   5291656.06745  22421381.9614   22421380.4884   12794517.32048
   9996660.01446                  20851190.2814                   20851186.3284
   6036383.69948   4733038.64146  20554167.9454   20554166.2424   24548949.23047
  19154871.32145                  22635545.9924   22635545.4654
   6986506.49656   5462075.44253  23872792.6954                   23872793.4104
  18439504.19547  14393169.65045  23032235.3754   23032234.9494   28011617.98047
  21852504.20045                  22594424.8204   22594422.7194   19287105.31347
  15053941.51846                  21422499.7974   21422498.6724
  36413692.05547                  28401652.93544  23763904.7894   23763905.9884
 11  7 28  1 12  0.0000000  0  9G17G02G04G09G28G27G12G10G05
   6765854.67647   5299300.22145  22423248.3914   22423247.6994   12729924.26648
   9946327.78946                  20838898.2734                   20838894.4494
   6056524.03948   4748732.41246  20558000.5164   20557999.1054   24569460.64847
  19170854.22745                  22639449.6804   22639448.9774
   7049044.77346   5510806.56543  23884693.3984                   23884692.9264
  18454492.09847  14404848.51744  23035087.4614   23035087.1454   27891325.14147
  21758769.56345                  22571533.2814   22571532.0634   19197850.82048
  14984392.61246                  21405515.2584   21405514.0554
  36273362.42647                  28292305.37844  23737201.0634   23737202.1334
 11  7 28  1 12 30.0000000  0  9G17G02G04G09G28G27G12G10G05
   6775780.95747   5307034.97445  22425137.9224   22425136.7774   12665699.07848
   9896282.22746                  20826676.6484                   20826672.7384
   6077015.43448   4764699.73246  20561900.1254   20561898.3634   24590415.97747
  19187183.05545                  22643436.9144   22643436.4574
   7111822.51646   5559724.23243  23896640.0864                   23896639.1914
  18469776.48847  14416758.42044  23037995.6644   23037995.9774   27771265.46547
  21665216.62545                  22548687.2664   22548685.0044   19109093.78947
  14915231.33546                  21388625.3524   21388624.1174
  36133077.25047                  28182992.45344  23710505.4694   23710506.4884
 11  7 28  1 13  0.0000000  0  9G17G02G04G09G28G27G12G10G05
   6785822.29747   5314859.36645  22427048.7974   22427047.1684   12601839.68048
   9846521.68446                  20814524.5944                   20814520.7854
   6097853.85548   4780937.45246  20565865.7504   20565864.2424   24611810.66447
  19203854.22945                  22647508.3444   22647507.4614
   7174836.55946   5608826.02843  23908630.8134                   23908631.4884
  18485353.30147  14428896.20844  23040959.9454   23040959.7584   27651439.68447
  21571845.94245                  22525884.8754   22525882.6684   19020835.44948
  14846458.63746                  21371830.5704   21371828.5824
  35992837.79347                  28073715.17944  23683818.8914   23683819.3364
 11  7 28  1 13 30.0000000  0  9G17G02G04G09G28G27G12G10G05
   6795978.94547   5322773.62345  22428981.4614   22428980.3714   12538345.23048
   9797045.52546                  20802441.9774                   20802438.3014
   6119036.75848   4797443.61646  20569896.3754   20569894.8524   24633641.49647
  19220865.26145                  22651662.7114   22651661.9574
   7238084.48046   5658110.01443  23920666.6024                   23920667.2464
  18501219.69947  14441259.62544  23043979.2814   23043979.2304   27531850.02747
  21478659.26645                  22503127.0084   22503125.8364   18933077.90248
  14778076.18346                  21355130.5314   21355129.0394
  35852646.46147                  27964475.39744  23657141.1024   23657142.1294
 11  7 28  1 14  0.0000000  0  9G17G02G04G09G28G27G12G10G05
   6806246.76647   5330774.51845  22430934.9614   22430934.1764   12475211.07848
   9747850.10547                  20790427.8134                   20790424.0944
   6140557.18448   4814212.77346  20573991.7814   20573989.9614   24655900.84447
  19238210.20645                  22655898.4924   22655897.6954
   7301559.82446   5707571.31843  23932745.3134                   23932745.4694
  18517368.55947  14453843.14044  23047052.1334   23047052.0824   27412494.50047
  21385655.02245                  22480414.9924   22480413.1134   18845819.02748
  14710082.29146                  21338525.6024   21338524.3404
  35712501.51647                  27855271.71044  23630472.1564   23630473.0234
 11  7 28  1 14 30.0000000  0  9G17G02G04G09G28G27G12G10G05
   6816628.27047   5338863.99845  22432910.3364   22432909.3164   12412438.46148
   9698936.41447                  20778482.7504                   20778479.1604
   6162414.69948   4831244.59846  20578151.1564   20578149.2854   24678587.66046
  19255888.21645                  22660215.6094   22660215.2704
   7365262.75846   5757209.90943  23944868.0314                   23944867.7734
  18533799.40247  14466646.40644  23050179.1884   23050178.6684   27293377.62947
  21292836.75645                  22457747.6254   22457745.5004   18759063.14848
  14642480.35846                  21322016.5704   21322015.2234
  35572407.80147                  27746107.99144  23603813.2114   23603813.9414
 11  7 28  1 15  0.0000000  0  9G17G02G04G09G28G27G12G10G05
   6827124.15647   5347042.58145  22434908.2114   22434906.3594   12350027.32848
   9650304.40646                  20766606.3134                   20766602.4694
   6184607.21948   4848537.45746  20582374.4384   20582372.6294   24701699.28946
  19273897.26245                  22664614.0784   22664612.9384
   7429191.64846   5807024.59844  23957033.7194                   23957033.2734
  18550509.97347  14479667.60844  23053359.1724   23053358.8794   27174502.05147
  21200206.49245                  22435125.7344   22435124.1684   18672813.32847
  14575272.74446                  21305603.5394   21305602.0744
  35432368.63747                  27636986.71644  23577164.0704   23577165.1454
 11  7 28  1 15 30.0000000  0  9G17G02G04G09G28G27G12G10G05
   6837732.04347   5355308.44545  22436926.6954   22436925.3284   12287974.43448
   9601951.54747                  20754798.1334                   20754794.1954
   6207129.59448   4866087.35446  20586660.2344   20586658.5274   24725229.57047
  19292232.54445                  22669091.8054   22669090.9614
   7493341.67246   5857011.55343  23969241.5004                   23969241.3874
  18567494.98447  14492902.66344  23056591.5004   23056591.0664   27055867.52347
  21107764.07545                  22412550.8054   22412548.7344   18587069.23048
  14508459.21546                  21289287.2814   21289285.8874
  35292383.74247                  27527907.79444  23550526.4454   23550526.7344
 11  7 28  1 16  0.0000000  0  9G17G02G04G09G28G27G12G10G05
   6848455.91847   5363664.68645  22438967.5864   22438965.9774   12226283.02348
   9553880.35946                  20743058.4144                   20743054.7154
   6229983.02348   4883895.21946  20591009.0394   20591007.4494   24749178.89547
  19310894.32545                  22673648.7734   22673648.4144
   7557714.53546   5907172.20243  23981490.2664                   23981490.0354
  18584755.38747  14506352.29044  23059875.7584   23059875.8134   26937480.02747
  21015514.13445                  22390022.3834   22390020.3984   18501836.47748
  14442044.11946                  21273067.9064   21273066.7464
  35152459.61747                  27418876.17545  23523899.5634   23523899.8094
 11  7 28  1 16 30.0000000  0  9G17G02G04G09G28G27G12G10G05
   6859296.92247   5372112.20645  22441030.3284   22441028.6294   12164952.57448
   9506090.43446                  20731387.5234                   20731383.8524
   6253165.32048   4901959.34846  20595420.4924   20595418.8284   24773544.68447
  19329880.66245                  22678285.3284   22678284.7234
   7622308.57846   5957505.16643  23993781.8984                   23993782.4304
  18602288.92647  14520014.78444  23063212.0084   23063212.0634   26819342.86347
  20923459.24545                  22367541.6484   22367539.6454   18417118.46548
  14376030.12846                  21256946.5864   21256945.1844
  35012599.63347                  27309894.53044  23497284.3524   23497284.9964
 11  7 28  1 17  0.0000000  0  8G17G02G04G09G27G12G10G05
   6870255.40247   5380651.25545  22443115.7034   22443114.4144   12103983.36748
   9458581.99946                  20719785.5554                   20719781.6724
   6276674.73448   4920278.36846  20599893.7734   20599892.4534   24798324.29347
  19349189.43045                  22683000.3444   22683000.4024
  18620093.39547  14533888.37544  23066600.4454   23066600.6454   26701458.48047
  20831601.34645                  22345109.1334   22345107.1564   18332917.41848
  14310418.97946                  21240923.6724   21240922.3014
  34872806.88747                  27200965.29144  23470682.6724   23470683.1094
 11  7 28  1 17 30.0000000  0  8G17G02G04G09G27G12G10G05
   6881327.93047   5389279.18945  22445222.8284   22445221.3954   12043370.27048
   9411351.04146                  20708251.1954                   20708247.0164
   6300504.52048   4938847.02346  20604428.7194   20604427.2304   24823509.98447
  19368814.64945                  22687793.7584   22687792.7774
  18638161.81347  14547967.64744  23070038.5004   23070038.6804   26583825.15248
  20739939.06145                  22322724.0164   22322721.9734   18249231.29348
  14245209.04946                  21224998.6024   21224997.3244
  34733080.05947                  27092087.39544  23444093.4844   23444094.0704
 11  7 28  1 18  0.0000000  0  8G17G02G04G09G27G12G10G05
   6892527.46947   5398006.10445  22447354.0004   22447352.4144   11983125.50848
   9364407.11147                  20696787.2274                   20696782.9024
   6324664.51648   4957672.98946  20609026.4384   20609024.5594   24849111.02047
  19388763.49445                  22692664.8834   22692664.6994
  18656504.10547  14562260.29744  23073529.0394   23073529.2894   26466457.93047
  20648484.13745                  22300389.4774   22300387.5044   18166075.27048
  14180412.19846                  21209174.8134   21209173.6454
  34593434.22347                  26983272.63644  23417519.6484   23417519.8794
 11  7 28  1 18 30.0000000  0  8G17G02G04G09G27G12G10G05
   6903861.07847   5406837.48845  22449510.7114   22449509.3754   11923255.35248
   9317755.06347                  20685394.3204                   20685389.9774
   6349159.72748   4976760.17246  20613687.7114   20613686.2624   24875131.53147
  19409039.20345                  22697616.8284   22697615.7774
  18675124.79747  14576769.89044  23077072.4614   23077072.7774   26349366.43847
  20557244.04945                  22278108.1174   22278105.9024   18083458.39548
  14116035.46546                  21193453.0784   21193451.7704
  34453879.43847                  26874528.80744  23390962.8524   23390963.0944
 11  7 28  1 19  0.0000000  0  8G17G02G04G09G27G12G10G05
   6915321.83247   5415767.95345  22451690.8754   22451690.1914   11863751.69948
   9271388.60546                  20674070.9924                   20674066.6294
   6373979.39148   4996100.17446  20618410.7894   20618409.2194   24901560.37947
  19429633.10345                  22702645.9614   22702645.4884
  18694013.28547  14591488.16244  23080667.1564   23080666.7544   26232545.35248
  20466214.68645                  22255878.0784   22255875.3554   18001375.38348
  14052074.72246                  21177833.4694   21177831.6484
  34314410.64847                  26765852.00144  23364423.1094   23364423.3244
 11  7 28  1 19 30.0000000  0  8G17G02G04G09G27G12G10G05
   6926902.53947   5424791.88345  22453895.1804   22453893.6844   11804606.25448
   9225301.28046                  20662815.9534                   20662811.8794
   6399114.08248   5015685.65046  20623193.6174   20623192.4144   24928386.78147
  19450536.79445                  22707750.8134   22707750.1524
  18713159.39147  14606407.15744  23084310.3364   23084310.2774   26115989.72347
  20375392.16545                  22233697.6094   22233695.3134   17919820.85248
  13988525.78746                  21162313.8134   21162312.2114
  34175023.31347                  26657238.62044  23337898.6174   23337898.2974
 11  7 28  1 20  0.0000000  0  8G17G02G04G09G27G12G10G05
   6938605.82047   5433911.33245  22456122.6564   22456120.8204   11745820.78548
   9179494.46046                  20651629.4774                   20651625.2664
   6424563.44948   5035516.34046  20628036.4774   20628035.1334   24955609.93847
  19471749.64045                  22712931.0004   22712930.8874
  18732562.90647  14621526.74244  23088002.4534   23088002.7814   25999704.85247
  20284780.61745                  22211569.3054   22211567.4804   17838799.69148
  13925392.45446                  21146896.0314   21146894.4884
  34035722.71147                  26548692.84844  23311389.8754   23311390.2464
 11  7 28  1 20 30.0000000  0  8G17G02G04G09G27G12G10G05
   6950431.77347   5443126.36645  22458372.9224   22458371.0314   11687394.07848
   9133967.18146                  20640510.8914                   20640506.8134
   6450324.52348   5055589.91046  20632938.8134   20632937.0594   24983226.13347
  19493268.74845                  22718186.6024   22718186.6374
  18752220.62547  14636844.43044  23091743.3754   23091742.9694   25883691.75447
  20194380.85245                  22189493.2034   22189490.5084   17758313.45348
  13862675.96546                  21131579.9694   21131578.5084
  33896510.97947                  26440216.36545  23284899.3204   23284899.0044
 11  7 28  1 21  0.0000000  0  8G17G02G04G09G27G12G10G05
   6962376.83647   5452434.19745  22460646.0784   22460643.7384   11629321.54748
   9088715.88946                  20629460.3364                   20629456.1524
   6476391.28148   5075901.68746  20637898.8594   20637897.3244   25011228.02047
  19515088.40045                  22723514.9304   22723514.8054
  18772125.94947  14652355.03244  23095531.3914   23095531.1644   25767949.23447
  20104191.91245                  22167467.7034   22167465.2034   17678360.46548
  13800374.98646                  21116365.4924   21116363.8524
  33757387.06347                  26331808.20845  23258424.5164   23258424.7274
 11  7 28  1 21 30.0000000  0  8G17G02G04G09G27G12G10G05
   6974440.98847   5461834.84745  22462941.5784   22462939.6844   11571602.05948
   9043739.68446                  20618476.6484                   20618472.5704
   6502760.47348   5096449.10546  20642916.7034   20642915.0904   25039611.91847
  19537205.71345                  22728916.2584   22728916.2074
  18792275.52347  14668055.95044  23099365.8204   23099365.6604   25652479.15647
  20014215.25445                  22145494.2894   22145492.0434   17598942.03148
  13738490.54146                  21101252.4384   21101250.7384
  33618353.17647                  26223470.26345  23231967.0784   23231967.1604
 11  7 28  1 22  0.0000000  0  8G17G02G04G09G27G12G10G05
   6986625.24247   5471329.07045  22465260.1564   22465258.9884   11514235.50848
   8999038.50746                  20607560.0944                   20607555.8524
   6529430.20748   5117230.72846  20647991.9224   20647990.0044   25068374.92247
  19559618.46445                  22734390.1644   22734389.0904
  18812667.31347  14683945.61944  23103246.1334   23103246.2344   25537284.94147
  19924453.56145                  22123573.5084   22123571.3164   17520060.87147
  13677024.74146                  21086241.7504   21086240.0204
  33479412.82047                  26115205.19945  23205527.2894   23205527.8444
 11  7 28  1 22 30.0000000  0  8G17G02G04G09G27G12G10G05
   6998927.79747   5480915.47845  22467601.3594   22467599.5824   11457219.48048
   8954610.45946                  20596710.3524                   20596706.1524
   6556396.03148   5138243.05146  20653123.5164   20653121.5274   25097511.80947
  19582322.52344                  22739934.2034   22739933.6684
  18833296.57047  14700020.33044  23107171.8524   23107172.1454   25422367.00047
  19834907.15046                  22101705.7194   22101703.4064   17441717.22348
  13615977.78846                  21071333.6804   21071331.6844
  33340566.84447                  26007013.67445  23179105.7974   23179105.7154
 11  7 28  1 23  0.0000000  0  8G17G02G04G09G27G12G10G05
   7011347.57847   5490593.24545  22469965.1024   22469963.3134   11400551.44148
   8910453.56947                  20585926.6254                   20585922.9844
   6583653.87148   5159482.94646  20658310.0864   20658308.3444   25127017.53147
  19605314.01644                  22745549.3444   22745548.3404
  18854158.93047  14716276.71444  23111141.7114   23111141.6804   25307726.07847
  19745576.58945                  22079889.9614   22079887.5864   17363911.56648
  13555350.06046                  21056527.4384   21056525.7664
  33201816.31647                  25898896.54045  23152702.3444   23152702.6644
 11  7 28  1 23 30.0000000  0  8G17G02G04G09G27G12G10G05
   7023885.40247   5500362.98345  22472350.7584   22472348.7774   11344230.85548
   8866567.43246                  20575209.0784                   20575205.6564
   6611201.78148   5180948.84346  20663552.2974   20663550.6484   25156889.07447
  19628590.53845                  22751233.5704   22751232.8914
  18875252.00047  14732712.84944  23115155.3754   23115155.5554   25193364.82047
  19656463.94945                  22058128.1334   22058125.4184   17286646.41448
  13495143.48846                  21041824.6954   21041823.2234
  33063164.36347                  25790856.22345  23126317.5394   23126317.7774
 11  7 28  1 24  0.0000000  0  8G17G02G04G09G27G12G10G05
   7036548.09047   5510230.00545  22474760.2274   22474758.7034   11288263.78948
   8822956.76546                  20564558.7734                   20564555.0824
   6639043.68848   5202643.84246  20668850.5704   20668848.6524   25187129.62547
  19652154.61644                  22756988.1724   22756987.1914
  18896579.75047  14749331.85544  23119214.3054   23119214.0664   25079292.33647
  19567576.32445                  22036420.6334   22036418.2154   17209930.41048
  13435364.82846                  21027225.9384   21027224.1094
  32924620.51647                  25682900.12245  23099953.4304   23099953.0514
 11  7 28  1 24 30.0000000  0  8G17G02G04G09G27G12G10G05
   7049333.52347   5520192.67845  22477193.2504   22477191.9344   11232647.04348
   8779619.05446                  20553975.5234                   20553971.3874
   6667174.63748   5224564.06246  20674203.6174   20674201.8244   25217733.51247
  19676001.80744                  22762811.6484   22762811.3204
  18918136.93847  14766129.62944  23123316.3444   23123316.6024   24965508.37147
  19478913.52546                  22014768.4384   22014765.9694   17133762.84848
  13376013.51946                  21012731.3834   21012729.9574
  32786184.98047                  25575028.42645  23073610.4844   23073609.9804
 11  7 28  1 25  0.0000000  0  8G17G02G04G09G27G12G10G05
   7062236.71547   5530247.10545  22479648.7194   22479647.2704   11177373.99648
   8736549.17546                  20543457.3284                   20543453.0314
   6695586.42648   5246703.11146  20679610.3914   20679608.5634   25248691.44947
  19700124.85044                  22768702.8984   22768702.4964
  18939914.80547  14783099.38544  23127460.1174   23127460.4884   24852010.02047
  19390473.26146                  21993169.9384   21993167.7424   17058139.82048
  13317086.52046                  20998341.0634   20998339.0554
  32647854.81647                  25467238.82945  23047286.3914   23047286.6214
 11  7 28  1 25 30.0000000  0  8G17G02G04G09G27G12G10G05
   8650683.69147   6767997.97945  22781920.3914   22781918.1914   12697872.11348
   9921352.93146                  20832798.6724                   20832794.3874
   8299702.09048   6496663.35146  20984863.5314   20984861.8634   26855425.39847
  20952125.31844                  23074454.5704   23074453.7974   20537336.18047
  16027843.31544                  23431438.9844   23431440.0434   26314229.92647
                                  20529865.41745  22271421.0554   22271418.9694
  18558492.26248                  14486192.36246  21283848.6334   21283846.5434
  34085064.14147                  26587142.35244  23320778.5864   23320778.3674
 11  7 28  1 26  0.0000000  0  8G17G02G04G09G27G12G10G05
   8663837.52047   6778247.71745  22784423.3204   22784421.7304   12643298.60948
   9878828.14546                  20822413.5004                   20822409.2624
   8328682.65648   6519245.61446  20990378.2974   20990376.3284   26887095.56647
  20976803.35444                  23080480.9534   23080480.3874   20559561.08647
  16045161.42044                  23435669.0394   23435669.1094   26201324.54747
                                  20441887.21845  22249936.3914   22249933.7424
  18483978.36748                  14428129.60546  21269668.9924   21269666.8014
  33946967.75847                  26479534.91545  23294499.0164   23294499.2074
 11  7 28  1 26 30.0000000  0  8G17G02G04G09G27G12G10G05
   8677112.98447   6788592.22345  22786949.5314   22786947.6804   12589069.46948
   9836571.70446                  20812093.8594                   20812089.8524
   8357939.56348   6542043.21946  20995945.6884   20995943.7344   26919112.65247
  21001751.71444                  23086573.6094   23086572.7814   20582001.34847
  16062647.34044                  23439939.5784   23439938.9964   26088714.94947
                                  20354139.50046  22228507.3284   22228505.2114
  18410017.83648                  14370498.05346  21255594.8364   21255592.8284
  33808988.39847                  26372018.66445  23268242.5864   23268242.1644
 11  7 28  1 27  0.0000000  0  8G17G02G04G09G27G12G10G05
   8690513.55547   6799034.21245  22789499.6334   22789497.3364   12535186.69148
   9794585.14446                  20801840.4454                   20801836.4844
   8387473.30148   6565056.52146  21001565.6174   21001563.8554   26951476.12147
  21026969.99145                  23092732.0314   23092731.4494   20604656.97747
  16080301.09144                  23444250.2814   23444250.6844   25976406.18847
                                  20266626.19646  22207135.2194   22207133.1334
  18336615.40248                  14313301.39046  21241626.6024   21241624.5904
  33671131.76647                  26264598.02845  23242009.5164   23242009.0824
 11  7 28  1 27 30.0000000  0  8G17G02G04G09G27G12G10G05
   8704036.60247   6809571.65045  22792072.7504   22792070.9064   12481646.79348
   9752865.76847                  20791651.8914                   20791648.2344
   8417278.51248   6588281.36846  21007237.4384   21007235.5984   26984179.54347
  21052453.14645                  23098955.4844   23098954.9024   20627522.25447
  16098118.17844                  23448601.5164   23448601.8204   25864398.21547
                                  20179347.26646  22185820.9844   22185818.9884
  18263770.20748                  14256538.93546  21227764.6174   21227762.7464
  33533397.55547                  26157272.80845  23215799.2114   23215798.6724
 11  7 28  1 28  0.0000000  0  8G17G02G04G09G27G12G10G05
   8717688.10947   6820209.17445  22794670.9924   22794668.8324   12428454.51248
   9711417.26946                  20781529.9304                   20781525.8054
   8447358.49648   6611720.31746  21012961.6724   21012959.5984   27017225.29347
  21078203.03644                  23105243.7974   23105243.0594   20650600.14547
  16116100.93244                  23452993.5704   23452993.7344   25752699.18447
                                  20092309.07746  22164565.6094   22164563.0704
  18191489.80948                  14200216.58846  21214010.1724   21214008.5514
  33395794.41047                  26050049.70345  23189614.0554   23189613.5704
 11  7 28  1 28 30.0000000  0  8G17G02G04G09G27G12G10G05
   8731468.91447   6830947.48345  22797293.1254   22797291.2704   12375609.20348
   9670239.11946                  20771473.7194                   20771469.8164
   8477710.94548   6635371.57546  21018737.4064   21018735.5594   27050610.05547
  21104217.10545                  23111596.9454   23111596.0864   20673888.00447
  16134247.30144                  23457425.1484   23457424.9184   25641311.35547
                                  20005513.39746  22143368.8914   22143367.2774
  18119775.91048                  14144335.67746  21200363.4924   21200361.6174
  33258325.24647                  25942930.99645  23163454.6334   23163454.2234
 11  7 28  1 29  0.0000000  0  8G17G02G04G09G27G12G10G05
   8745374.98047   6841783.35045  22799939.4924   22799937.6054   12323105.88748
   9629327.47246                  20761482.3914                   20761478.7274
   8508329.25848   6659230.01446  21024563.9454   21024561.7464   27084326.16047
  21130489.35444                  23118012.3674   23118012.2624   20697378.60947
  16152551.67444                  23461894.9064   23461894.7894   25530233.19947
                                  19918959.01446  22122231.5784   22122229.7034
  18048625.97748                  14088894.20046  21186824.0084   21186822.2704
  33120988.91847                  25835915.80845  23137320.4924   23137319.7704
 11  7 28  1 29 30.0000000  0  8G17G02G04G09G27G12G10G05
   8759406.03547   6852716.65245  22802609.2274   22802607.3484   12270942.89548
   9588681.00847                  20751556.3984                   20751552.4144
   8539209.95748   6683292.89246  21030440.2344   21030438.6024   27118369.19547
  21157016.35144                  23124490.5164   23124490.6884   20721068.48447
  16171011.30244                  23466403.2114   23466402.9774   25419466.14847
                                  19832647.03546  22101153.4774   22101151.0394
  17978040.93448                  14033892.91946  21173392.1414   21173390.2624
  32983787.05947                  25729005.38945  23111211.8134   23111211.4384
 11  7 28  1 30  0.0000000  0  8G17G02G04G09G27G12G10G05
   8773566.21147   6863750.53745  22805304.1094   22805302.4924   12219122.87148
   9548301.79847                  20741695.0554                   20741691.5634
   8570354.43848   6707561.31446  21036366.7114   21036365.0634   27152739.48047
  21183798.35644                  23131031.5164   23131030.7074   20744958.57447
  16189626.92044                  23470949.4924   23470949.2344   25309016.32847
                                  19746582.28846  22080135.3054   22080133.1604
  17908026.31348                  13979336.11246  21160068.6484   21160067.0474
  32846726.48447                  25622205.07645  23085130.0394   23085129.1914
 11  7 28  1 30 30.0000000  0  8G17G02G04G09G27G12G10G05
   8787855.05947   6874884.70945  22808022.8594   22808021.4574   12167644.56648
   9508188.85347                  20731899.4694                   20731895.2194
   8601759.39148   6732032.72446  21042343.0084   21042340.9844   27187432.78547
  21210832.08144                  23137633.1174   23137632.9264   20769045.17647
  16208395.67344                  23475532.8134   23475532.6134   25198885.50847
                                  19660766.08846  22059178.2274   22059175.9454
  17838583.29348                  13925224.71446  21146854.2974   21146852.1604
  32709809.10247                  25515516.32745  23059075.6954   23059074.1214
 11  7 28  1 31  0.0000000  0  8G17G02G04G09G27G12G10G05
   8802272.05547   6886118.72345  22810766.4694   22810765.2584   12116505.94548
   9468340.58747                  20722167.9304                   20722163.8914
   8633421.52348   6756704.51846  21048368.0634   21048366.4654   27222444.84447
  21238114.19044                  23144295.6174   23144295.3444   20793324.52347
  16227314.62344                  23480153.0314   23480152.9844   25089075.14147
                                  19575199.61046  22038281.7664   22038279.4144
  17769712.57448                  13871559.26146  21133748.4694   21133747.0634
  32573037.46147                  25408941.15045  23033048.3524   23033047.3164
 11  7 28  1 31 30.0000000  0  8G17G02G04G09G27G12G10G05
   8816817.74247   6897453.00645  22813534.3754   22813532.9144   12065706.08648
   9428756.30747                  20712501.0084                   20712497.5274
   8665338.39148   6781574.81046  21054441.6334   21054439.9614   27257772.17647
  21265641.95944                  23151018.6804   23151018.0824   20817793.50447
  16246381.31144                  23484809.3754   23484809.1254   24979587.90247
                                  19489884.90246  22017446.8674   22017444.9264
  17701415.94148                  13818341.14146  21120752.1484   21120750.1134
  32436413.78947                  25302481.28845  23007049.5554   23007049.1914
 11  7 28  1 32  0.0000000  0  8G17G02G04G09G27G12G10G05
   8831490.91847   6908886.65745  22816326.7814   22816325.2034   12015242.74648
   9389434.22146                  20702898.3594                   20702894.3134
   8697506.18048   6806640.62246  21060563.0554   21060561.5354   27293409.69947
  21293411.45744                  23157800.0554   23157799.5784   20842448.06346
  16265592.62544                  23489501.0164   23489500.8984   24870424.63347
                                  19404822.67446  21996674.0004   21996671.8834
  17633693.12548                  13765570.15946  21107864.6254   21107863.1094
  32299939.23047                  25196137.59945  22981078.8984   22981078.7194
 11  7 28  1 32 30.0000000  0  8G17G02G04G09G27G12G10G05
   8846295.10547   6920422.37945  22819144.0084   22819142.7154   11965118.09048
   9350376.06147                  20693359.8524                   20693355.7154
   8729925.31348   6831902.29046  21066732.3754   21066730.5984   27329356.81647
  21321422.18244                  23164641.0704   23164640.1844   20867288.12146
  16284948.48544                  23494227.4924   23494227.9384   24761590.74647
                                  19320017.08846  21975963.7504   21975961.2934
  17566548.81348                  13713249.93846  21095087.7734   21095085.8324
  32163619.87147                  25089914.82945  22955138.3674   22955137.5904
 11  7 28  1 33  0.0000000  0  8G17G02G04G09G27G12G10G05
   8861226.76247   6932057.43145  22821985.4064   22821983.8914   11915327.64548
   9311578.33647                  20683885.1024                   20683880.9184
   8762589.81648   6857355.15846  21072948.1094   21072946.0314   27365606.35547
  21349668.58344                  23171539.1564   23171538.2424   20892307.41846
  16304443.98844                  23498989.0554   23498988.8164   24653085.02747
                                  19235467.22146  21955315.8754   21955313.2194
  17499980.88748                  13661378.87146  21082419.9144   21082418.5634
  32027455.00447                  24983812.47845  22929226.9924   22929226.5864
 11  7 28  1 33 30.0000000  0  8G17G02G04G09G27G12G10G05
   8876288.25047   6943793.64645  22824851.6564   22824850.6024   11865871.74248
   9273041.29747                  20674473.9224                   20674469.6914
   8795498.93048   6882998.63146  21079210.6414   21079208.8054   27402156.67247
  21378149.34044                  23178493.7664   23178493.8444   20917504.80546
  16324078.27444                  23503783.6644   23503783.6884   24544911.44947
                                  19151176.16546  21934731.2034   21934728.1994
  17433992.64148                  13609959.49946  21069862.9614   21069861.5554
  31891449.11747                  24877833.97745  22903345.8054   22903345.2234
 11  7 28  1 34  0.0000000  0  8G17G02G04G09G27G12G10G05
   8891484.51247   6955634.87445  22827743.1334   22827741.8524   11816754.14548
   9234767.86647                  20665127.0784                   20665122.9264
   8828654.60948   6908834.23246  21085519.8204   21085517.9844   27439008.82047
  21406865.29644                  23185506.7424   23185506.1994   20942881.79346
  16343852.48244                  23508613.0394   23508613.3324   24437076.91047
                                  19067149.29546  21914210.8444   21914208.0314
  17368589.93848                  13558996.38446  21057417.3364   21057415.4534
  31755609.50447                  24771985.05145  22877496.0394   22877495.4344
 11  7 28  1 34 30.0000000  0  8G17G02G04G09G27G12G10G05
   8906816.26247   6967581.70745  22830660.2194   22830659.1764   11767974.50048
   9196757.77047                  20655844.5864                   20655840.8484
   8862055.01648   6934860.52746  21091875.3524   21091873.7194   27476159.72747
  21435814.05544                  23192576.2584   23192575.5904   20968436.04746
  16363764.87444                  23513475.6334   23513476.1214   24329584.52747
                                  18983389.04646  21893755.6094   21893752.8754
  17303775.35248                  13508491.54346  21045083.9224   21045081.7194
  31619939.59047                  24666268.33945  22851678.9304   22851678.5044
 11  7 28  1 35  0.0000000  0  8G17G02G04G09G27G12G10G05
   8922282.06647   6979632.98045  22833603.3834   22833602.1884   11719530.15648
   9159008.95346                  20646625.6644                   20646621.8674
   8895696.08248   6961074.33846  21098277.2664   21098275.2894   27513604.03947
  21464991.46044                  23199701.6564   23199700.7344   20994162.79346
  16383811.65644                  23518370.9454   23518371.5434   24222434.64147
                                  18899895.66546  21873365.6644   21873363.0394
  17239548.52748                  13458444.70046  21032861.3444   21032859.4494
  31484440.50847                  24560684.76945  22825894.4454   22825893.8524
 11  7 28  1 35 30.0000000  0  8G17G02G04G09G27G12G10G05
   8937880.64547   6991787.71245  22836571.5634   22836570.3364   11671418.00048
   9121518.97447                  20637470.7664                   20637466.3014
   8929573.09048   6987472.00446  21104723.8134   21104721.8204   27551336.03947
  21494393.00244                  23206881.5554   23206881.2934   21020057.03946
  16403988.96144                  23523299.0004   23523298.9534   24115627.53547
                                  18816669.37346  21853040.8834   21853038.2774
  17175908.46148                  13408855.06546  21020750.9384   21020749.1484
  31349112.90647                  24455234.79745  22800141.9454   22800141.6914
 11  7 28  1 36  0.0000000  0  8G17G02G04G09G27G12G10G05
   8953617.31647   7004050.05945  22839566.5474   22839564.5274   11623642.56348
   9084291.38447                  20628378.9774                   20628374.7704
   8963689.16048   7014055.94646  21111216.0944   21111214.2344   27589357.90647
  21524020.44244                  23214117.2504   23214116.4804   21046121.45746
  16424298.87244                  23528258.8834   23528258.3754   24009171.18447
                                  18733716.39546  21832782.8444   21832779.9884
  17112861.94548                  13359727.95046  21008753.6414   21008751.7274
  31213965.13747                  24349924.94045  22774424.4924   22774423.7894
 11  7 28  1 36 30.0000000  0  8G17G02G04G09G27G12G10G05
   8969487.28147   7016416.25345  22842586.4224   22842584.5044   11576197.25848
   9047321.05047                  20619350.5634                   20619346.3834
   8998036.14548   7040819.82646  21117751.9924   21117750.1174   27627660.41847
  21553866.52244                  23221406.3284   23221404.9534   21072347.58246
  16444734.77444                  23533249.3364   23533249.8164   23903062.37547
                                  18651034.24446  21812590.8834   21812587.9884
  17050404.84448                  13311060.10946  20996868.7114   20996866.4344
  31078994.27747                  24244752.96145  22748740.5004   22748739.4534
 11  7 28  1 37  0.0000000  0  8G17G02G04G09G27G12G10G05
   8985494.07447   7028889.08945  22845632.6804   22845630.4024   11529084.41448
   9010609.76146                  20610385.4454                   20610381.0474
   9032615.42648   7067764.71246  21124332.2664   21124330.4224   27666243.25847
  21583931.05144                  23228748.2584   23228747.9384   21098735.75846
  16465296.96244                  23538270.4924   23538271.2234   23797306.82847
                                  18568627.34146  21792466.2974   21792463.5824
  16988541.88348                  13262855.25246  20985096.4924   20985094.3164
  30944206.54747                  24139723.65345  22723091.2894   22723089.9614
 11  7 28  1 37 30.0000000  0  8G17G02G04G09G27G12G10G05
   9001638.25447   7041468.96945  22848705.4694   22848702.5984   11482303.00448
   8974156.74347                  20601483.1484                   20601478.8834
   9067424.25448   7094888.47046  21130955.8054   21130954.6134   27705102.90247
  21614211.28144                  23236142.7894   23236142.2814   21125283.15246
  16485983.24644                  23543323.0634   23543323.0944   23691906.94547
                                  18486497.58946  21772409.5784   21772406.4224
  16927274.50448                  13215114.46146  20973437.4224   20973435.8984
  30809604.98847                  24034839.41645  22697477.6804   22697475.9574
 11  7 28  1 38  0.0000000  0  8G17G02G04G09G27G12G10G05
   9017920.03147   7054156.04845  22851803.3364   22851800.9654   11435852.20348
   8937961.35547                  20592643.9924                   20592639.4494
   9102460.28548   7122189.26146  21137622.8984   21137621.6764   27744235.60247
  21644704.28244                  23243589.3754   23243588.8914   21151986.99246
  16506791.41844                  23548404.2894   23548404.2974   23586865.07847
                                  18404646.79046  21752420.1484   21752417.7034
  16866603.89148                  13167838.68446  20961892.2504   20961890.5124
  30675192.15647                  23930102.25445  22671899.6174   22671898.3444
 11  7 28  1 38 30.0000000  0  8G17G02G04G09G27G12G10G05
   9034339.02347   7066950.09245  22854927.3754   22854925.4104   11389729.88748
   8902021.91147                  20583867.1254                   20583862.5904
   9137720.20748   7149664.50746  21144333.0314   21144331.3794   27783637.21947
  21675406.79644                  23251087.1644   23251087.1414   21178843.36346
  16527718.42243                  23553515.1254   23553514.3484   23482182.60947
                                  18323076.06246  21732500.1484   21732497.7344
  16806530.41448                  13121028.22146  20950460.3984   20950458.7304
  30540970.23047                  23825513.83645  22646357.6414   22646356.6914
 11  7 28  1 39  0.0000000  0  8G17G02G04G09G27G12G10G05
   9050897.73847   7079852.96445  22858078.6334   22858076.3874   11343937.39848
   8866339.48147                  20575152.8834                   20575148.1254
   9173203.82048   7177314.07046  21151084.7504   21151083.6024   27823306.39147
  21706317.81844                  23258636.2424   23258635.4184   21205851.43447
  16548763.68844                  23558654.9694   23558654.4534   23377864.19947
                                  18241789.02546  21712648.7274   21712646.4344
  16747057.33648                  13074685.59746  20939143.4224   20939141.5164
  30406944.01647                  23721077.92345  22620853.1024   22620852.0554
 11  7 28  1 39 30.0000000  0  8G17G02G04G09G27G12G10G05
   9067594.98847   7092863.82045  22861255.9924   22861253.6094   11298472.18448
   8830912.07547                  20566500.8284                   20566497.0434
   9208907.46548   7205135.08746  21157879.3984   21157877.8524   27863238.19947
  21737433.47844                  23266235.4224   23266234.7304   21233006.99247
  16569923.84144                  23563821.6254   23563821.7074   23273910.98047
                                  18160786.55646  21692867.3754   21692864.7274
  16688184.70748                  13028810.85946  20927940.1564   20927938.1454
  30273115.02747                  23616795.68445  22595386.0634   22595385.1094
 11  7 28  1 40  0.0000000  0  8G17G02G04G09G27G12G10G05
   9084437.55947   7105987.91745  22864460.4454   22864460.0744   11253339.60248
   8795743.85347                  20557912.7894                   20557908.1804
   9244834.97348   7233130.52546  21164716.2664   21164714.6994   27903435.12147
  21768755.71844                  23273884.4064   23273883.7774   21260313.49246
  16591201.61344                  23569018.1884   23569018.3594   23170331.42648
                                  18080075.24946  21673156.6414   21673153.9694
  16629919.86748                  12983409.72746  20916852.4844   20916850.7344
  30139492.44947                  23512674.29545  22569958.6174   22569957.8324
 11  7 28  1 40 30.0000000  0  8G17G02G04G09G27G12G10G05
   9101416.20346   7119218.04145  22867690.8364   22867690.1994   11208528.73048
   8760826.31547                  20549385.7424                   20549381.1454
   9280974.08248   7261290.86546  21171593.3984   21171591.7624   27943883.59846
  21800273.99144                  23281581.0084   23281581.4414   21287758.09446
  16612586.97644                  23574240.7034   23574240.9654   23067117.73847
                                  17999649.05046  21653515.6724   21653513.5164
  16572254.27348                  12938475.51646  20905879.1334   20905877.3794
  30006069.19947                  23408708.23445  22544568.9924   22544568.0004
 11  7 28  1 41  0.0000000  0  8G17G02G04G09G27G12G10G05
   9118534.68447   7132557.13245  22870949.0394   22870948.3554   11164041.77748
   8726161.18947                  20540920.0704                   20540915.4534
   9317325.98048   7289616.99546  21178510.8444   21178508.9774   27984583.93046
  21831988.50044                  23289326.2344   23289326.1094   21315341.42646
  16634080.41344                  23579490.1484   23579490.4454   22964276.18448
                                  17919512.84346  21633945.7114   21633943.5004
  16515192.86748                  12894012.13146  20895020.8054   20895018.9384
  29872851.75047                  23304902.52945  22519218.2974   22519217.6254
 11  7 28  1 41 30.0000000  0  8G17G02G04G09G27G12G10G05
   9135792.82047   7146005.03645  22874233.4844   22874232.3014   11119877.75048
   8691747.68047                  20532515.6414                   20532511.3674
   9353887.96548   7318106.84446  21185468.3054   21185466.1724   28025532.10946
  21863896.11644                  23297118.8284   23297118.5314   21343060.13346
  16655679.37843                  23584764.5164   23584764.3834   22861808.53147
                                  17839667.97146  21614446.6094   21614443.9264
  16458735.76648                  12850019.61846  20884277.2194   20884275.4384
  29739841.99647                  23201258.66445  22493907.5004   22493906.3444
 11  7 28  1 42  0.0000000  0  8G17G02G04G09G27G12G10G05
   9153191.14147   7159562.17445  22877544.3364   22877542.7344   11076035.50448
   8657584.92447                  20524172.7114                   20524168.2584
   9390657.67648   7346758.55746  21192465.4304   21192463.6134   28066724.61346
  21895994.15144                  23304957.3134   23304957.2934   21370911.59846
  16677381.77844                  23590064.7114   23590064.2114   22759717.12147
                                  17760116.27946  21595019.0474   21595016.8634
  16402884.43848                  12806499.14846  20873649.1484   20873647.1414
  29607043.16447                  23097779.14345  22468636.8284   22468635.5434
 11  7 28  1 42 30.0000000  0  8G17G02G04G09G27G12G10G05
   9170728.43846   7173227.60045  22880881.3594   22880879.9694   11032512.06347
   8623670.57847                  20515890.2664                   20515886.0634
   9427631.01248   7375568.93946  21199501.6094   21199499.2854   28108155.88346
  21928278.21044                  23312841.6094   23312840.8984   21398890.76646
  16699183.68344                  23595388.6254   23595389.0944   22658002.47347
                                  17680858.18046  21575663.6564   21575661.0044
  16347637.89548                  12763449.91746  20863136.0234   20863134.2854
  29474456.53947                  22994464.98546  22443406.0554   22443405.1804
 11  7 28  1 43  0.0000000  0  8G17G02G04G09G27G12G10G05
   9188410.55147   7187005.86545  22884246.9224   22884243.6684   10989312.23048
   8590008.40247                  20507669.8674                   20507665.7274
   9464811.32848   7404540.62346  21206576.3134   21206574.5514   28149828.38746
  21960750.28444                  23320771.5474   23320770.4884   21427000.63747
  16721087.41244                  23600738.1804   23600738.8244   22556672.79347
                                  17601900.04846  21556381.2664   21556378.6254
  16293003.09448                  12720877.38446  20852739.2734   20852737.3554
  29342090.62147                  22891322.80446  22418217.6254   22418216.9454
 11  7 28  1 43 30.0000000  0  8G17G02G04G09G27G12G10G05
   9206231.27047   7200892.15545  22887637.8284   22887635.7464   10946428.39548
   8556592.44647                  20499509.3284                   20499504.9264
   9502189.67247   7433666.60146  21213689.3204   21213687.6374   28191731.95746
  21993402.39344                  23328745.9064   23328744.6454   21455231.54746
  16743085.50544                  23606110.5554   23606110.7464   22455723.37947
                                  17523238.24546  21537171.0704   21537168.6414
  16238974.38348                  12678777.12546  20842457.9844   20842456.2154
  29209941.45347                  22788349.51545  22393070.4304   22393069.3324
 11  7 28  1 44  0.0000000  0  8G17G02G04G09G27G12G10G05
   9224189.62547   7214885.66045  22891054.7504   22891052.8554   10903857.85248
   8523420.61247                  20491408.2114                   20491404.0984
   9539762.44148   7462944.07546  21220838.8984   21220837.2734   28233861.40246
  22026230.50744                  23336761.9694   23336761.8594   21483579.30146
  16765174.57944                  23611504.3444   23611505.0514   22355155.77047
                                  17444873.93146  21518033.5784   21518030.9224
  16185551.43848                  12637148.88846  20832291.8524   20832289.7384
  29078010.62147                  22685546.35746  22367964.5164   22367963.4024
 11  7 28  1 44 30.0000000  0  8G17G02G04G09G27G12G10G05
   9242289.55147   7228989.51745  22894499.1094   22894497.1374   10861603.16448
   8490494.89247                  20483367.4694                   20483363.1294
   9577530.73448   7492373.91046  21228026.2344   21228024.6174   28276216.85946
  22059234.76044                  23344822.2974   23344821.7274   21512044.42246
  16787355.11444                  23616921.0474   23616921.7504   22254975.49247
                                  17366811.43946  21498969.6254   21498967.6484
  16132738.88748                  12595996.28946  20822242.1884   20822239.9224
  28946304.45347                  22582918.26345  22342901.9144   22342900.7194
 11  7 28  1 45  0.0000000  0  8G17G02G04G09G27G12G10G05
   9260536.91847   7243208.24645  22897971.4614   22897969.2704   10819668.63348
   8457818.65347                  20475387.4144                   20475383.2734
   9615497.59048   7521958.46446  21235250.9614   21235249.3094   28318800.06346
  22092416.44244                  23352926.1024   23352925.3164   21540629.39546
  16809629.07644                  23622360.7814   23622361.0984   22155190.56647
                                  17289056.99746  21479981.5314   21479978.9654
  16080542.87148                  12555324.10046  20812309.6414   20812307.1334
  28814831.11347                  22480471.57145  22317883.5314   22317881.7074
 11  7 28  1 45 30.0000000  0  8G17G02G04G09G27G12G10G05
   9278928.66047   7257539.46245  22901471.2894   22901468.7624   10778049.62948
   8425388.27447                  20467467.6334                   20467463.1994
   9653657.26248   7551693.27146  21242512.5634   21242511.1804   28361603.88347
  22125770.04544                  23361071.0864   23361070.9384   21569327.91446
  16831991.52144                  23627821.2274   23627822.3554   22055799.32448
                                  17211609.33146  21461068.0554   21461065.2384
  16028960.80948                  12515130.32646  20802493.4534   20802491.4734
  28683589.92647                  22378205.78145  22292908.9614   22292907.2734
 11  7 28  1 46  0.0000000  0  8G17G02G04G09G27G12G10G05
   9297467.34447   7271985.23145  22904998.6954   22904997.6524   10736747.57448
   8393204.88347                  20459608.5394                   20459604.0784
   9692009.89547   7581578.42546  21249810.7114   21249809.0124   28404627.05546
  22159294.59144                  23369258.1254   23369258.2424   21598139.52046
  16854442.01043                  23633304.6884   23633305.2504   21956806.52347
                                  17134472.11746  21442229.9304   21442227.3054
  15977995.64148                  12475417.21546  20792795.2584   20792793.1134
  28552586.11347                  22276124.97345  22267979.3054   22267978.2074
 11  7 28  1 46 30.0000000  0  8G17G02G04G09G27G12G10G05
   9316148.15247   7286541.70945  22908553.7194   22908552.4534   10695756.08648
   8361263.49347                  20451807.9534                   20451803.2424
   9730548.01647   7611608.11746  21257144.1954   21257142.7734   28447860.94547
  22192983.28444                  23377485.5944   23377484.5044   21627055.96546
  16876974.25743                  23638807.7664   23638808.0004   21858209.20348
                                  17057643.07946  21423468.0704   21423465.2074
  15927643.13348                  12436181.52946  20783213.5084   20783211.5634
  28421817.10247                  22174227.12146  22243094.8594   22243093.8134
 11  7 28  1 47  0.0000000  0  8G17G02G04G09G27G12G10G05
   9334975.92647   7301212.71845  22912135.7274   22912134.8404   10655078.34048
   8329566.58047                  20444066.8364                   20444062.6484
   9769273.66848   7641783.94146  21264513.5474   21264512.0274   28491306.32446
  22226836.82644                  23385752.9224   23385751.9064   21656078.74246
  16899589.37944                  23644330.2504   23644330.8054   21760014.00048
                                  16981127.35746  21404781.7504   21404779.0824
  15877908.64548                  12397427.41446  20773749.2894   20773747.3134
  28291290.21947                  22072517.93846  22218256.4924   22218255.4104
 11  7 28  1 47 30.0000000  0  8G17G02G04G09G27G12G10G05
   9353949.67647   7315997.49345  22915747.4924   22915745.8204   10614712.03148
   8298112.35447                  20436385.7664                   20436381.1414
   9808183.38348   7672103.21246  21271917.9694   21271916.6054   28534958.63747
  22260851.61244                  23394059.7424   23394059.1174   21685203.90247
  16922284.25944                  23649872.5634   23649872.7854   21662222.09448
                                  16904925.90246  21386172.7424   21386170.2154
  15828791.72748                  12359154.53046  20764402.5314   20764400.5474
  28161007.30947                  21970998.87146  22193464.2424   22193463.1764
 11  7 28  1 48  0.0000000  0  9G17G02G04G09G25G27G12G10G05
   9373068.03147   7330894.91845  22919385.1564   22919383.5744   10574654.14848
   8266898.44847                  20428762.8984                   20428758.3794
   9847273.18448   7702562.81346  21279356.4924   21279354.8284   28578811.96146
  22295023.05744                  23402404.1094   23402403.4064   42350169.35256
  33026595.77454                  24189643.5554   24189644.4264   21714426.47346
  16945055.01543                  23655433.9304   23655433.7114   21564834.09448
                                  16829039.16346  21367640.1644   21367637.8054
  15780291.20348                  12321361.93646  20755173.4224   20755171.1024
  28030968.87547                  21869670.31145  22168718.8134   22168717.4224
 11  7 28  1 48 30.0000000  0  9G17G02G04G09G25G27G12G10G05
  10967745.38747   8573500.67645  23222842.6174   23222841.2034   12110320.08648
   9463521.28647                  20720989.8754                   20720985.8244
  11461953.98848   8960755.66146  21586619.8054   21586618.0514   30198276.21547
  23556943.24144                  23710578.1414   23710577.1994   43789879.25846
  34148447.76244                  24463610.8984   24463612.3834   23319157.50447
  18195494.75343                  23960804.1334   23960804.6524   23043269.84848
                                  17981067.03846  21648977.2734   21648974.7234
  17307824.39548                  13511647.57746  21045853.3984   21045851.3134
  29476597.33247                  22996134.14045  22443812.7194   22443811.3404
 11  7 28  1 49  0.0000000  0  9G17G02G04G09G25G27G12G10G05
  10987141.02747   8588614.16444  23226533.5474   23226530.5044   12070862.93448
   9432775.48746                  20713481.9774                   20713477.3134
  11501383.68048   8991480.10346  21594123.2194                   21594121.4654
  30242508.12947                  23591409.63044  23718995.5944   23718994.5124
  43654300.50846  34042802.00943  24437811.0314   24437812.0234   23348553.17647
  18218400.41644                  23966397.9694   23966397.7774   22946682.57048
                                  17905804.24146  21630597.3444   21630594.8164
  17260545.75048                  13474807.09646  21036856.2814   21036854.1524
  29347043.69147                  22895183.32845  22419159.4224   22419158.3634
 11  7 28  1 49 30.0000000  0  9G17G02G04G09G25G27G12G10G05
  11006675.35247   8603835.73745  23230250.2664   23230249.1374   12031703.83648
   9402261.93346                  20706029.9844                   20706025.4694
  11540979.37148   9022333.91046  21601658.0164                   21601656.4574
  30286923.68047                  23626019.13544  23727447.5234   23727446.6564
  43518860.93846  33937264.71543  24412037.2584   24412038.7854   23378030.52047
  18241369.75744                  23972007.6334   23972007.3954   22850498.43848
                                  17830855.58446  21612293.7584   21612291.3204
  17213878.70747                  13438443.20646  21027975.8524   21027973.9104
  29217736.26247                  22794424.36546  22394553.1414   22394551.6094
 11  7 28  1 50  0.0000000  0  9G17G02G04G09G25G27G12G10G05
  11026352.40247   8619168.51144  23233994.6954   23233991.5434   11992845.55548
   9371982.78646                  20698635.7734                   20698631.0474
  11580742.93448   9053318.53046  21609224.4534                   21609222.8444
  30331523.17246                  23660772.00244  23735934.2344   23735933.6684
  43383566.97946  33831840.83743  24386292.1414   24386293.2774   23407590.66447
  18264403.63744                  23977632.1174   23977632.9104   22754723.79348
                                  17756226.01546  21594068.8524   21594066.0944
  17167827.81348                  13402559.42546  21019212.6564   21019210.6564
  29088681.65247                  22693862.41246  22369995.2194   22369993.5164
 11  7 28  1 50 30.0000000  0  9G17G02G04G09G25G27G12G10G05
  11046176.47346   8634615.84844  23237767.2114   23237765.6134   11954290.52748
   9341939.91847                  20691298.5784                   20691294.4654
  11620676.04748   9084435.23145  21616823.5554                   21616821.9534
  30376306.97346                  23695668.45344  23744456.2034   23744456.2384
  43248424.77046  33726535.18343  24360575.3594   24360576.2734   23437234.40647
  18287502.59944                  23983273.2894   23983273.4144   22659364.83648
                                  17681920.34146  21575922.5314   21575919.9104
  17122397.24648                  13367159.01846  21010567.6414   21010565.7814
  28959886.61747                  22593502.73346  22345485.6884   22345484.3834
 11  7 28  1 51  0.0000000  0  9G17G02G04G09G25G27G12G10G05
  11066152.19946   8650181.36144  23241568.1414   23241566.4224   11916042.14848
   9312136.00747                  20684020.0234                   20684016.0204
  11660780.22348   9115685.25846  21624455.3204                   21624453.4964
  30421275.50446                  23730708.84944  23753013.7664   23753013.6884
  43113440.85246  33621352.94244  24334888.6094   24334889.9774   23466962.91046
  18310667.62144                  23988930.8134   23988931.5474   22564427.95348
                                  17607943.57446  21557856.3754   21557853.7734
  17077591.74248                  13332245.65746  21002041.2734   21002039.0984
  28831357.82447                  22493350.51646  22321027.1804   22321026.2154
 11  7 28  1 51 30.0000000  0  9G17G02G04G09G25G27G12G10G05
  11086276.74647   8665862.83945  23245397.9774   23245395.8134   11878096.06648
   9282567.65447                  20676799.3914                   20676795.0904
  11701050.24248   9147064.50346  21632118.5314                   21632116.9774
  30466422.00446                  23765887.93344  23761604.4844   23761604.5744
  42978614.52046  33516293.43343  24309232.5784   24309232.9964   23496770.20347
  18333894.03944                  23994603.2194   23994602.9184   22469911.93848
                                  17534294.75346  21539870.3914   21539867.9694
  17033408.71148                  13297817.36646  20993633.4694   20993631.5084
  28703094.96547                  22393405.52346  22296619.6884   22296618.1844
 11  7 28  1 52  0.0000000  0  9G17G02G04G09G25G27G12G10G05
  11106550.13747   8681660.28045  23249256.3834   23249253.5434   11840450.62148
   9253233.56146                  20669635.3914                   20669631.3014
  11741483.61748   9178571.03446  21639812.7424                   21639811.1954
  30511742.26546                  23801202.36944  23770229.2424   23770228.9064
  42843947.75446  33411358.32443  24283605.9064   24283607.1484   23526652.77746
  18357179.12343                  24000289.3674   24000289.7034   22375818.53148
                                  17460975.24946  21521965.0474   21521962.7734
  16989848.35548                  13263874.25246  20985344.2894   20985342.4144
  28575100.41447                  22293669.58146  22272263.3284   22272261.2584
 11  7 28  1 52 30.0000000  0  9G17G02G04G09G25G27G12G10G05
  11126976.94947   8697577.27645  23253142.9844   23253141.3014   11803108.94148
   9224136.16947                  20662529.4844                   20662525.4614
  11782082.62148   9210206.64346  21647538.3204                   21647536.6484
  30557237.71146                  23836653.34744  23778886.6094   23778886.2154
  42709447.82046  33306553.12243  24258011.8284   24258012.4924   23556612.65246
  18380524.42443                  24005989.7974   24005991.5744   22282154.68448
                                  17387990.46546  21504141.5234   21504139.0044
  16946915.43448                  13230420.06046  20977174.3284   20977172.3554
  28447381.38347                  22194148.32046  22247958.6414   22247956.9184
 11  7 28  1 53  0.0000000  0  9G17G02G04G09G25G27G12G10G05
  11147555.66047   8713612.64045  23257058.9534   23257056.9884   11766068.14848
   9195273.22947                  20655480.8984                   20655476.8204
  11822843.24248   9241968.16846  21655294.8364                   21655293.0944
  30602902.61746                  23872236.34944  23787576.2424   23787576.3164
  42575115.03146  33201878.33243  24232448.8914   24232450.0514   23586644.78146
  18403925.98743                  24011705.1414   24011705.8484   22188920.28548
                                  17315340.31046  21486399.6954   21486396.7734
  16904608.57848                  13197453.71946  20969123.6334   20969121.4414
  28319938.93447                  22094842.59045  22223707.0634   22223705.7854
 11  7 28  1 53 30.0000000  0  9G17G02G04G09G25G27G12G10G05
  11168287.47347   8729767.29645  23261004.1094   23261002.3954   11729327.82448
   9166644.42947                  20648489.5864                   20648485.3324
  11863763.92648   9273854.41846  21663081.9224                   21663080.6684
  30648734.17646                  23907949.23944  23796297.8204   23796297.6024
  42440952.64846  33097336.24343  24206918.4144   24206919.0164   23616746.93846
  18427382.16043                  24017434.0314   24017434.0474   22096118.21947
                                  17243027.05346  21468740.0784   21468737.3444
  16862929.22748                  13164976.34146  20961192.0634   20961190.1914
  28192776.55547                  21995755.11445  22199509.3054   22199507.5634
 11  7 28  1 54  0.0000000  0  9G17G02G04G09G25G27G12G10G05
  11189173.30947   8746041.98845  23264978.5164   23264975.3874   11692887.03548
   9138249.02747                  20641555.0864                   20641550.6914
  11904842.98048   9305864.07145  21670898.9614                   21670897.1644
  30694729.43446                  23943789.68944  23805049.4144   23805050.2704
  42306963.52746  32992929.23644  24181421.2424   24181422.2154   23646916.57446
  18450890.91843                  24023175.5474   24023175.1414   22003751.41048
                                  17171052.95746  21451163.2344   21451160.5864
  16821878.28147                  13132988.61946  20953380.2734   20953378.8204
  28065897.24247                  21896888.19546  22175364.8984   22175362.9304
 11  7 28  1 54 30.0000000  0  9G17G02G04G09G25G27G12G10G05
  11210215.03147   8762438.14745  23268982.5394   23268980.9454   11656746.52347
   9110087.61847                  20634677.7504                   20634673.5514
  11946079.92248   9337996.76946  21678745.8134                   21678744.4654
  30740886.47346                  23979756.13644  23813833.4384   23813834.1054
  42173152.06647  32888660.70444  24155957.7584   24155958.8094   23677152.62546
  18474451.40343                  24028928.0704   24028929.3014   21911823.57448
                                  17099420.92646  21433669.8754   21433667.1604
  16781457.53548                  13101491.95246  20945688.6884   20945686.9224
  27939305.91447                  21798245.68646  22151274.9844   22151273.5634
 11  7 28  1 55  0.0000000  0  9G17G02G04G09G25G27G12G10G05
  11231411.05147   8778954.51644  23273015.7894   23273013.6884   11620903.18448
   9082157.76147                  20627857.1484                   20627852.9344
  11987470.84448   9370249.44745  21686622.4614                   21686620.9654
  30787199.68846                  24015844.31244  23822647.3054   23822647.1254
  42039518.69147  32784531.03144  24130527.8444   24130528.8324   23707450.49946
  18498059.99143                  24034694.0314   24034694.8954   21820334.76648
                                  17028130.96446  21416260.0234   21416257.4454
  16741665.38348                  13070485.10446  20938116.4384   20938114.4964
  27813003.16047                  21699828.02846  22127240.5234   22127238.7424
 11  7 28  1 55 30.0000000  0  9G17G02G04G09G25G27G12G10G05
  11252762.40647   8795591.93445  23277079.0634   23277077.5514   11585356.46548
   9054459.02247                  20621092.7664                   20621088.7774
  12029014.02048   9402620.75445  21694527.8204                   21694526.1374
  30833666.34447                  24052052.06744  23831489.0784   23831489.2814
  41906066.39546  32680542.37544  24105132.6884   24105133.5784   23737807.66046
  18521714.90543                  24040471.3134   24040470.6414   21729287.82848
                                  16957185.32846  21398934.1954   21398931.6684
  16702502.96547                  13039968.96746  20930664.1334   20930661.9494
  27686992.27047                  21601637.79546  22103261.3524   22103259.6524
 11  7 28  1 56  0.0000000  0  9G17G02G04G09G25G27G12G10G05
  11274267.69146   8812349.29245  23281171.6334   23281169.6374   11550103.45348
   9026989.16047                  20614384.6334                   20614379.7194
  12070705.66848   9435107.75846  21702461.6954                   21702459.9734
  30880281.03547                  24088375.13844  23840360.3754   23840359.4024
  41772796.01246  32576695.51444  24079771.6884   24079772.8164   23768219.73446
  18545412.57144                  24046258.1724   24046258.8094   21638683.49648
                                  16886584.58346  21381692.8204   21381690.1174
  16663969.13348                  13009942.63346  20923331.5784   20923329.0234
  27561274.57047                  21503676.03846  22079337.8364   22079336.6454
 11  7 28  1 56 30.0000000  0  9G17G02G04G09G25G27G12G10G05
  11295926.35247   8829226.17345  23285293.0634   23285291.5704   11515141.78547
   8999746.32047                  20607731.3284                   20607727.2814
  12112542.70348   9467708.03946  21710423.1724                   21710420.9924
  30927039.32047                  24124810.11244  23849257.5314   23849257.3284
  41639709.05947  32472991.57943  24054446.2114   24054448.0824   23798682.69546
  18569149.84043                  24052054.5004   24052055.5904   21548522.49248
                                  16816329.27946  21364535.6564   21364533.1884
  16626062.56648                  12980405.07546  20916117.6954   20916115.5824
  27435851.73847                  21405944.03546  22055470.3914   22055469.2424
 11  7 28  1 57  0.0000000  0  9G17G02G04G09G25G27G12G10G05
  11317739.62546   8846223.53145  23289444.0864   23289442.6054   11480471.27347
   8972730.35147                  20601133.7974                   20601129.5664
  12154524.04748   9500420.77145  21718411.5554                   21718409.8794
  30973938.92647                  24161355.19644  23858181.8134   23858182.4144
  41506808.92646  32369433.14644  24029156.3204   24029157.0004   23829194.64146
  18592925.23743                  24057861.3914   24057862.8984   21458808.25448
                                  16746422.11946  21347463.6724   21347461.1334
  16588784.59048                  12951357.34246  20909023.8914   20909021.8284
  27310727.18047                  21308444.44346  22031660.3984   22031658.4964
 11  7 28  1 57 30.0000000  0  9G17G02G04G09G25G27G12G10G05
  11339708.26647   8863341.94945  23293624.3594   23293623.0664   11446091.35547
   8945940.82547                  20594591.4614                   20594587.1024
  12196647.91448   9533244.57145  21726427.4924                   21726426.0394
  31020976.68047                  24198007.95444  23867133.7034   23867133.1094
  41374098.70747  32266022.73644  24003901.4144   24003903.3484   23859753.18846
  18616737.06943                  24063677.5474   24063676.9774   21369543.13348
                                  16676864.89946  21330477.2424   21330473.9454
  16552135.90247                  12922799.95346  20902050.0784   20902047.5434
  27185904.48447                  21211180.07446  22007907.2504   22007905.5554
 11  7 28  1 58  0.0000000  0  9G17G02G04G09G25G27G12G10G05
  11361837.72747   8880585.66445  23297835.6414   23297834.3094   11412005.89547
   8919380.72947                  20588105.2894                   20588101.1334
  12238917.25448   9566181.72945  21734471.1484                   21734469.3484
  31068153.71147                  24234769.18044  23876110.9614   23876110.9884
  41241585.72347  32162765.97744  23978685.3134   23978686.2934   23890360.45346
  18640586.87943                  24069501.5004   24069501.1604   21280733.79748
                                  16607662.84646  21313577.1804   21313574.6604
  16516121.89547                  12894737.11546  20895196.6414   20895194.5514
  27061391.37947                  21114156.94946  21984212.9694   21984211.6174
 11  7 28  1 58 30.0000000  0  9G17G02G04G09G25G27G12G10G05
  11384122.57047   8897950.48945  23302076.7274   23302075.4184   11378207.80148
   8893044.58647                  20581673.7034                   20581669.2734
  12281324.22748   9599226.12845  21742540.8204                   21742539.4384
  31115461.18847                  24271632.10244  23885113.7814   23885113.0554
  41109266.74247  32059660.36744  23953506.1724   23953507.2934   23921007.81346
  18664467.83343                  24075333.3444   24075333.5314   21192376.99248
                                  16538813.41046  21296763.2504   21296760.7274
  16480737.14547                  12867164.60146  20888463.1484   20888460.9694
  26937184.67247                  21017372.57346  21960577.4224   21960575.6294
 11  7 28  1 59  0.0000000  0  9G17G02G04G09G25G27G12G10G05
  11406562.59847   8915436.23444  23306346.1334   23306344.4384   11344695.71548
   8866931.28747                  20575296.3204                   20575292.1214
  12323866.53148   9632375.98045  21750636.2034                   21750634.7074
  31162895.39547                  24308593.74944  23894139.9304   23894139.3954
  40977144.22747  31956707.83244  23928363.6254   23928365.1884   23951692.20346
  18688377.69043                  24081172.5704   24081172.2894   21104474.54748
                                  16470318.02046  21280036.2664   21280033.4494
  16445981.21947                  12840082.10546  20881849.1804   20881846.8054
  26813286.83647                  20920828.88146  21936999.9144   21936998.6094
 11  7 28  1 59 30.0000000  0  9G17G02G04G09G25G27G12G10G05
  11429162.95347   8933046.88145  23310646.9614   23310645.6334   11311472.73848
   8841043.28247                  20568974.3054                   20568969.8204
  12366546.71148   9665633.26845  21758758.2814                   21758756.5664
  31210457.15247                  24345654.80843  23903190.6644   23903189.7344
  40845225.07047  31853913.74544  23903260.3674   23903261.4574   23982415.52346
  18712317.86243                  24087019.1884   24087018.7664   21017033.02048
                                  16402181.78046  21263396.6724   21263394.0164
  16411858.78147                  12813493.21546  20875356.0864   20875353.6454
  26689705.16447                  20824531.53646  21913483.6884   21913481.9064
 11  7 28  2  0  0.0000000  0  9G17G02G04G09G25G27G12G10G05
  11451923.28546   8950782.19544  23314978.1334   23314976.3874   11278537.14847
   8815379.21847                  20562706.7424                   20562702.3094
  12409361.86348   9698995.71745  21766905.7344                   21766904.2384
  31258142.11347                  24382811.90444  23912265.1884   23912264.4264
  40713511.20747  31751279.57544  23878196.3054   23878196.7464   24013174.12546
  18736285.56543                  24092871.9844   24092872.2034   20930054.01648
                                  16334405.94746  21246844.9224   21246842.1684
  16378369.10948                  12787397.39246  20868983.0394   20868980.6094
  26566441.62547                  20728482.09646  21890027.0784   21890025.6604
 11  7 28  2  0 30.0000000  0  9G17G02G04G09G25G27G12G10G05
  11474845.25047   8968643.47644  23319339.8284   23319337.5164   11245889.40248
   8789939.44647                  20556494.2894                   20556489.9264
  12452311.68848   9732463.11945  21775078.9064                   21775076.9574
  31305948.59447                  24420063.67444  23921362.3284   23921361.4024
  40582006.68447  31648808.52344  23853171.6334   23853172.1844   24043966.60946
  18760279.67843                  24098731.4694   24098732.6024   20843540.64548
                                  16266992.94346  21230381.9614   21230379.3634
  16345513.68848                  12761795.78946  20862731.0164   20862728.5164
  26443500.74247                  20632684.07446  21866632.1564   21866630.6724
 11  7 28  2  1  0.0000000  0  9G17G02G04G09G25G27G12G10G05
  11497925.27747   8986627.89944  23323731.9304   23323730.0394   11213523.61348
   8764719.38247                  20550335.3364                   20550330.6914
  12495389.82448   9766030.48045  21783276.5474                   21783274.6374
  31353868.69546                  24457404.01344  23930481.1724   23930481.2114
  40450709.75447  31546499.22144  23828187.0164   23828187.5704   24074785.73046
  18784294.52343                  24104596.7424   24104596.7624   20757490.46548
                                  16199940.85946  21214007.5864   21214004.5554
  16313288.48848                  12736685.26146  20856598.5084   20856596.1724
  26320880.74247                  20537136.08446  21843298.2424   21843296.6414
 11  7 28  2  1 30.0000000  0  9G17G02G04G09G25G27G12G10G05
  11521164.24647   9004736.17544  23328154.8054   23328151.5394   11181440.05148
   8739719.22547                  20544229.8834                   20544225.5204
  12538595.33648   9799697.11945  21791498.1254                   21791496.0274
  31401900.32846                  24494831.22444  23939621.0234   23939620.6414
  40319624.06647  31444354.49244  23803241.8444   23803242.3594   24105629.89546
  18808328.82743                  24110465.8054   24110466.4454   20671907.12148
                                  16133252.55046  21197721.2424   21197718.5044
  16281694.62548                  12712066.68646  20850586.7114   20850584.2154
  26198585.20347                  20441840.92146  21820026.1024   21820024.3014
 11  7 28  2  2  0.0000000  0  9G17G02G04G09G25G27G12G10G05
  11544562.34846   9022968.47644  23332606.6024   23332604.4884   11149636.71548
   8714937.43447                  20538177.7424                   20538173.2704
  12581925.54748   9833460.92745  21799743.6024                   21799741.7894
  31450039.31646                  24532342.08743  23948781.4774   23948780.9884
  40188751.71947  31342376.05444  23778338.0004   23778338.4844   24136495.81646
  18832380.08843                  24116339.3754   24116340.8364   20586791.78948
                                  16066928.93546  21181524.4304   21181521.6914
  16250731.47348                  12687939.58546  20844694.7114   20844692.2814
  26076616.83647                  20346800.69946  21796816.5784   21796814.6374
 11  7 28  2  2 30.0000000  0  9G17G02G04G09G25G27G12G10G05
  11568120.27347   9041325.27944  23337090.3984   23337088.1294   11118113.10248
   8690373.62347                  20532179.3054                   20532174.5234
  12625379.19148   9867320.90145  21808012.3984                   21808010.2154
  31498282.60946                  24569934.22144  23957961.5864   23957961.8984
  40058095.68447  31240566.16844  23753474.8364   23753475.4024   24167381.18045
  18856446.55243                  24122216.5944   24122218.2304   20502146.95748
                                  16000971.95046  21165417.0474   21165414.1564
  16220399.54347                  12664304.33646  20838922.4064   20838919.6524
  25954978.81647                  20252017.87546  21773669.7424   21773667.7464
 11  7 28  2  3  0.0000000  0  9G17G02G04G09G25G27G12G10G05
  11591837.85246   9059806.52044  23341603.1334   23341601.1134   11086867.29348
   8666026.25747                  20526233.2584                   20526228.7344
  12668953.57848   9901274.98245  21816304.3444                   21816302.2344
  31546626.13747                  24607604.52444  23967161.2424   23967161.4614
  39927658.14147  31138926.53844  23728653.3054   23728653.6254   24198282.50446
  18880525.41343                  24128097.6804   24128098.6844   20417974.19948
                                  15935382.80546  21149399.3674   21149396.4454
  16190698.02348                  12641160.32646  20833270.2894   20833268.0554
  25833672.99247                  20157493.92346  21750585.5084   21750584.2504
 11  7 28  2  3 30.0000000  0  9G17G02G04G09G25G27G12G10G05
  11615718.39546   9078414.72644  23346147.2974   23346144.8324   11055900.87548
   8641896.60647                  20520340.5864                   20520335.8594
  12712649.43048   9935323.70745  21824619.9614                   21824617.2114
  31595069.14146                  24645352.26544  23976379.5944   23976379.6024
  39797444.19147  31037461.14444  23703874.1564   23703874.9654   24229199.58246
  18904616.57243                  24133980.7974   24133981.3164   20334277.94148
                                  15870164.95146  21133472.5554   21133469.6914
  16161629.63348                  12618509.64546  20827738.8674   20827736.3714
  25712704.75847                  20063233.03646  21727566.2034   21727564.1094
 11  7 28  2  4  0.0000000  0  9G17G02G04G09G25G27G12G10G05
  11639761.36346   9097149.54144  23350722.7274   23350720.6294   11025212.51648
   8617983.62647                  20514500.5634                   20514496.1054
  12756464.66048   9969465.46045  21832957.0554                   21832955.1954
  31643608.42246                  24683175.06744  23985616.3674   23985616.9884
  39667456.42647  30936172.05644  23679138.2894   23679139.0984   24260129.77746
  18928717.93843                  24139866.4614   24139867.0274   20251060.57848
                                  15805320.27046  21117636.8284   21117634.0314
  16133193.95748                  12596352.01446  20822327.7114   20822325.2504
  25592076.84447                  19969237.32646  21704611.3054   21704609.4224
 11  7 28  2  4 30.0000000  0  9G17G02G04G09G25G27G12G10G05
  11663966.91046   9116011.01444  23355328.3984   23355326.8914   10994800.59848
   8594286.06847                  20508713.5864                   20508709.1564
  12800396.96148  10003698.40545  21841317.1254                   21841315.4104
  31692239.69546                  24721069.52644  23994870.5004   23994870.6054
  39537696.87547  30835060.72544  23654445.7664   23654446.6644   24291069.62146
  18952826.83344                  24145755.0164   24145754.7624   20168322.77348
                                  15740849.27346  21101892.3444   21101889.4454
  16105390.49648                  12574687.00546  20817037.0704   20817034.4344
  25471791.37147                  19875508.43846  21681721.3674   21681720.0084
 11  7 28  2  5  0.0000000  0  9G17G02G04G09G25G27G12G10G05
  11688336.69946   9135000.45744  23359965.8204   23359964.1684   10964665.18848
   8570803.94747                  20502978.6724                   20502974.1644
  12844445.56348  10038021.97845  21849699.2894                   21849697.3054
  31740960.82446                  24759033.97144  24004142.4144   24004142.8204
  39408169.25047  30734130.22844  23629798.2274   23629798.2114   24322017.73446
  18976942.17344                  24151643.7504   24151644.8244   20086068.06648
                                  15676754.72346  21086239.7194   21086236.9264
  16078219.96948                  12553515.18046  20811866.6094   20811863.7704
  25351852.00447                  19782049.27546  21658897.9694   21658896.1524
 11  7 28  2  5 30.0000000  0  9G17G02G04G09G25G27G12G10G05
  11712868.61346   9154116.23244  23364634.2584   23364632.8714   10934802.64148
   8547534.45347                  20497296.2034                   20497291.7704
  12888606.26248  10072432.93545  21858103.1024                   21858101.0704
  31789766.34046                  24797064.17344  24013429.2894   24013429.7304
  39278873.95747  30633380.73844  23605193.2584   23605194.5164   24352968.92246
  19001059.98644                  24157533.8524   24157534.1884   20004296.09448
                                  15613036.32546  21070679.3054   21070676.1914
  16051680.07448                  12532834.76446  20806816.0004   20806813.4344
  25232259.56348                  19688860.41446  21636140.4694   21636138.5434
 11  7 28  2  6  0.0000000  0  8G17G02G04G09G25G12G10G05
  11737563.07446   9173358.68344  23369334.0394   23369331.1334   10905211.66448
   8524476.58247                  20491664.8284                   20491660.5944
  12932877.30147  10106929.85145  21866526.9844                   21866525.6024
  31838652.77746                  24835157.48344  24022732.4614   24022732.3134
  39149813.63747  30532814.36044  23580633.7114   23580635.3364   19923008.91448
                                  15549695.69246  21055210.2344   21055207.7234
  16025770.90248                  12512645.82946  20801886.1564   20801883.2154
  25113016.47748                  19595943.79246  21613449.0314   21613446.8754
 11  7 28  2  6 30.0000000  0  8G17G02G04G09G25G12G10G05
  11762426.06346   9192732.46544  23374064.7814   23374063.0354   10875896.72748
   8501633.79247                  20486086.6174                   20486082.1914
  12977261.98448  10141515.32945  21874973.5864                   21874971.5634
  31887622.09446                  24873315.34744  24032050.9694   24032051.1564
  39020996.30147  30432437.32144  23556121.2584   23556121.7584   19842213.78148
                                  15486738.48346  21039835.7814   21039832.9654
  16000497.36748                  12492952.18246  20797076.2274   20797074.0474
  24994131.00448                  19503305.82146  21590825.7664   21590823.9384
 11  7 28  2  7  0.0000000  0  8G17G02G04G09G25G12G10G05
  11787460.79746   9212240.03944  23378829.1484   23378827.2344   10846859.62948
   8479007.51047                  20480561.1804                   20480556.3594
  13021761.75448  10176190.46945  21883441.6884                   21883439.7194
  31936674.06646                  24911537.62343  24041385.4304   24041385.1844
  38892427.68847  30332254.08444  23531655.2274   23531656.0704   19761915.53948
                                  15424168.46246  21024555.3524   21024552.6414
  15975862.00048                  12473755.81646  20792388.4844   20792386.3554
  24875608.81347                  19410950.93046  21568271.5634   21568270.1174
 11  7 28  2  7 30.0000000  0  8G17G02G04G09G25G12G10G05
  11812673.25446   9231886.11844  23383625.8204   23383624.8554   10818104.71948
   8456601.11647                  20475089.1644                   20475084.6564
  13066380.32848  10210958.18545  21891932.1804                   21891930.3914
  31985810.80546                  24949825.92043  24050735.8284   24050735.7154
  38764115.90247  30232270.99044  23507238.2194   23507239.0124   19682121.78148
                                  15361991.53646  21009371.1564   21009368.3554
  15951870.27748                  12455060.99646  20787822.9694   20787820.6414
  24757458.09447                  19318885.49246  21545788.2974   21545786.5704
 11  7 28  2  8  0.0000000  0  8G17G02G04G09G25G12G10G05
  11838061.94146   9251669.50644  23388458.2664   23388456.3634   10789629.18848
   8434412.40546                  20469670.4144                   20469665.8984
  13111113.90248  10245815.52545  21900444.4694                   21900442.6844
  32035027.47347                  24988176.53043  24060102.0084   24060101.4024
  38636061.89547  30132488.75244  23482870.5004   23482871.1374   19602832.75848
                                  15300207.91046  20994282.8444   20994280.1844
  15928520.13748                  12436866.11146  20783379.5084   20783377.1254
  24639679.87547                  19227110.31646  21523375.6954   21523374.0664
 11  7 28  2  8 30.0000000  0  8G17G02G04G09G25G12G10G05
  11863619.38346   9271584.39844  23393321.5944   23393319.9844   10761424.09448
   8412434.44646                  20464303.0944                   20464298.3484
  13155952.79748  10280754.93145  21908977.3674                   21908975.0234
  32084312.94946                  25026580.72743  24069480.6484   24069479.7584
  38508260.41847  30032903.28244  23458550.4224   23458551.0744   19524042.30948
                                  15238812.79246  20979289.3444   20979286.8364
  15905803.49248                  12419164.85946  20779056.6884   20779054.3364
  24522268.91847                  19135621.31246  21501033.3134   21501030.8984
 11  7 28  2  9  0.0000000  0  8G17G02G04G09G25G12G10G05
  11889343.85547   9291629.42744  23398216.8984   23398214.7344   10733485.84848
   8390664.38947                  20458986.5234                   20458982.2344
  13200893.18847  10315773.40745  21917528.7114                   21917526.7034
  32133661.45747                  25065034.02243  24078871.6644   24078871.0864
  38380711.69947  29933514.73144  23434278.6254   23434279.4534   19445749.92648
                                  15177805.77246  20964391.0164   20964388.1884
  15883717.36348                  12401954.91446  20774853.6254   20774851.4384
  24405225.61347                  19044418.79246  21478760.4774   21478758.6884
 11  7 28  2  9 30.0000000  0  8G17G02G04G09G25G12G10G05
  11915238.38347   9311806.98344  23403144.4064   23403142.7304   10705815.96148
   8369103.46947                  20453721.2344                   20453716.7114
  13245936.14147  10350871.80745  21926100.6334                   21926098.5944
  32183072.71947                  25103536.29044  24088273.9844   24088273.5514
  38253421.64547  29834327.75544  23410056.1954   23410056.7934   19367960.84848
                                  15117190.94346  20949588.2274   20949585.2504
  15862264.60248                  12385238.50646  20770771.2194   20770768.9804
  24288555.95347                  18953507.42346  21456559.0314   21456556.9144
 11  7 28  2 10  0.0000000  0  8G17G02G04G09G25G12G10G05
  11941299.98456   9332114.71054  23408104.1024   23408102.4884   10678410.69548
   8347748.74247                  20448505.9304                   20448501.4574
  13291077.01647  10386046.51745  21934690.5634                   21934688.7194
  32232540.42247                  25142082.49744  24097687.1804   24097687.0274
  38126389.77347  29735341.91844  23385882.6564   23385883.1994   19290673.57848
                                  15056967.12946  20934880.9694   20934878.3834
  15841441.75848                  12369012.94246  20766809.0084   20766806.7384
  24172258.81648                  18862886.34346  21434428.0474   21434426.6024
 11  7 28  2 10 30.0000000  0  8G17G02G04G09G25G12G10G05
  11967525.49647   9352550.17644  23413094.0164   23413091.9924   10651265.05548
   8326596.31346                  20443340.7584                   20443336.1644
  13336310.05547  10421293.03645  21943298.0554                   21943296.3404
  32282057.54747                  25180667.20443  24107109.9064   24107109.7894
  37999614.95347  29636556.40244  23361758.4614   23361758.8554   19213886.11348
                                  14997132.76846  20920268.7504   20920265.7194
  15821244.44948                  12353274.81746  20762965.7274   20762963.2504
  24056333.77348                  18772555.18746  21412368.2504   21412366.4224
 11  7 28  2 11  0.0000000  0  8G17G02G04G09G25G12G10G05
  11993914.79746   9373113.24044  23418115.9844   23418114.8594   10624377.56348
   8305645.05146                  20438223.9844                   20438219.3954
  13381633.24647  10456609.80645  21951922.7504                   21951920.9264
  32331620.33247                  25219287.52043  24116541.9614   24116541.7114
  37873099.41447  29537972.87844  23337682.8134   23337683.1994   19137599.91848
                                  14937689.00546  20905752.2034   20905749.1374
  15801671.78148                  12338023.42746  20759240.4924   20759238.7154
  23940782.74248                  18682515.48846  21390379.7814   21390378.0314
 11  7 28  2 11 30.0000000  0  8G17G02G04G09G25G12G10G05
  13595892.00447  10621407.16245  23722962.2734   23722960.1914   12173171.98448
   9512497.86747                  20732949.6564                   20732945.1844
  15002467.68047  11719597.67445  22260357.0394                   22260355.3874
  33956648.32447                  26485543.12043  24425774.0234   24425773.9694
  39322274.50847  30667200.28544  23613451.7194   23613451.8794   20637243.71148
  16106242.63846                  21191124.4064   21191121.6054   17358148.56348
  13550862.51746                  21055428.2894   21055426.1954   25401036.64147
                                  19820375.72246  21668256.9844   21668254.9654
 11  7 28  2 12  0.0000000  0  8G17G02G04G09G25G12G10G05
  13622619.87546  10642234.08444  23728048.6804   23728045.8324   12146806.53548
   9491953.39047                  20727932.5554                   20727927.7424
  15047975.72347  11755058.49645  22269017.0394                   22269015.3484
  34006302.43046                  26524234.56343  24435222.7974   24435223.0474
  39196295.44147  30569034.78244  23589478.6484   23589478.7034   20561975.20748
  16047591.88546                  21176801.1804   21176798.8164   17339833.74248
  13536591.25046                  21051943.2424   21051941.1484   25286251.34448
                                  19730932.68346  21646413.8674   21646411.9844
 11  7 28  2 12 30.0000000  0  8G17G02G04G09G25G12G10G05
  13649520.91447  10663195.90544  23733167.5784   23733165.9454   12120703.89548
   9471613.68746                  20722965.4304                   20722960.7234
  15093576.76247  11790591.76745  22277695.1644                   22277693.4844
  34056000.55946                  26562960.34543  24444680.1484   24444680.0664
  39070591.89547  30471084.05244  23565558.4064   23565558.5204   20487221.78148
  15989342.49346                  21162576.3984   21162573.5044   17322150.32848
  13522812.00046                  21048578.1884   21048575.9024   25171856.25848
                                  19641793.71446  21624645.3134   21624643.4844
 11  7 28  2 13  0.0000000  0  8G17G02G04G09G25G12G10G05
  13676589.28947  10684288.15644  23738317.6954   23738316.6954   12094856.62148
   9451472.97947                  20718046.8914                   20718042.2074
  15139263.02347  11826191.45945  22286389.1334                   22286387.1214
  34105733.68846                  26601713.40143  24454143.8524   24454144.1564
  38945160.49647  30373345.29744  23541689.9064   23541690.2664   20412978.89148
  15931490.92646                  21148448.2814   21148445.6024   17305091.52748
  13509519.46846                  21045331.9224   21045329.9184   25057847.75048
                                  19552955.96646  21602949.8284   21602947.6564
 11  7 28  2 13 30.0000000  0  8G17G02G04G09G25G12G10G05
  13703824.90247  10705510.69744  23743500.6884   23743499.2734   12069263.44148
   9431530.25547                  20713176.4064                   20713171.6254
  15185032.61347  11861856.05645  22295098.3204                   22295096.8284
  34155497.83646                  26640490.56743  24463613.3204   24463614.5864
  38820003.44947  30275820.39344  23517872.8594   23517872.6174   20339247.75448
  15874038.12746                  21134417.7194   21134415.0274   17288656.20748
  13496712.74246                  21042204.6484   21042202.5124   24944228.09448
                                  19464421.21846  21581328.8524   21581326.9224
 11  7 28  2 14  0.0000000  0  8G17G02G04G09G25G12G10G05
  13731230.32447  10726865.55744  23748716.0234   23748714.4494   12043925.53548
   9411786.44747                  20708354.8984                   20708350.5004
  15230886.27747  11897586.20345  22303823.6334                   22303822.2664
  34205292.15646                  26679291.30543  24473089.0084   24473089.2664
  38695126.00447  30178513.34644  23494109.3984   23494109.8714   20266032.82448
  15816987.56646                  21120485.7424   21120482.6914   17272846.44948
  13484393.48546                  21039196.0004   21039193.8484   24831002.32448
                                  19376193.40046  21559782.7664   21559780.5474
 11  7 28  2 14 30.0000000  0  8G17G02G04G09G25G12G10G05
  13758803.37947  10748351.07844  23753963.1484   23753960.9884   12018839.06348
   9392238.56947                  20703581.1174                   20703576.4734
  15276819.53947  11933378.35545  22312564.6954                   22312563.1414
  34255110.82446                  26718111.01143  24482569.7114   24482569.0984
  38570528.03147  30081424.04745  23470398.5864   23470399.4844   20193332.69948
  15760338.14046                  21106651.2344   21106648.0274   17257658.49648
  13472558.73446                  21036305.7194   21036303.9104   24718170.19948
                                  19288272.31346  21538311.6094   21538309.1414
 11  7 28  2 15  0.0000000  0  8G17G02G04G09G25G12G10G05
  13786546.57047  10769969.14944  23759241.9304   23759240.0474   11994005.11348
   9372887.45747                  20698855.2894                   20698850.7584
  15322832.88347  11969232.91345  22321320.4144                   22321318.6414
  34304953.01246                  26756949.01543  24492054.2344   24492054.9654
  38446214.54347  29984556.48945  23446743.1024   23446743.5084   20121151.70348
  15704093.22946                  21092915.3524   21092912.5434   17243094.07048
  13461209.85546                  21033534.2194   21033531.9804   24605736.74248
                                  19200661.86846  21516916.3674   21516914.1134
 11  7 28  2 15 30.0000000  0  8G17G02G04G09G25G12G10G05
  13814458.79747  10791718.90344  23764553.3914   23764551.7304   11969420.90648
   9353730.96846                  20694177.0394                   20694172.3794
  15368923.62547  12005147.77845  22330090.9844                   22330089.2424
  34354814.16846                  26795801.79043  24501542.2274   24501543.6134
  38322186.89147  29887911.60945  23423141.6484   23423141.7274   20049489.85548
  15648252.85346                  21079278.6484   21079275.8524   17229151.28948
  13450345.37246                  21030881.2034   21030878.8134   24493703.08248
                                  19113362.95146  21495596.8914   21495594.8094
 11  7 28  2 16  0.0000000  0  8G17G02G04G09G25G12G10G05
  13842547.81346  10813606.44644  23769898.6334   23769897.5314   11945092.53148
   9334773.80847                  20689547.5704                   20689542.9804
  15415096.76247  12041126.82945  22338877.9774                   22338876.0664
  34404698.00846                  26834672.22643  24511035.3524   24511035.6254
  38198454.62147  29791496.94045  23399595.6954   23399596.3634   19978356.23448
  15592824.08546                  21065742.6724   21065739.4844   17215836.41848
  13439970.17146                  21028347.3364   21028345.3984   24382078.25448
                                  19026382.61546  21474355.1174   21474353.1254
 11  7 28  2 16 30.0000000  0  8G17G02G04G09G25G12G10G05
  13870806.53147  10835626.20244  23775276.8204   23775274.1174   11921011.92648
   9316009.71347                  20684965.3444                   20684960.4384
  15461344.59847  12077164.11045  22347678.6174                   22347676.7384
  34454594.78946                  26873552.74943  24520530.7194   24520530.2274
  38075013.88747  29695309.42945  23376105.6094   23376106.2504   19907745.44148
  15537802.71946                  21052305.7114   21052302.6024   17203141.84048
  13430078.32146                  21025931.6644   21025929.1524   24270859.31648
                                  18939718.55246  21453190.9694   21453188.6884
 11  7 28  2 17  0.0000000  0  8G17G02G04G09G25G12G10G05
  13899238.64546  10857781.10644  23780686.5314   23780684.8984   11897181.43848
   9297440.51646                  20680430.3134                   20680425.8094
  15507668.08247  12113260.34145  22356493.6414                   22356491.6294
  34504504.09046                  26912443.04544  24530028.2504   24530028.6804
  37951870.27047  29599353.43445  23352672.1804   23352672.2624   19837662.14848
  15483192.38646                  21038969.1334   21038966.3484   17191069.69948
  13420671.47046                  21023634.3754   21023632.2464   24160050.93048
                                  18853374.39646  21432104.5704   21432102.3364
 11  7 28  2 17 30.0000000  0  8G17G02G04G09G25G12G10G05
  13927843.26646  10880070.40244  23786129.9304   23786128.8714   11873598.68047
   9279064.37746                  20675942.9304                   20675938.0004
  15554064.46547  12149413.37345  22365322.6094                   22365320.6564
  34554421.97346                  26951340.01644  24539527.0314   24539527.6684
  37829025.41046  29503630.24645  23329294.9694   23329295.6134   19768107.12147
  15428993.69246                  21025733.1804   21025730.3364   17179618.24647
  13411748.28746                  21021455.3524   21021453.0744   24049654.59047
                                  18767351.32846  21411097.0234   21411094.5664
 11  7 28  2 18  0.0000000  0  8G17G02G04G09G25G12G10G05
  13956620.30946  10902494.04344  23791606.8674   23791604.7974   11850262.11748
   9260880.05047                  20671501.8364                   20671497.4344
  15600532.07847  12185621.91245  22374164.6334                   22374163.5864
  34604344.91846                  26990240.93444  24549027.9304   24549027.6724
  37706481.73447  29408141.75145  23305975.7974   23305976.4734   19699081.59848
  15375207.59046                  21012598.3284   21012594.7814   17168786.41848
  13403307.92346                  21019394.2344   21019391.6414   23939672.68448
                                  18681651.17846  21390167.6954   21390165.6644
 11  7 28  2 18 30.0000000  0  7G17G02G04G25G12G10G05
  13985570.55146  10925052.64944  23797115.6024   23797114.2854   11827170.87548
   9242886.90246                  20667107.6884                   20667103.2304
  15647069.62947  12221884.94145  22383021.3054                   22383019.6884
  37584242.06647  29312890.13144  23282714.8134   23282715.1054   19630586.99248
  15321835.19746                  20999563.6804   20999560.9844   17158573.28548
  13395349.65946                  21017450.7194   21017448.0084   23830107.98448
                                  18596276.12646  21369318.4384   21369316.2934
 11  7 28  2 19  0.0000000  0  7G17G02G04G25G12G10G05
  14014692.34847  10947744.98444  23802657.7034   23802655.7304   11804322.28948
   9225082.82647                  20662759.8444                   20662754.7854
  15693673.85947  12258199.92845  22391889.5864                   22391887.4884
  37462307.57847  29217876.34444  23259511.1254   23259511.5864   19562623.62548
  15268876.75246                  20986630.7274   20986627.8094   17148976.71948
  13387871.84046                  21015624.2894   21015622.0594   23720961.12548
                                  18511226.67646  21348548.4844   21348546.5044
 11  7 28  2 19 30.0000000  0  7G17G02G04G25G12G10G05
  14043995.14146  10970578.26544  23808233.2114   23808231.3444   11781724.02348
   9207473.81146                  20658459.5944                   20658454.7814
  15740352.00847  12294572.51945  22400772.1094                   22400769.7854
  37340689.68847  29123109.20944  23236368.0554   23236368.3054   19495201.66848
  15216340.19446                  20973800.9614   20973797.9924   17140004.21548
  13380880.30346                  21013916.8834   21013914.1134   23612243.46948
                                  18426511.66946  21327860.1954   21327857.9024
 11  7 28  2 20  0.0000000  0  7G17G02G04G25G12G10G05
  14073480.34446  10993553.79544  23813844.7114   23813841.8794   11759376.03548
   9190059.80846                  20654206.7584                   20654202.0124
  15787104.05147  12331002.67845  22409668.5944                   22409666.5354
  37219392.50447  29028591.99545  23213285.8444   23213286.4454   19428324.50047
  15164228.14646                  20961074.7114   20961071.6294   17131656.35247
  13374375.48546                  21012328.4304   21012325.7664   23503959.19548
                                  18342134.35146  21307254.5634   21307252.2504
 11  7 28  2 20 30.0000000  0  7G17G02G04G25G12G10G05
  14103143.21546  11016667.70044  23819488.7034   23819487.1454   11737272.57048
   9172836.33847                  20650000.6024                   20649996.2154
  15833923.06347  12367485.03145  22418578.0314                   22418575.9304
  37098413.57447  28934322.76745  23190264.2274   23190264.6094   19361988.00848
  15112537.38746                  20948451.4064   20948448.2544   17123927.07448
  13368352.69146                  21010857.4774   21010855.1134   23396105.46148
                                  18258092.52246  21286730.5634   21286728.4414
 11  7 28  2 21  0.0000000  0  7G17G02G04G25G12G10G05
  14132985.05946  11039921.06144  23825168.0394   23825165.5824   11715413.30548
   9155803.15247                  20645841.0634                   20645836.4574
  15880808.90247  12404019.41745  22427500.0784                   22427497.6804
  36977756.62147  28840304.43645  23167303.6644   23167304.6254   19296194.62547
  15061269.83746                  20935931.2344   20935928.0634   17116816.47747
  13362811.98346                  21009504.5784   21009501.6724   23288685.77748
                                  18174388.92446  21266289.3674   21266287.1454
 11  7 28  2 21 30.0000000  0  7G17G02G04G25G12G10G05
  14163002.77046  11063311.50444  23830880.6334   23830878.2504   11693793.73848
   9138956.75547                  20641727.0314                   20641722.2734
  15927756.66847  12440602.11545  22436434.1484                   22436431.6294
  36857421.09047  28746536.55245  23144404.4534   23144405.2544   19230942.91847
  15010424.37546                  20923514.3674   20923511.3404   17110320.32847
  13357750.07146                  21008268.2424   21008265.4344   23181699.07848
                                  18091022.70946  21245930.1334   21245928.1764
 11  7 28  2 22  0.0000000  0  7G17G02G04G25G12G10G05
  14193196.06646  11086838.71044  23836625.6024   23836623.2544   11672412.27748
   9122295.89847                  20637658.2034                   20637653.4694
  15974764.46547  12477231.56145  22445379.8054                   22445377.2624
  36737409.16447  28653020.82445  23121567.3134   23121567.5004   19166233.71547
  14960001.63846                  20911200.4304   20911197.2894   17104436.94147
  13353165.62646                  21007148.9304   21007145.8134   23075147.55948
                                  18007995.59946  21225653.8674   21225651.8594
 11  7 28  2 22 30.0000000  0  7G17G02G04G25G12G10G05
  14223566.12947  11110503.68343  23842404.4614   23842402.3554   11651268.88348
   9105820.53847                  20633634.7034                   20633630.0514
  16021831.51647  12513907.15745  22454335.4384                   22454334.0004
  36617724.30547  28559759.96745  23098792.0704   23098792.1764   19102069.38347
  14910003.47546                  20898990.2974   20898987.2034   17099166.03947
  13349058.45646                  21006145.4534   21006142.6564   22969034.17248
                                  17925309.87746  21205461.3054   21205459.0204
 11  7 28  2 23  0.0000000  0  7G17G02G04G25G12G10G05
  14254107.93447  11134302.50643  23848216.3754   23848214.6684   11630356.98848
   9089525.57547                  20629655.4304                   20629650.7584
  16068951.05947  12550623.67545  22463302.3834                   22463300.9344
  36498363.85247  28466751.86845  23076078.3134   23076078.4964   19038445.76247
  14860426.64646                  20886883.2274   20886880.1724   17094501.45347
  13345423.73546                  21005258.2034   21005255.0904   22863355.98848
                                  17842963.29046  21185351.2584   21185349.1844
 11  7 28  2 23 30.0000000  0  7G17G02G04G25G12G10G05
  14284824.13346  11158237.21743  23854062.0864   23854059.4534   11609677.68048
   9073411.84947                  20625719.9224                   20625715.4454
  16116124.05947  12587381.86944  22472278.7034                   22472277.0004
  36379332.94147  28374000.57045  23053427.3204   23053427.9614   18975366.83648
  14811274.25746                  20874879.6804   20874876.3754   17090444.07847
  13342262.15946                  21004486.1804   21004483.3754   22758118.11348
                                  17760959.79946  21165325.1174   21165322.8554
 11  7 28  2 24  0.0000000  0  7G17G02G04G25G12G10G05
  14315717.43847  11182309.88544  23859940.7034   23859938.5904   11589232.66848
   9057480.68347                  20621829.4534                   20621824.8874
  16163351.66447  12624182.59244  22481265.9844                   22481264.0824
  36260636.86347  28281510.17545  23030839.9844   23030840.8244   18912836.51648
  14762549.33946                  20862980.7974   20862977.2734   17086995.68047
  13339575.11746                  21003829.4924   21003826.9574   22653325.40648
                                  17679303.18346  21145383.9534   21145381.7704
 11  7 28  2 24 30.0000000  0  7G17G02G04G25G12G10G05
  14346783.76646  11206517.40643  23865851.4614   23865850.0084   11569016.55548
   9041727.88747                  20617982.5944                   20617977.9774
  16210628.37547  12661021.59444  22490262.5634                   22490260.4574
  36142274.02047  28189279.44345  23008316.6174   23008316.6884   18850851.92248
  14714249.67346                  20851184.9384   20851182.0904   17084150.93047
  13337358.44646                  21003287.8754   21003285.2154   22548975.64848
                                  17597991.72746  21125526.5164   21125524.5394
 11  7 28  2 25  0.0000000  0  7G17G02G04G25G12G10G05
  14378024.14146  11230860.53743  23871797.2584   23871794.4064   11549028.93448
   9026153.13347                  20614178.9304                   20614174.5274
  16257953.32447  12697898.17045  22499268.3594                   22499265.5704
  36024247.71147  28097310.94845  22985856.5704   22985857.3794   18789415.15248
  14666376.87946                  20839494.0474   20839491.1134   17081909.14548
  13335611.62946                  21002861.0474   21002859.1484   22445072.24248
                                  17517028.07146  21105754.6094   21105752.3794
 11  7 28  2 25 30.0000000  0  7G17G02G04G25G12G10G05
  14409438.40646  11255339.21044  23877775.0944   23877772.6414   11529267.99648
   9010755.00347                  20610418.4144                   20610414.0664
  16305324.59847  12734810.85445  22508282.6024                   22508280.8984
  35906560.04747  28005606.32845  22963461.2114   22963462.3014   18728526.95348
  14618931.55146                  20827907.7194   20827904.5904   17080268.53548
  13334333.25246                  21002548.9144   21002547.0234   22341616.82848
                                  17436413.50246  21086067.8674   21086065.5984
 11  7 28  2 26  0.0000000  0  7G17G02G04G25G12G10G05
  14441025.68846  11279952.67244  23883785.8444   23883783.6764   11509731.71148
   8995531.93247                  20606700.7424                   20606696.5594
  16352739.54747  12771757.55745  22517305.8754                   22517303.5744
  35789212.60547  27914166.82845  22941130.8134   22941131.4654   18668187.21947
  14571913.58146                  20816425.3284   20816422.1174   17079226.45747
  13333521.26646                  21002350.6804   21002348.7074   22238610.61348
                                  17356148.96646  21066466.3204   21066463.7344
 11  7 28  2 26 30.0000000  0  7G17G02G04G25G12G10G05
  14472787.20346  11304701.91444  23889829.7734   23889827.8594   11490420.23848
   8980484.05047                  20603025.9384                   20603021.7154
  16400198.35247  12808738.46045  22526336.6414                   22526334.8714
  35672209.36747  27822995.52045  22918866.2034   22918866.4804   18608398.78148
  14525325.21446                  20805047.6414   20805044.3284   17078783.23048
  13333175.91446                  21002266.5864   21002264.5004   22136057.22748
                                  17276237.28746  21046950.7664   21046948.4304
 11  7 28  2 27  0.0000000  0  7G17G02G04G25G12G10G05
  14504725.08646  11329588.56844  23895907.2584   23895906.4494   11471334.44548
   8965612.02446                  20599394.1334                   20599389.4574
  16447701.30547  12845753.75845  22535375.7034                   22535374.5474
  35555554.91447  27732096.00345  22896667.4694   22896667.8594   18549164.66048
  14479168.76646                  20793775.8594   20793772.8594   17078939.64848
  13333297.82846                  21002296.1564   21002294.3134   22033960.71548
                                  17196681.59546  21027522.2734   21027520.1094
 11  7 28  2 27 30.0000000  0  7G17G02G04G25G12G10G05
  14536839.06646  11354612.39544  23902018.0704   23902017.5204   11452472.63748
   8950914.53146                  20595804.6884                   20595800.4734
  16495246.71947  12882802.14245  22544423.8204                   22544422.0554
  35439251.37547  27641469.91145  22874535.3914   22874535.4304   18490486.07048
  14433445.21346                  20782609.5944   20782606.4964   17079693.56348
  13333885.31746                  21002439.9774   21002437.4454   21932323.02748
                                  17117483.44446  21008181.5864   21008178.9884
 11  7 28  2 28  0.0000000  0  7G17G02G04G25G12G10G05
  14569126.49246  11379771.43544  23908162.6484   23908161.3594   11433830.85548
   8936388.48146                  20592257.2894                   20592252.7234
  16542830.19147  12919880.17045  22553478.5474                   22553476.8674
  35323298.36747  27551116.99045  22852470.5634   22852470.2624   18432360.48448
  14388152.56546                  20771548.5784   20771545.5044   17081040.72747
  13334935.07646                  21002696.3914   21002694.0634   21831143.39548
                                  17038642.20146  20988927.6884   20988925.5984
 11  7 28  2 28 30.0000000  0  7G17G02G04G25G12G10G05
  14601592.48846  11405069.64244  23914340.6484   23914339.1844   11415412.84048
   8922036.79046                  20588752.6254                   20588748.1374
  16590455.23847  12956990.60245  22562541.0314                   22562539.5554
  35207703.45347  27461043.07545  22830473.3284   22830472.9384   18374794.64148
  14343296.08646                  20760594.5234   20760591.3404   17082984.68048
  13336449.86446                  21003066.0554   21003063.4344   21730428.86748
                                  16960163.39046  20969762.1484   20969759.7504
 11  7 28  2 29  0.0000000  0  7G17G02G04G25G12G10G05
  14634236.87546  11430506.80144  23920552.3134   23920550.4344   11397217.26648
   8907858.43846                  20585290.3364                   20585285.3324
  16638120.46547  12994132.30745  22571612.1414                   22571609.6524
  35092469.00047  27371250.03745  22808545.1024   22808544.6054   18317789.26648
  14298876.33246                  20749746.5864   20749743.5984   17085523.82048
  13338428.43746                  21003549.1564   21003547.0944   21630181.35248
                                  16882048.47446  20950686.2274   20950683.1914
 11  7 28  2 29 30.0000000  0  7G17G02G04G25G12G10G05
  14667055.84846  11456080.03944  23926798.0084   23926796.5044   11379238.67248
   8893849.16446                  20581868.8444                   20581864.1484
  16685820.17247  13031300.91245  22580688.5084                   22580686.8364
  34977593.30947  27281736.55845  22786685.0704   22786684.3014   18261341.19548
  14254890.85146                  20739004.7734   20739001.8914   17088652.37948
  13340866.29546                  21004144.8284   21004142.0904   21530399.05548
                                  16804296.07946  20931698.0314   20931695.9144
 11  7 28  2 30  0.0000000  0  7G17G02G04G25G12G10G05
  14700051.99246  11481791.33144  23933076.9844   23933076.1604   11361478.57448
   8880010.14346                  20578489.1954                   20578484.6484
  16733555.78147  13068497.50645  22589772.7894                   22589771.0004
  34863081.84847  27192506.89745  22764894.3054   22764893.3674   18205453.98447
  14211342.38746                  20728369.7664   20728367.2384   17092371.87547
  13343764.61746                  21004852.3754   21004849.8204   21431086.82448
                                  16726909.95046  20912799.3834   20912797.1024
 11  7 28  2 30 30.0000000  0  7G17G02G04G25G12G10G05
  14733226.28146  11507641.44144  23939389.3054   23939388.7734   11343937.12948
   8866341.51446                  20575150.9694                   20575146.6684
  16781326.76647  13105721.64345  22598862.9534                   22598861.6094
  34748938.02047  27103563.74645  22743172.9844   22743173.1684   18150129.77048
  14168232.63346                  20717842.0394   20717838.9454   17096681.55948
  13347122.83946                  21005672.5704   21005670.0904   21332247.36348
                                  16649892.23546  20893990.6334   20893988.1954
 11  7 28  2 31  0.0000000  0  7G17G02G04G25G12G10G05
  14766581.91446  11533632.86644  23945737.4384   23945736.2304   11326616.10548
   8852844.61846                  20571855.0314                   20571850.4924
  16829135.05147  13142974.85645  22607960.3754                   22607958.4884
  34635167.51647  27014911.46945  22721523.3594   22721523.6414   18095372.69148
  14125564.80646                  20707422.0084   20707419.0274   17101583.05547
  13350942.21646                  21006605.3834   21006602.7934   21233885.90648
                                  16573246.98246  20875273.2504   20875271.1374
 11  7 28  2 31 30.0000000  0  7G17G02G04G25G12G10G05
  14800116.82047  11559763.94844  23952119.0474   23952117.6804   11309512.23048
   8839516.94646                  20568600.1804                   20568595.5704
  16876976.87547  13180254.21945  22617064.5164                   22617062.5784
  34521770.61747  26926550.31345  22699944.4064   22699944.4694   18041181.65248
  14083338.03546                  20697110.0084   20697106.6254   17107072.37548
  13355219.61046                  21007649.5474   21007646.9224   21136002.58648
                                  16496974.31246  20856646.8524   20856644.3754
 11  7 28  2 32  0.0000000  0  7G17G02G04G25G12G10G05
  14833830.18447  11586034.12944  23958533.9774   23958532.9734   11292623.44548
   8826356.87446                  20565386.2194                   20565381.4304
  16924850.34047  13217558.22144  22626174.4534                   22626172.4574
  34408749.04747  26838481.62045  22678437.2814   22678437.3244   17987556.62548
  14041552.33146                  20686905.3594   20686902.0474   17113147.09448
  13359953.18446                  21008806.0394   21008803.0474   21038598.57448
                                  16421075.11946  20838111.2974   20838108.5984
 11  7 28  2 32 30.0000000  0  7G17G02G04G25G12G10G05
  14867719.03146  11612441.00344  23964982.8674   23964981.7274   11275945.76648
   8813361.30646                  20562212.9614                   20562208.1804
  16972750.97347  13254883.38544  22635290.1414                   22635287.6844
  34296102.39147  26750705.06245  22657001.1414   22657001.2934   17934495.79348
  14000206.25146                  20676808.2344   20676805.0824   17119802.74248
  13365139.41746                  21010072.6414   21010069.6684   20941672.95748
                                  16345548.70846  20819666.7814   20819664.4024
 11  7 28  2 33  0.0000000  0  7G17G02G04G25G12G10G05
  14901786.27346  11638986.89544  23971465.4614   23971464.5704   11259480.40248
   8800531.17646                  20559079.5084                   20559074.4384
  17020680.05947  13292230.72844  22644409.8984                   22644408.7384
  34183835.53947  26663224.45845  22635637.6564   22635637.4574   17882002.38748
  13959302.31246                  20666818.9614   20666815.8284   17127040.10948
  13370778.93846                  21011449.7034   21011447.2854   20845229.98848
                                  16270398.37346  20801313.8914   20801311.7814
 11  7 28  2 33 30.0000000  0  7G17G02G04G25G12G10G05
  14936030.88746  11665670.96144  23977982.4454   23977980.9224   11243225.16848
   8787864.79646                  20555985.9304                   20555981.3444
  17068635.24247  13329598.39744  22653535.7894                   22653534.5514
  34071950.12547  26576041.06345  22614345.9384   22614346.4184   17830076.15248
  13918840.34446                  20656937.6024   20656934.8554   17134856.78948
  13376869.88046                  21012937.1644   21012934.8404   20749270.88348
                                  16195625.09046  20783054.2194   20783051.3244
 11  7 28  2 34  0.0000000  0  7G17G02G04G25G12G10G05
  16545873.37946  12920093.72844  24284325.0314   24284323.5204   12802601.12148
  10002962.96246                  20852725.7114                   20852720.9224
  18692035.18047  14594585.37844  22962458.7734                   22962456.8094
  35535873.83247  27716760.88345  22892921.9614   22892921.6094   19354141.44948
  15106423.70646                  20946957.8674   20946954.5314   18718672.26248
  14611011.81746                  21314326.8054   21314324.3794   22229222.28148
                                  17348834.00346  21064679.2194   21064676.8554
 11  7 28  2 34 30.0000000  0  7G17G02G04G25G12G10G05
  16580477.24246  12947057.72544  24290910.2034   24290908.7504   12786767.64848
   9990625.22546                  20849712.7504                   20849707.6374
  18740043.20347  14631994.23444  22971594.0554                   22971592.9774
  35424763.28547  27630181.25245  22871778.0864   22871778.0904   19303357.14147
  15066851.53446                  20937293.6884   20937290.5984   18727646.91448
  14618005.06246                  21316034.7424   21316032.2734   22134241.37148
                                  17274822.93546  21046604.8284   21046602.3954
 11  7 28  2 35  0.0000000  0  7G17G02G04G25G12G10G05
  16615257.49646  12974159.22444  24297528.5004   24297527.1134   12771140.19948
   9978448.00946                  20846738.6564                   20846733.8364
  18788072.88747  14669419.95344  22980733.6094                   22980732.5824
  35314040.82847  27543904.03545  22850708.3204   22850708.5234   19253142.02348
  15027722.87846                  20927737.7974   20927735.0904   18737194.50047
  14625444.75146                  21317851.8444   21317849.1174   22039749.38748
                                  17201192.85146  21028623.6804   21028621.0634
 11  7 28  2 35 30.0000000  0  7G17G02G04G25G12G10G05
  16650214.87146  13001398.71743  24304180.6644   24304179.3834   12755717.79748
   9966430.58246                  20843803.8834                   20843798.9304
  18836122.89147  14706861.51944  22989877.3914                   22989875.9144
  35203709.14147  27457931.32045  22829712.7974   22829712.8324   19203496.98448
  14989038.45346                  20918291.1024   20918287.8364   18747313.59847
  14633329.77046                  21319777.1564   21319774.6454   21945748.41448
                                  17127945.37846  21010735.6564   21010733.1524
 11  7 28  2 36  0.0000000  0  7G17G02G04G25G12G10G05
  16685347.68446  13028774.95643  24310866.3984   24310864.8834   12740498.28148
   9954571.24146                  20840907.7274                   20840902.6414
  18884190.92647  14744317.10644  22999024.4454                   22999022.9844
  35093769.55547  27372264.12645  22808792.1414   22808791.8984   19154421.66448
  14950797.96146                  20908952.3204   20908948.7074   18758001.22747
  14641657.80846                  21321810.8984   21321808.1174   21852239.10948
                                  17055081.01946  20992941.3834   20992939.3984
 11  7 28  2 36 30.0000000  0  7G17G02G04G25G12G10G05
  16720659.66046  13056290.75643  24317585.9144   24317584.3204   12725483.95748
   9942871.79046                  20838050.3524                   20838046.0274
  18932279.34447  14781788.61644  23008175.4064                   23008173.5744
  34984228.01247  27286907.09745  22787947.0314   22787947.2114   19105920.29748
  14913004.69846                  20899722.5554   20899719.5084   18769259.06647
  14650430.16346                  21323952.9064   21323950.4104   21759226.96148
                                  16982604.05746  20975241.7814   20975239.3984
 11  7 28  2 37  0.0000000  0  6G02G04G25G12G10G05
  12710674.79748   9931332.20046  20835232.3364                   20835227.6804
  18980387.79347  14819275.71044  23017330.0634                   23017328.8914
  34875088.02347  27201862.97845  22767178.4844   22767177.8874   19057994.54348
  14875659.96146                  20890602.4384   20890599.8914   18781086.39147
  14659646.27246                  21326203.3914   21326201.2624   21666715.11748
                                  16910516.93446  20957637.5394   20957635.1334
 11  7 28  2 37 30.0000000  0  6G02G04G25G12G10G05
  12696068.12548   9919950.39446  20832452.9144                   20832447.8984
  19028513.48847  14856776.25244  23026488.5784                   23026486.6414
  34766350.29747  27117132.31745  22746485.9614   22746486.0234   19010643.68848
  14838763.20146                  20881592.2894   20881589.2194   18793479.96547
  14669303.61746                  21328561.8594   21328559.5394   21574703.58248
                                  16838819.67346  20940128.1254   20940125.7664
 11  7 28  2 38  0.0000000  0  6G02G04G25G12G10G05
  12681671.23448   9908732.05846  20829713.2034                   20829707.9694
  19076663.80147  14894295.98444  23035650.9224                   23035649.3634
  34658025.88747  27032723.70745  22725872.8284   22725872.3984   18963876.64148
  14802321.35947                  20872692.4694   20872689.3444   18806446.23048
  14679407.19846                  21331029.7344   21331027.0904   21483202.34048
                                  16767520.04146  20922716.3054   20922713.5664
 11  7 28  2 38 30.0000000  0  6G02G04G25G12G10G05
  12667482.16847   9897675.65846  20827012.9844                   20827008.1174
  19124836.67247  14931833.28544  23044818.0394                   23044816.8714
  34550116.48447  26948638.50845  22705338.0474   22705338.0594   18917693.26647
  14766334.32446                  20863903.9844   20863901.1954   18819982.42247
  14689954.88946                  21333605.4384   21333602.5864   21392212.84048
                                  16696619.17046  20905401.2424   20905398.8014
 11  7 28  2 39  0.0000000  0  6G02G04G25G12G10G05
  12653498.06348   9886778.96046  20824352.1024                   20824347.0044
  19173029.35947  14969386.01844  23053989.0084                   23053986.9534
  34442622.86747  26864877.29845  22684882.7424   22684882.6374   18872092.83248
  14730801.53346                  20855226.9694   20855223.2664   18834085.41847
  14700944.24446                  21336289.2664   21336286.4804   21301735.25448
                                  16626117.19946  20888184.0784   20888181.5944
 11  7 28  2 39 30.0000000  0  6G02G04G25G12G10G05
  12639719.96947   9876042.79446  20821729.8204                   20821725.1524
  19221242.32847  15006954.53944  23063163.5314                   23063161.0904
  34335549.15647  26781443.30145  22664507.1804   22664506.9534   18827077.82047
  14695724.90946                  20846660.8284   20846657.6954   18848754.79347
  14712374.94246                  21339080.6564   21339077.7154   21211772.85548
                                  16556016.66446  20871064.5314   20871061.9534
 11  7 28  2 40  0.0000000  0  6G02G04G25G12G10G05
  12626140.38747   9865461.32346  20819146.1414                   20819141.0594
  19269468.10947  15044533.06144  23072340.6644                   23072338.1844
  34228891.53147  26698333.52045  22644211.2734   22644210.7344   18782642.43447
  14661099.94546                  20838205.0234   20838201.9104   18863982.35247
  14724240.57946                  21341978.3054   21341975.9144   21122321.66448
                                  16486314.46746  20854042.8054   20854040.0514
 11  7 28  2 40 30.0000000  0  6G02G04G25G12G10G05
  12612757.30547   9855032.95546  20816599.5634                   20816594.5864
  19317704.87946  15082120.15144  23081519.3834                   23081518.3984
  34122651.39547  26615549.06245  22623993.9694   22623993.8874   18738786.09848
  14626926.19446                  20829859.3524   20829856.3834   18879765.08247
  14736538.83146                  21344981.4844   21344979.2704   21033382.00448
                                  16417010.87346  20837118.0164   20837115.1214
 11  7 28  2 41  0.0000000  0  6G02G04G25G12G10G05
  12599571.27348   9844758.13346  20814090.0554                   20814085.3284
  19365952.93446  15119716.02444  23090700.5634                   23090698.6954
  34016832.76247  26533093.05945  22603857.1804   22603857.3984   18695510.98447
  14593205.34346                  20821624.4144   20821621.5004   18896102.69147
  14749269.43246                  21348090.4694   21348088.2974   20944957.25048
                                  16348108.50746  20820291.2734   20820288.7624
 11  7 28  2 41 30.0000000  0  6G02G04G25G12G10G05
  12586578.99647   9834634.30146  20811617.6484                   20811612.9144
  19414208.92646  15157318.07944  23099883.5394                   23099881.6764
  33911435.75847  26450965.60645  22583801.0314   22583800.9534   18652815.22348
  14559935.92846                  20813499.7734   20813496.7384   18912990.87947
  14762429.06746                  21351304.4844   21351302.0514   20857046.94948
                                  16279607.01246  20803562.6254   20803559.7624
 11  7 28  2 42  0.0000000  0  6G02G04G25G12G10G05
  12573775.28947   9824657.39746  20809181.3984                   20809176.7734
  19462467.92246  15194922.47944  23109066.8364                   23109065.0704
  33806458.94547  26369165.56445  22563824.9844   22563824.6764   18610695.60547
  14527115.47246                  20805484.6254   20805481.3954   18930423.85947
  14776013.20446                  21354621.8834   21354619.1684   20769648.74648
                                  16211504.55746  20786931.2974   20786928.4264
 11  7 28  2 42 30.0000000  0  6G02G04G25G12G10G05
  12561163.92647   9814830.37046  20806781.3134                   20806776.7424
  19510733.54346  15232532.05344  23118252.0084                   23118249.2854
  33701909.44147  26287698.49845  22543929.3754   22543929.5664   18569157.39547
  14494748.04646                  20797579.9694   20797577.0904   18948404.34447
  14790023.98146                  21358043.1644   21358040.9694   20682769.33648
                                  16143806.35647  20770398.3594   20770395.7304
 11  7 28  2 43  0.0000000  0  6G02G04G25G12G10G05
  12548744.94547   9805153.24946  20804418.2034                   20804413.5594
  19559005.70346  15270146.72044  23127437.6804                   23127435.8284
  33597790.48447  26206566.89545  22524116.0864   22524115.9454   18528202.34448
  14462835.02846                  20789786.5704   20789783.4224   18966930.99647
  14804460.34146                  21361569.2274   21361566.6804   20596411.11348
                                  16076514.27046  20753965.1484   20753962.4844
 11  7 28  2 43 30.0000000  0  6G02G04G25G12G10G05
  12536517.40647   9795625.30446  20802091.3524                   20802086.5594
  19607283.37546  15307765.66044  23136624.4144                   23136622.8984
  33494104.53947  26125772.71445  22504385.1334   22504385.0554   18487830.28548
  14431376.29246                  20782104.1414   20782100.7854   18986001.96947
  14819320.84046                  21365198.1484   21365195.2974   20510575.86748
                                  16009629.69846  20737631.1724   20737628.5704
 11  7 28  2 44  0.0000000  0  6G02G04G25G12G10G05
  12524479.04347   9786244.77446  20799800.7114                   20799795.7664
  19655564.37946  15345387.26644  23145812.5554                   23145810.2854
  33390852.86747  26045316.92645  22484737.2664   22484737.1374   18448040.96548
  14400371.64346                  20774532.4534   20774529.3204   19005614.16847
  14834603.07946                  21368929.9224   21368927.2504   20425264.08648
                                  15943153.02246  20721396.7114   20721394.3834
 11  7 28  2 44 30.0000000  0  6G02G04G25G12G10G05
  12512627.87147   9777010.08746  20797545.2584                   20797540.3444
  19703846.94146  15383010.01844  23155000.1804                   23154998.0164
  33288036.91047  25965200.64346  22465172.0944   22465171.7304   18408833.67248
  14369820.51346                  20767071.5474   20767068.2544   19025764.41847
  14850304.56846                  21372764.4454   21372762.1644   20340476.46548
                                  15877084.77946  20705261.9924   20705259.5204
 11  7 28  2 45  0.0000000  0  6G02G04G25G12G10G05
  12500963.16448   9767920.72346  20795325.4454                   20795320.8054
  19752129.85246  15420633.06344  23164188.0004                   23164186.1524
  33185659.12547  25885425.77345  22445689.8674   22445689.6724   18370209.16848
  14339723.51046                  20759721.1884   20759718.1174   19046450.85247
  14866423.86245                  21376701.3134   21376698.2974   20256214.68048
                                  15811426.28746  20689227.9304   20689224.8444
 11  7 28  2 45 30.0000000  0  6G02G04G25G12G10G05
  12489484.07847   9758976.00846  20793141.0314                   20793136.2234
  19800412.57046  15458255.96144  23173376.6174                   23173373.9574
  33083721.91447  25805994.22245  22426291.6484   22426291.7624   18332167.52047
  14310080.67646                  20752482.5394   20752479.1954   19067671.74647
  14882959.62846                  21380739.2424   21380736.7194   20172480.62948
                                  15746179.01346  20673293.6024   20673290.5784
 11  7 28  2 46  0.0000000  0  6G02G04G25G12G10G05
  12478190.43447   9750175.77946  20790992.0234                   20790987.3134
  19848694.91846  15495878.55344  23182563.8524                   23182561.3324
  32982228.48047  25726908.46245  22406977.9614   22406978.1094   18294710.22748
  14280893.18446                  20745354.4304   20745351.3164   19089425.72347
  14899910.77046                  21384879.0864   21384876.5044   20089276.59848
                                  15681344.74546  20657460.4694   20657457.5904
 11  7 28  2 46 30.0000000  0  6G02G04G25G12G10G05
  12467080.01248   9741518.31146  20788877.5704                   20788872.8284
  19896974.65246  15533499.14744  23191750.8674                   23191749.3554
  32881180.14847  25648169.51145  22387749.4454   22387749.2814   18257836.33647
  14252160.28646                  20738337.4534   20738334.6484   19111709.39847
  14917274.68646                  21389119.3134   21389116.6334   20006602.92248
                                  15616923.72946  20641728.1174   20641725.4264
 11  7 28  2 47  0.0000000  0  6G02G04G25G12G10G05
  12456150.32047   9733001.67546  20786798.0704                   20786793.0004
  19945249.28546  15571115.75644  23200936.8284                   23200935.1644
  32780577.41047  25569777.77945  22368605.6804   22368605.2734   18221544.59847
  14223881.00546                  20731431.4614   20731428.3164   19134518.92647
  14935048.36446                  21393459.7664   21393456.9384   19924459.55148
                                  15552915.92747  20626096.7424   20626094.2894
 11  7 28  2 47 30.0000000  0  6G02G04G25G12G10G05
  12445404.91847   9724628.65346  20784753.0864                   20784748.3874
  19993522.48046  15608731.22644  23210123.4774                   23210122.1844
  32680427.35247  25491738.78445  22349547.3524   22349547.5274   18185839.83248
  14196059.12046                  20724636.8834   20724633.7704   19157856.85247
  14953233.77345                  21397900.9224   21397898.2664   19842852.60548
                                  15489326.13447  20610567.3444   20610564.5704
 11  7 28  2 48  0.0000000  0  6G02G04G25G12G10G05
  12434839.19547   9716395.63946  20782742.6094                   20782737.7854
  20041789.60246  15646341.93844  23219308.9774                   23219306.9534
  32580728.57047  25414051.43045  22330575.2504   22330575.1254   18150718.46148
  14168691.80946                  20717953.5634   20717950.4104   19181717.34847
  14971826.36546                  21402441.4614   21402438.3954   19761780.07048
                                  15426152.75647  20595139.6414   20595137.0204
 11  7 28  2 48 30.0000000  0  6G02G04G25G12G10G05
  12424450.41447   9708300.51046  20780765.4614                   20780760.7344
  20090048.02346  15683945.90044  23228491.7504                   23228490.1954
  32481481.53947  25336716.07245  22311689.2274   22311688.8554   18116179.34848
  14141778.21946                  20711380.9454   20711377.8594   19206096.47347
  14990823.09346                  21407080.6414   21407077.9614   19681241.41448
                                  15363395.39047  20579813.6334   20579811.3594
 11  7 28  2 49  0.0000000  0  7G29G02G04G25G12G10G05
  47103473.91457                  36726489.54754  24282836.1094   24282835.7464
  12414240.74647   9700344.94246  20778822.9844                   20778817.8524
  20138299.76647  15721544.68044  23237673.8364                   23237671.8914
  32382691.64147  25259736.93746  22292890.3134   22292890.0354   18082225.37947
  14115320.57046                  20704919.8284   20704916.6684   19230995.04347
  15010224.57846                  21411818.4064   21411815.7384   19601241.46148
                                  15301057.78146  20564589.9064   20564587.7464
 11  7 28  2 49 30.0000000  0  7G29G02G04G25G12G10G05
  46987358.11346                  36636009.78544  24260740.2274   24260739.0234
  12404202.40247   9692522.87146  20776912.5314                   20776907.6294
  20186537.28946  15759132.35244  23246852.6094                   23246850.9344
  32284354.38347  25183110.50245  22274177.2974   22274177.2584   18048850.20347
  14089313.94746                  20698568.7274   20698565.6684   19256403.96147
  15030023.75445                  21416653.5394   21416650.9774   19521774.53548
                                  15239135.52247  20549468.0944   20549465.7624
 11  7 28  2 50  0.0000000  0  7G29G02G04G25G12G10G05
  46871174.90247                  36545477.51344  24238630.5784   24238629.2544
  12394330.85947   9684830.77646  20775033.9924                   20775029.1024
  20234755.96946  15796705.32344  23256028.7194                   23256026.8404
  32186468.24247  25106835.61346  22255550.2504   22255550.2734   18016050.06348
  14063755.40246                  20692327.0084   20692323.7194   19282317.65647
  15050216.24345                  21421584.9924   21421582.4614   19442838.46548
                                  15177626.91047  20534447.1954   20534444.9144
 11  7 28  2 50 30.0000000  0  7G29G02G04G25G12G10G05
  46754926.70346                  36454894.55844  24216509.3524   24216508.6334
  12384626.94147   9677269.30646  20773187.5394                   20773182.6054
  20282956.43446  15834264.13444  23265200.9534                   23265198.5164
  32089037.11347  25030915.26246  22237009.5864   22237009.7194   17983827.34448
  14038646.79846                  20686195.5474   20686192.2304   19308735.27747
  15070801.41945                  21426612.0474   21426609.6054   19364436.05548
                                  15116534.14647  20519527.4534   20519525.0124
 11  7 28  2 51  0.0000000  0  7G29G02G04G25G12G10G05
  46638617.75846                  36364264.31943  24194377.5704   24194375.5164
  12375092.59847   9669839.95646  20771373.2344                   20771368.4104
  20331141.43446  15871810.85444  23274370.6564                   23274369.4264
  31992066.60948  24955353.86446  22218556.8054   22218556.8834   17952184.28548
  14013989.87346                  20680173.6954   20680170.7854   19335657.67647
  15091779.91145                  21431735.2504   21431732.8134   19286572.19948
                                  15055861.02247  20504710.9534   20504707.8674
 11  7 28  2 51 30.0000000  0  7G29G02G04G25G12G10G05
  46522251.63746                  36273589.42743  24172232.9694   24172231.0084
  12365730.05947   9662544.49146  20769591.6334                   20769586.7894
  20379312.96146  15909347.10844  23283536.9304                   23283535.1604
  31895561.78147  24880155.33446  22200192.5394   22200191.9494   17921124.65648
  13989787.56646                  20674263.4224   20674260.3014   19363085.55947
  15113152.32446                  21436954.5164   21436951.5704   19209251.14548
                                  14995610.86647  20489996.8524   20489993.8674
 11  7 28  2 52  0.0000000  0  7G29G02G04G25G12G10G05
  46405828.21946                  36182869.98343  24150077.6024   24150075.7974
  12356537.54347   9655381.49646  20767842.4064                   20767837.1094
  20427469.09446  15946871.36244  23292700.8364                   23292699.2114
  31799523.91847  24805320.66246  22181917.0944   22181916.6294   17890647.40648
  13966039.07846                  20668463.6564   20668460.7114   19391015.62947
  15134916.03845                  21442269.6334   21442266.4694   19132473.41848
                                  14935784.08247  20475386.6804   20475383.9734
 11  7 28  2 52 30.0000000  0  7G29G02G04G25G12G10G05
  46289351.73846                  36092109.17543  24127912.3134   24127910.8714
  12347517.56347   9648352.94646  20766125.6804                   20766120.6994
  20475612.57046  15984385.73344  23301862.6644                   23301859.9844
  31703958.68847  24730854.29346  22163731.7274   22163730.8954   17860756.07848
  13942747.14046                  20662775.6644   20662772.2854   19419449.34047
  15157072.18745                  21447680.2894   21447677.3794   19056243.41848
                                  14876384.11447  20460880.1484   20460877.8674
 11  7 28  2 53  0.0000000  0  7G29G02G04G25G12G10G05
  46172821.68446                  36001306.54744  24105738.1954   24105736.4964
  12338667.80547   9641457.05446  20764441.4454                   20764436.6994
  20523741.05946  16021888.43744  23311020.3754                   23311018.5204
  31608866.79347  24656756.76246  22145636.2734   22145635.9344   17831449.29748
  13919910.68846                  20657198.6094   20657195.5434   19448383.15647
  15179618.02145                  21453186.1564   21453183.2734   18980561.25448
                                  14817411.02447  20446478.6094   20446475.7344
 11  7 28  2 53 30.0000000  0  7G29G02G04G25G12G10G05
  46056241.43847                  35910464.85244  24083553.8054   24083552.4844
  12329990.05147   9634695.17346  20762790.1564                   20762785.3284
  20571856.51647  16059381.03044  23320176.6724                   23320173.9384
  31514253.10248  24583031.87146  22127631.8914   22127631.8954   17802729.68448
  13897531.78146                  20651733.6484   20651730.2974   19477816.82847
  15202553.38345                  21458787.1024   21458784.3484   18905430.79748
                                  14758867.83647  20432181.5314   20432179.0664
 11  7 28  2 54  0.0000000  0  7G29G02G04G25G12G10G05
  45939609.81646                  35819583.11044  24061360.2194   24061357.8834
  12321481.09047   9628064.81746  20761171.0164                   20761166.5634
  20619955.93847  16096861.06443  23329330.0164                   23329327.3054
  31420117.45748  24509679.45246  22109718.2344   22109718.1174   17774594.76648
  13875608.48146                  20646379.5314   20646376.2424   19507745.81347
  15225874.67346                  21464482.6334   21464480.2774   18830850.95348
                                  14700753.70247  20417989.7664   20417987.1414
 11  7 28  2 54 30.0000000  0  7G29G02G04G25G12G10G05
  45822930.88346                  35728664.51044  24039156.1024   24039154.9494
  12313143.48047   9621567.98246  20759584.3594                   20759579.4064
  20668041.85247  16134330.56544  23338480.4534                   23338477.0594
  31326465.44547  24436703.91746  22091896.6334   22091896.3444   17747047.87148
  13854143.37046                  20641137.8914   20641134.5784   19538171.60247
  15249583.10045                  21470272.1094   21470269.5084   18756826.44948
                                  14643072.30547  20403903.2344   20403900.5784
 11  7 28  2 55  0.0000000  0  7G29G02G04G25G12G10G05
  45706197.84446                  35637703.74243  24016942.4454   24016941.0434
  12304968.59447   9615197.94946  20758028.7034                   20758023.9614
  20716105.89746  16171783.02344  23347626.6334                   23347624.6374
  31233291.46147  24364100.85946  22074166.4304   22074165.9304   17720081.41848
  13833130.56346                  20636006.2274   20636002.8954   19569083.76247
  15273670.50445                  21476155.1024   21476151.9224   18683350.56348
                                  14585818.39147  20389921.1804   20389918.3524
 11  7 28  2 55 30.0000000  0  7G29G02G04G25G12G10G05
  45589418.80946                  35546707.13044  23994719.8834   23994718.8834
  12296962.42248   9608959.38846  20756505.4064                   20756500.4224
  20764154.23046  16209223.28544  23356770.1644                   23356767.6254
  31140604.62548  24291877.40246  22056528.4844   22056528.4534   17693702.17248
  13812575.30846                  20630986.2424   20630983.0084   19600486.87147
  15298140.48645                  21482130.5314   21482127.9264   18610431.76248
                                  14528998.57747  20376044.9534   20376042.4304
 11  7 28  2 56  0.0000000  0  7G29G02G04G25G12G10G05
  45472593.37946                  35455674.37843  23972489.0944   23972487.8444
  12289123.17248   9602850.88246  20755013.8364                   20755008.4924
  20812184.61346  16246649.56044  23365909.8054                   23365908.0124
  31048405.69148  24220034.11146  22038983.7274   22038983.6134   17667908.54748
  13792476.38046                  20626077.7584   20626074.4264   19632377.35247
  15322990.21945                  21488198.9534   21488196.2194   18538069.75848
                                  14472612.63247  20362274.9064   20362271.9884
 11  7 28  2 56 30.0000000  0  7G29G02G04G25G12G10G05
  46931142.78946                  36592206.49444  24250041.6564   24250040.1684
  13856867.21548                  10824469.62346                  21053345.1724
  21053340.1374   22435611.79346  17511657.77944  23674837.4614   23674836.0824
  32532116.65648  25376172.56646  22321324.5704   22321324.5984   19218117.92648
  15000431.73946                  20921073.0164   20921069.6994   21240168.79347
  16575814.74245                  21794151.3054   21794148.4614   20041684.91848
                                  15644260.83047  20648403.7504   20648400.5664
 11  7 28  2 57  0.0000000  0  7G29G02G04G25G12G10G05
  46814222.74646                  36501100.06144  24227792.3754   24227791.2074
  13849355.39848                  10818616.26646                  21051915.9614
  21051910.7894   22483600.66846  17549051.67444  23683970.3984   23683968.0784
  32440895.96548  25305091.54746  22303965.7974   22303965.3914   19193491.33248
  14981242.18646                  20916386.8364   20916383.3674   21273023.46947
  16601415.80145                  21800403.3984   21800400.5944   19970435.76248
                                  15588742.03947  20634845.4774   20634842.8794
 11  7 28  2 57 30.0000000  0  7G29G02G04G25G12G10G05
  46697259.84446                  36409960.22244  24205534.8834   24205533.5204
  13842008.53548                  10812891.44446                  21050517.9844
  21050513.0044   22531570.55546  17586430.76644  23693098.3524   23693096.1914
  32350170.32448  25234396.27946  22286701.2974   22286701.0474   19169450.84848
  14962509.35346                  20911811.9694   20911808.7544   21306358.98048
  16627391.52645                  21806747.0394   21806744.7234   19899747.92648
                                  15533660.63847  20621393.9144   20621391.0704
 11  7 28  2 58  0.0000000  0  7G29G02G04G25G12G10G05
  46580251.13346                  36318784.72344  24183268.5864   24183267.5124
  13834822.13748                  10807291.66546                  21049150.2974
  21049145.5784   22579516.97747  17623791.57644  23702222.9304   23702219.8324
  32259937.96948  25164085.38546  22269530.6254   22269530.1764   19145992.39848
  14944230.04046                  20907347.9144   20907344.6844   21340169.21547
  16653737.17645                  21813180.6174   21813178.7854   19829618.31348
                                  15479014.21747  20608048.3284   20608045.6214
 11  7 28  2 58 30.0000000  0  7G29G02G04G25G12G10G05
  46463199.81646                  36227576.07344  24160994.5394   24160993.6764
  13827797.49648                  10801817.92246                  21047813.4384
  21047808.6764   22627441.34447  17661135.23444  23711341.9224   23711340.0904
  32170203.07048  25094162.09946  22252454.5474   22252454.2034   19123118.17648
  14926405.96946                  20902994.8284   20902991.8054   21374454.11748
  16680452.70145                  21819704.8834   21819702.6604   19760049.95748
                                  15424805.14547  20594809.8524   20594807.5474
 11  7 28  2 59  0.0000000  0  7G29G02G04G25G12G10G05
  46346105.81346                  36136334.08544  24138711.9924   24138711.3204
  13820933.12948                  10796469.06846                  21046507.2664
  21046502.3914   22675342.07447  17698460.47744  23720457.2894   23720455.2274
  32080966.78548  25024627.36346  22235473.4454   22235473.0824   19100826.52048
  14909035.86046                  20898753.2194   20898749.4694   21409210.34447
  16707535.48445                  21826318.6414   21826316.3324   19691043.37148
                                  15371033.79647  20581678.7114   20581675.8714
 11  7 28  2 59 30.0000000  0  7G29G02G04G25G12G10G05
  46228969.64846                  36045059.26244  24116422.1024   24116420.5314
  13814227.61347                  10791243.99346                  21045231.2424
  21045226.3204   22723218.09847  17735766.46944  23729567.8134   23729566.3914
  31992230.53548  24955482.24746  22218587.4304   22218586.7344   19079117.13348
  14892119.45946                  20894622.1644   20894618.9844   21444434.79747
  16734983.11945                  21833022.1024   21833019.2934   19622598.83247
                                  15317700.41647  20568654.0164   20568651.0084
 11  7 28  3  0  0.0000000  0  7G29G02G04G25G12G10G05
  46111790.59446                  35953750.94144  24094123.6884   24094122.3554
  13807678.59047                  10786140.87546                  21043984.8204
  21043980.0124   22771067.05147  17773051.37344  23738672.8594   23738671.2424
  31903994.74648  24886727.10846  22201797.0314   22201795.9414   19057987.46548
  14875654.78546                  20890601.0314   20890597.7974   21480123.27747
  16762792.35045                  21839813.2194   21839810.3284   19554715.69947
                                  15264804.49747  20555736.3204   20555733.4734
 11  7 28  3  0 30.0000000  0  7G29G02G04G25G12G10G05
  45994574.57447                  35862413.88844  24071817.8284   24071816.3874
  13801289.81347                  10781162.61546                  21042769.0234
  21042764.3324   22818893.09047  17810318.40544  23747773.7274   23747773.0514
  31816266.11348  24818367.13746  22185102.3134   22185102.3754   19037441.79348
  14859645.17446                  20886691.2584   20886688.4614   21516278.28547
  16790965.09145                  21846692.9304   21846690.4104   19487399.56647
                                  15212350.39847  20542926.4454   20542923.0434
 11  7 28  3  1  0.0000000  0  7G29G02G04G25G12G10G05
  45877314.87946                  35771042.73744  24049504.2034   24049503.1414
  13795053.21547                  10776302.93346                  21041582.7344
  21041577.3984   22866688.03947  17847561.19344  23756869.3364   23756867.5474
  31729039.10248  24750398.06846  22168503.5164   22168503.5434   19017473.20348
  14844085.24346                  20882891.4454   20882888.1054   21552889.84047
  16819493.57745                  21853659.9304   21853657.4064   19420644.16048
                                  15160333.23247  20530223.4224   20530220.3444
 11  7 28  3  1 30.0000000  0  7G29G02G04G25G12G10G05
  45760018.59046                  35679643.12044  24027183.6414   24027182.2504
  13788973.75848                  10771565.68746                  21040425.5164
  21040420.6954   22914457.20747  17884783.94044  23765958.5474   23765957.7074
  31642321.60248  24682826.01446  22152001.8834   22152001.8014   18998086.48048
  14828978.71746                  20879202.1884   20879198.7344   21589961.50847
  16848380.59545                  21860714.4844   21860712.0124   19354455.88748
                                  15108757.98247  20517628.2424   20517625.3324
 11  7 28  3  2  0.0000000  0  7G29G02G04G25G12G10G05
  45642686.32847                  35588215.43144  24004855.8754   24004854.4224
  13783050.40248                  10766950.09846                  21039298.4304
  21039293.4534   22962199.62947  17921985.74944  23775044.8754   23775042.1884
  31556115.00448  24615652.07146  22135597.0944   22135596.9304   18979280.85248
  14814324.98046                  20875623.9774   20875620.5234   21627490.09448
  16877623.65345                  21867856.0784   21867853.3954   19288835.38347
                                  15057625.15547  20505140.8204   20505137.7774
 11  7 28  3  2 30.0000000  0  7G29G02G04G25G12G10G05
  45525313.78546                  35496756.36844  23982520.5394   23982519.5084
  13777277.09047                  10762451.41646                  21038199.7274
  21038194.5204   23009909.56347  17959162.33444  23784123.4064   23784120.5784
  31470416.13348  24548873.74646  22119289.3204   22119288.8324   18961050.71948
  14800119.69846                  20872155.1254   20872151.6484   21665467.86348
  16907216.73345                  21875083.2274   21875080.3324   19223778.72747
                                  15006931.69147  20492760.9384   20492757.8324
 11  7 28  3  3  0.0000000  0  7G29G02G04G25G12G10G05
  45407904.05947                  35405268.36644  23960178.7344   23960176.9064
  13771655.09047                  10758070.65546                  21037129.9844
  21037124.9224   23057588.10247  17996314.39644  23793196.2194   23793194.3554
  31385228.78548  24482494.02046  22103078.7894   22103078.2154   18943397.21948
  14786363.72346                  20868795.3834   20868792.0634   21703894.25448
  16937159.37545                  21882395.7114   21882392.9224   19159288.18447
                                  14956679.35647  20480488.4614   20480485.7034
 11  7 28  3  3 30.0000000  0  7G29G02G04G25G12G10G05
  45290459.81347                  35313753.41144  23937829.0944   23937827.5784
  13766185.41848                  10753808.57446                  21036089.0314
  21036084.1174   23105236.45747  18033442.99344  23802262.7584   23802261.3364
  31300556.20348  24416515.40146  22086966.2274   22086965.5434   18926321.74248
  14773058.16446                  20865546.0634   20865542.8444   21742768.09047
  16967450.69445                  21889792.8284   21889790.1484   19095366.14147
                                  14906870.01447  20468324.7814   20468321.6684
 11  7 28  3  4  0.0000000  0  7G29G02G04G25G12G10G05
  45172981.55547                  35222211.94044  23915474.1334   23915472.0984
  13760866.14547                  10749663.70546                  21035076.8054
  21035071.5594   23152853.26647  18070546.92844  23811324.8134   23811322.8954
  31216399.70348  24350938.93746  22070951.8054   22070951.3634   18909823.37148
  14760202.30246                  20862406.3674   20862403.2544   21782086.32048
  16998088.29545                  21897274.9694   21897272.1024   19032012.93448
                                  14857503.90747  20456268.7734   20456265.9264
 11  7 28  3  4 30.0000000  0  7G29G02G04G25G12G10G05
  45055468.98847                  35130643.82844  23893111.7894   23893109.9264
  13755695.22748                  10745634.43846                  21034092.7734
  21034087.6644   23200436.44947  18107624.69444  23820379.0314   23820377.3324
  31132759.61348  24285764.86146  22055035.4144   22055035.1604   18893899.48048
  14747794.08546                  20859376.0784   20859373.2194   21821844.71948
  17029068.87245                  21904840.7734   21904837.6844   18969227.60548
                                  14808580.30447  20444321.5314   20444318.4574
 11  7 28  3  5  0.0000000  0  7G29G02G04G25G12G10G05
  44937925.53147                  35039051.56644  23870744.2194   23870742.0274
  13750674.92648                  10741722.51746                  21033137.2664
  21033132.1174   23247988.46547  18144678.20744  23829427.6094   23829426.8874
  31049640.62548  24220996.84246  22039218.4844   22039217.9804   18878552.40248
  14735835.32846                  20856455.7814   20856452.6724   21862043.91448
  17060392.91945                  21912490.2504   21912487.2774   18907013.87148
                                  14760102.10847  20432482.4384   20432479.3484
 11  7 28  3  5 30.0000000  0  7G29G02G04G25G12G10G05
  44820353.39547                  34947437.04144  23848371.1564   23848369.1294
  13745805.31647                  10737928.02646                  21032210.7584
  21032205.7934   23295509.60547  18181707.61444  23838471.3834   23838469.6604
  30967045.35948  24156636.92246  22023501.0784   22023500.4694   18863782.93448
  14724326.65246                  20853644.9774   20853641.9064   21902682.14548
  17092059.09045                  21920223.6254   21920220.2624   18845373.29748
                                  14712070.52047  20420752.5864   20420749.7544
 11  7 28  3  6  0.0000000  0  7G29G02G04G25G12G10G05
  44702749.83247                  34855797.98544  23825991.6954   23825990.2734
  13741081.35948                  10734247.02446                  21031311.6804
  21031306.6374   23342995.10246  18218709.26443  23847507.2344   23847505.6024
  30884971.46548  24092683.24346  22007882.7274   22007882.4804   18849585.89848
  14713264.03846                  20850943.6884   20850940.6054   21943752.50047
  17124061.98245                  21928038.6644   21928036.0274   18784302.30148
                                  14664482.76547  20409131.2194   20409128.3164
 11  7 28  3  6 30.0000000  0  7G29G02G04G25G12G10G05
  44585116.68847                  34764135.88044  23803607.0164   23803604.8594
  13736503.51647                  10730679.88846                  21030440.6334
  21030435.5744   23390445.37546  18255683.52543  23856537.1644   23856536.1294
  30803421.55548  24029137.88746  21992364.2974   21992364.0274   18835961.26648
  14702647.44546                  20848351.1884   20848347.6414   21985253.29747
  17156400.25645                  21935936.3134   21935933.5274   18723802.37548
                                  14617339.99647  20397618.4384   20397615.8244
 11  7 28  3  7  0.0000000  0  7G29G02G04G25G12G10G05
  44467457.75847                  34672453.72544  23781216.4534   23781215.1094
  13732073.93847                  10727228.27446                  21029597.8364
  21029592.9024   23437862.64146  18292631.96843  23865559.0084   23865558.8754
  30722400.27048  23966004.42846  21976946.5634   21976945.9884   18822911.51648
  14692478.81346                  20845867.6024   20845864.3554   22027184.75447
  17189074.13645                  21943915.5704   21943912.8054   18663877.33648
                                  14570645.19147  20386215.2034   20386211.7974
 11  7 28  3  7 30.0000000  0  7G29G02G04G25G12G10G05
  44349771.16047                  34580749.96244  23758821.3284   23758819.8324
  13727788.28147                  10723888.81046                  21028782.5234
  21028777.3914   23485243.10546  18329551.80943  23874576.9384   23874574.9064
  30641905.84048  23903281.52346  21961628.8834   21961628.6334   18810432.58648
  14682754.97846                  20843493.0084   20843489.6054   22069540.97747
  17222078.98245                  21951975.1254   21951972.9694   18604524.23048
                                  14524396.04347  20374920.6174   20374917.4304
 11  7 28  3  8  0.0000000  0  7G29G02G04G25G12G10G05
  44232060.44546                  34489027.44344  23736421.9924   23736420.2424
  13723648.80547                  10720663.25246                  21027994.3754
  21027989.4574   23532589.11346  18366444.74043  23883586.0234   23883585.1684
  30561942.78548  23840972.66746  21946412.5004   21946412.4184   18798526.43048
  14673477.45746                  20841227.3914   20841224.1644   22112321.77348
  17255414.67345                  21960116.7814   21960113.5394   18545746.23448
                                  14478595.04447  20363735.5394   20363732.2974
 11  7 28  3  8 30.0000000  0  7G29G02G04G25G12G10G05
  44114323.78546                  34397284.70144  23714017.5864   23714015.5124
  13719651.74647                  10717548.68146                  21027233.8364
  21027228.8674   23579897.16446  18403308.15443  23892589.3444   23892586.8324
  30482509.72348  23779076.78746  21931296.7504   21931296.5274   18787189.16848
  14664643.22646                  20839070.0864   20839066.8874   22155521.70747
  17289076.96845                  21968337.4384   21968334.4024   18487541.15648
                                  14433240.46547  20352659.1564   20352656.6764
 11  7 28  3  9  0.0000000  0  7G29G02G04G25G12G10G05
  43996563.63746                  34305523.65144  23691608.3984   23691606.6024
  13715797.52047                  10714545.40646                  21026500.9304
  21026495.8594   23627167.79746  18440142.29543  23901583.9384   23901582.8634
  30403609.55948  23717596.17546  21916282.5784   21916282.3524   18776421.18848
  14656252.60546                  20837020.9224   20837017.3164   22199139.75847
  17323065.07945                  21976637.4454   21976634.4384   18429910.71948
                                  14388333.65747  20341692.4304   20341689.6094
 11  7 28  3  9 30.0000000  0  7G29G02G04G25G12G10G05
  43878780.39546                  34213744.62644  23669194.3914   23669193.3524
  13712084.70747                  10711652.33146                  21025793.6484
  21025788.8324   23674399.95346  18476946.59043  23910571.7034   23910570.0704
  30325243.08648  23656531.41046  21901369.7114   21901369.6764   18766220.82048
  14648304.26946                  20835079.4694   20835076.2464   22243172.20347
  17357376.09845                  21985016.5554   21985013.5904   18372854.29748
                                  14343874.13347  20330835.2974   20330832.2934
 11  7 28  3 10  0.0000000  0  7G29G02G04G25G12G10G05
  43760976.06346                  34121949.16244  23646776.9924   23646774.8594
  13708513.80547                  10708869.82446                  21025114.5234
  21025109.2664   23721594.02346  18513721.13843  23919552.2894   23919550.5394
  30247412.94148  23595884.57446  21886559.3674   21886558.6484   18756588.50448
  14640798.57346                  20833246.5164   20833243.6334   22287617.26648
  17392008.60345                  21993474.3754   21993471.2704   18316373.42648
                                  14299863.10047  20320087.0474   20320084.4574
 11  7 28  3 10 30.0000000  0  7G29G02G04G25G12G10G05
  43643152.86347                  34030138.95444  23624356.0704   23624354.3984
  13705084.93447                  10706197.99346                  21024461.6884
  21024456.7344   23768750.59846  18550466.46043  23928525.8834   23928523.9654
  30170121.61348  23535657.58646  21871851.1724   21871850.9964   18747524.39848
  14633735.63746                  20831521.7504   20831518.6844   22332473.44547
  17426961.48845                  22002009.9454   22002007.4964   18260469.98448
                                  14256301.99847  20309449.1094   20309446.3954
 11  7 28  3 11  0.0000000  0  7G29G02G04G25G12G10G05
  43525311.05547                  33938314.26744  23601931.6174   23601929.5084
  13701796.35247                  10703635.47446                  21023836.1094
  21023830.8954   23815867.94546  18587181.26543  23937492.1724   23937490.7154
  30093369.58248  23475850.83346  21857245.8284   21857245.7704   18739025.97348
  14627113.49046                  20829904.6094   20829901.5634   22377736.74247
  17462231.60345                  22010623.2114   22010620.4264   18205142.84448
                                  14213189.97347  20298920.6174   20298917.7234
 11  7 28  3 11 30.0000000  0  7G29G02G04G25G12G10G05
  43407452.81347                  33846476.77544  23579504.0164   23579501.9414
  13698648.42247                  10701182.56846                  21023236.9774
  21023231.7234   23862946.84046  18623866.04243  23946451.3594   23946449.4924
  30017159.36348  23416466.27746  21842743.4844   21842743.4344   18731093.56348
  14620932.38946                  20828395.1024   20828391.7854   22423405.39547
  17497817.56645                  22019313.5784   22019310.7304   18150393.50048
                                  14170528.16547  20288501.8984   20288499.2234
 11  7 28  3 12  0.0000000  0  7G29G02G04G25G12G10G05
  43289579.84447                  33754627.75044  23557073.2034   23557071.3984
  13695640.47747                  10698838.72646                  21022665.0474
  21022659.4614   23909987.10246  18660520.75143  23955402.9144   23955401.0824
  29941492.84448  23357505.37246  21828344.8914   21828344.2974   18723726.51248
  14615191.83546                  20826993.3914   20826990.0004   22469477.02347
  17533717.54045                  22028080.6414   22028077.8244   18096222.80148
                                  14128317.25547  20278193.3674   20278190.6214
 11  7 28  3 12 30.0000000  0  7G29G02G04G25G12G10G05
  43171692.70347                  33662767.70244  23534640.0394   23534638.4734
  13692771.78547                  10696603.39346                  21022118.7734
  21022113.1684   23956987.72746  18697144.60043  23964347.3134   23964345.1524
  29866371.08648  23298968.97746  21814049.4454   21814049.2114   18716923.48048
  14609890.77146                  20825698.7814   20825695.6684   22515948.85247
  17569929.34945                  22036924.4614   22036921.0784   18042630.46548
                                  14086557.01847  20267995.1724   20267992.4534
 11  7 28  3 13  0.0000000  0  7G29G02G04G25G12G10G05
  43053789.57847                  33570895.19744  23512204.0234   23512202.3714
  13690038.76647                  10694473.76746                  21021598.4774
  21021593.3674   24003945.46546  18733735.02943  23973282.5314   23973281.9104
  29791792.54748  23240855.85046  21799857.5164   21799857.0354   18710680.35548
  14605025.99646                  20824510.7504   20824507.2894   22562815.12547
  17606448.54445                  22045842.4304   22045839.7114   17989613.82848
                                  14045245.38247  20257906.7894   20257903.6954
 11  7 28  3 13 30.0000000  0  7G29G02G04G25G12G10G05
  42935874.25447                  33479013.17544  23489765.5634   23489763.4414
  13687443.15647                  10692451.23846                  21021104.9304
  21021099.7774   24050862.08246  18770293.39043  23982210.0394   23982209.0594
  29717761.04348  23183168.99446  21785769.9064   21785769.4734   18704998.71948
  14600598.75246                  20823429.1804   20823425.9964   22610075.19147
  17643274.58245                  22054835.3204   22054833.1024   17937175.57448
                                  14004384.42847  20247927.8444   20247925.4104
 11  7 28  3 14  0.0000000  0  7G29G02G04G25G12G10G05
  42817945.77747                  33387120.92544  23467324.3284   23467321.4384
  13684982.04347                  10690533.49646                  21020636.0554
  21020631.1954   24097735.33246  18806818.01043  23991130.1724   23991128.2344
  29644275.77748  23125907.76646  21771786.1174   21771785.4694   18699874.97348
  14596606.21546                  20822454.4614   20822450.9924   22657724.50847
  17680403.90145                  22063903.1884   22063900.5234   17885313.82448
                                  13963972.69147  20238058.8204   20238056.0044
 11  7 28  3 14 30.0000000  0  7G29G02G04G25G12G10G05
  42700008.28947                  33295221.62044  23444881.4844   23444879.0234
  13682657.77047                  10688722.38846                  21020193.7664
  21020188.8984   24144567.61746  18843310.65144  24000041.9844   24000040.7074
  29571341.27748  23069075.70746  21757907.1254   21757906.7734   18695311.75048
  14593050.46246                  20821586.1564   20821582.4414   22705763.00447
  17717836.50545                  22073044.5234   22073042.0044   17834032.03548
                                  13924012.87547  20228300.2344   20228297.7504
 11  7 28  3 15  0.0000000  0  7G29G02G04G25G12G10G05
  42582059.75047                  33203313.72944  23422436.3754   23422434.1334
  13680466.35947                  10687014.81146                  21019777.1954
  21019772.1604   24191355.37947  18879768.65244  24008945.8054   24008944.0514
  29498955.58648  23012671.29346  21744132.4924   21744131.9964   18691304.33648
  14589927.80146                  20820823.5394   20820820.2734   22754184.90647
  17755567.86745                  22082258.7114   22082255.8554   17783326.78548
                                  13884502.31947  20218651.6484   20218648.5984
 11  7 28  3 15 30.0000000  0  7G29G02G04G25G12G10G05
  42464101.51247                  33111398.27044  23399989.6334   23399987.3164
  13678407.04347                  10685410.17446                  21019385.1024
  21019379.9184   24238097.95347  18916191.42344  24017840.8914   24017838.8874
  29427119.94948  22956695.48746  21730462.8204   21730462.1484   18687850.95348
  14587236.86046                  20820166.2974   20820163.0784   22802987.31347
  17793595.68945                  22091546.0704   22091542.9734   17733197.96148
                                  13845440.91447  20209112.2344   20209109.1804
 11  7 28  3 16  0.0000000  0  7G29G02G04G25G12G10G05
  42346134.91447                  33019476.30444  23377541.0864   23377539.2464
  13676479.26648                  10683908.02046                  21019017.9144
  21019013.3014   24284794.84447  18952578.57843  24026726.8134   24026724.2974
  29355835.58248  22901149.24246  21716897.5864   21716897.0044   18684950.73048
  14584976.94546                  20819614.7114   20819611.1454   22852167.02347
  17831917.55945                  22100904.3364   22100901.3484   17683646.16048
                                  13806829.13847  20199682.9064   20199679.9064
 11  7 28  3 16 30.0000000  0  7G29G02G04G25G12G10G05
  42228160.86747                  32927548.53644  23355091.5474   23355088.5394
  13674682.30148                  10682507.79246                  21018676.3674
  21018671.5434   24331445.61347  18988929.85043  24035603.8204   24035601.2544
  29285103.70748  22846033.51446  21703437.7974   21703437.1644   18682602.61748
  14583147.24146                  20819167.5164   20819164.4804   22901721.57047
  17870531.50445                  22110334.4144   22110331.4774   17634671.08648
                                  13768666.76947  20190363.4144   20190360.1804
 11  7 28  3 17  0.0000000  0  7G29G02G04G25G12G10G05
  42110183.20746                  32835617.93944  23332640.6954   23332638.3594
  13673017.98848                  10681210.94946                  21018359.6024
  21018354.4884   24378052.49246  19025246.88943  24044472.5394   24044470.7854
  29214927.91448  22791351.08346  21690083.9844   21690083.1254   18680807.14548
  14581748.17446                  20818826.2504   20818822.7814   22951650.41847
  17909437.07145                  22119835.3834   22119832.6684   17586275.55148
                                  13730955.99447  20181153.9924   20181151.1484
 11  7 28  3 17 30.0000000  0  7G29G02G04G25G12G10G05
  41992199.44946                  32743682.58244  23310189.0234   23310186.3834
  13671481.79348                  10680013.92646                  21018067.1564
  21018061.8404   24424611.21146  19061526.44544  24053332.6334   24053330.7154
  29145305.83248  22737100.12246  21676835.0004   21676834.3794   18679559.83247
  14580776.25646                  20818588.7584   20818585.7304   23001947.27047
  17948629.42445                  22129406.5784   22129403.5744   17538455.60948
                                  13693693.72447  20172053.8754   20172050.9104
 11  7 28  3 18  0.0000000  0  7G29G02G04G25G12G10G05
  41874211.35546                  32651743.86344  23287736.5394   23287734.2384
  13670073.77747                  10678916.77946                  21017799.1884
  21017794.2504   24471121.80546  19097768.42943  24062183.4454   24062181.7544
  29076239.26248  22683282.01846  21663692.2034   21663691.3244   18678859.73048
  14580230.71546                  20818455.4304   20818452.4494   23052609.77347
  17988106.70645                  22139047.4534   22139043.8634   17491211.90648
                                  13656880.47247  20163064.0234   20163060.7974
 11  7 28  3 18 30.0000000  0  7G29G02G04G25G12G10G05
  41756222.55546                  32559804.57444  23265284.4144   23265282.2704
  13668795.60948                  10677920.80746                  21017556.1174
  21017550.9614   24517586.41446  19133974.63643  24071025.7274   24071024.1174
  29007731.52048  22629899.37046  21650655.6254   21650654.8754   18678708.00448
  14580112.48746                  20818426.6884   20818423.5704   23103637.23447
  18027868.36045                  22148757.5234   22148754.1134   17444546.65648
                                  13620517.96347  20154183.8054   20154180.7344
 11  7 28  3 19  0.0000000  0  7G29G02G04G25G12G10G05
  41638233.34446                  32467864.98544  23242832.2194   23242829.7114
  13667645.18848                  10677024.39746                  21017337.0234
  21017332.1174   24564003.05946  19170143.36443  24079857.8594   24079857.6134
  28939782.39148  22576952.01946  21637725.2504   21637724.4574   18679101.85548
  14580419.39046                  20818501.4064   20818498.3444   23155025.43847
  18067911.10445                  22158536.0864   22158533.0394   17398458.12148
                                  13584604.83647  20145413.5164   20145410.3094
 11  7 28  3 19 30.0000000  0  7G29G02G04G25G12G10G05
  43095667.67646                  33603528.18044  23520172.2274   23520170.1294
  15242041.21947                  11903826.51546                  21316934.7974
  21316929.6954   26185789.00446  20433872.61443  24388474.2504   24388472.7974
  30447814.44948  23752041.96446  21924693.9844   21924693.6524   20255458.90248
  15808749.56146                  21118472.0394   21118469.1484   24782189.43847
                                  19335831.10345  22468175.3914   22468172.2854
  18928367.41048                  14776741.97647  20436545.3364   20436542.4774
 11  7 28  3 20  0.0000000  0  7G29G02G04G25G12G10G05
  42977686.26646                  33511594.66544  23497721.3914   23497718.8484
  15241149.95748                  11903132.02746                  21316765.3444
  21316760.4924                   26232114.35246  20469970.29143  24397287.9304
  24397287.4384   30380991.32848  23699972.01746  21911978.2584   21911977.2934
  20256945.02348  15809907.58746  21118755.1094   21118751.7154   24834296.75447
                                  19376434.20345  22478091.1564   22478087.9884
  18883438.27748                  14741732.29047  20427995.4144   20427992.6134
 11  7 28  3 20 30.0000000  0  7G29G02G04G25G12G10G05
  42859703.83246                  33419660.34544  23475269.9844   23475267.6134
  15240380.45748                  11902532.42246                  21316618.5864
  21316613.6644                   26278386.48846  20506026.46343  24406094.1954
  24406092.7624   30314725.98447  23648336.69846  21899368.2814   21899367.7734
  20258968.32447  15811484.18646  21119140.1954   21119136.8094   24886752.30547
                                  19417308.64045  22488072.9454   22488070.1764
  18839081.71548                  14707168.74247  20419555.0164   20419551.9144
 11  7 28  3 21  0.0000000  0  7G29G02G04G25G12G10G05
  42741725.34846                  33327729.10744  23452819.6334   23452817.1214
  15239735.86748                  11902030.15746                  21316495.9454
  21316490.9184                   26324608.85546  20542043.84843  24414890.6884
  24414888.2274   30249023.23448  23597139.79546  21886865.2894   21886864.7304
  20261531.30947  15813481.32046  21119627.8754   21119624.5664   24939556.91047
                                  19458455.09145  22498121.1334   22498118.5944
  18795301.39148                  14673054.23647  20411223.5634   20411220.6604
 11  7 28  3 21 30.0000000  0  7G29G02G04G25G12G10G05
  42623756.03146                  33235805.04044  23430370.6564   23430368.5354
  15239219.29348                  11901627.63546                  21316397.7894
  21316392.4064                   26370784.91846  20578025.24743  24423677.2664
  24423674.1214   30183887.78948  23546384.92946  21874470.3204   21874469.7704
  20264636.05148  15815900.60746  21120218.4304   21120215.5704   24992711.55147
                                  19499874.27645  22508236.7504   22508233.7274
  18752100.71948                  14639391.38947  20403002.6484   20402999.5704
 11  7 28  3 22  0.0000000  0  7G29G02G04G25G12G10G05
  42505793.26646                  33143886.07445  23407923.0314   23407920.7464
  15238826.05148                  11901321.22346                  21316323.2274
  21316317.9414                   26416910.17646  20613966.94343  24432454.6094
  24432451.9454   30119316.42248  23496069.59746  21862183.2814   21862182.3634
  20268277.04748  15818737.73746  21120911.5004   21120908.1564   25046209.26247
                                  19541560.79445  22518416.7504   22518413.7274
  18709474.93848                  14606176.51747  20394891.2194   20394888.6174
 11  7 28  3 22 30.0000000  0  7G29G02G04G25G12G10G05
  42387838.60947                  33051973.41344  23385476.2584   23385474.7704
  15238555.57048                  11901110.46746                  21316271.1644
  21316266.0864                   26462984.57446  20649869.06143  24441221.9144
  24441220.2304   30055310.57848  23446194.94746  21850003.1644   21850002.4654
  20272452.57048  15821991.39646  21121706.0084   21121702.7934   25100047.46547
                                  19583512.64245  22528662.0314   22528659.0124
  18667424.87548                  14573410.25447  20386889.6484   20386886.7464
 11  7 28  3 23  0.0000000  0  7G29G02G04G25G12G10G05
  42269894.86347                  32960069.24345  23363033.3364   23363030.2584
  15238409.23848                  11900996.45046                  21316243.3914
  21316238.2114                   26509009.28946  20685732.53142  24449980.1564
  24449979.1174   29991872.65648  23396762.81246  21837931.3204   21837930.6884
  20277162.81648  15825661.71046  21122602.0944   21122599.0474   25154224.79747
                                  19625728.74645  22538971.6024   22538968.9924
  18625951.67648                  14541093.48747  20378997.0944   20378994.2384
 11  7 28  3 23 30.0000000  0  6G29G02G25G12G10G05
  42151961.16846                  32868172.89344  23340590.6954   23340588.4224
  15238384.09848                  11900976.85246  21316238.9774   21316233.5434
                  29929001.31348  23347772.18246  21825967.2274   21825966.6024
  20282404.05548  15829745.78546  21123599.6564   21123596.7814   25208736.16047
                                  19668205.12545  22549344.7274   22549342.0354
  18585052.52048                  14509224.03647  20371214.6334   20371211.5514
 11  7 28  3 24  0.0000000  0  6G29G02G25G12G10G05
  42034045.05146                  32776290.27044  23318151.8364   23318149.4804
  15238485.21948                  11901055.65946  21316257.9534   21316252.9964
                  29866703.25848  23299228.26846  21814112.4224   21814111.8284
  20288180.81348  15834247.15446  21124698.8674   21124696.2034   25263584.51647
                                  19710944.11744  22559782.0234   22559779.6214
  18544733.05548                  14477806.28647  20363542.0004   20363538.8794
 11  7 28  3 24 30.0000000  0  6G29G02G25G12G10G05
  41916148.80146                  32684423.10644  23295716.9224   23295714.4884
  15238713.57047                  11901233.58446  21316301.5004   21316296.1524
                  29804980.65248  23251132.74946  21802366.3204   21802366.0314
  20294492.39548  15839165.26246  21125900.2344   21125896.9654   25318768.34447
                                  19753944.51845  22570282.8984   22570280.0704
  18504994.41848                  14446841.12447  20355979.9694   20355976.7274
 11  7 28  3 25  0.0000000  0  6G29G02G25G12G10G05
  41798280.00046                  32592577.30944  23273287.2664   23273284.5434
  15239074.85248                  11901515.09946  21316370.2194   21316365.1524
                  29743840.72748  23203491.26046  21790732.3444   21790731.4734
  20301343.55948  15844503.82946  21127203.9694   21127200.5554   25374291.01647
                                  19797208.96245  22580848.1254   22580845.6414
  18465842.39848                  14416333.07447  20348529.5314   20348526.6294
 11  7 28  3 25 30.0000000  0  6G29G02G25G12G10G05
  41680437.37546                  32500751.91945  23250862.2114   23250860.5634
  15239565.39547                  11901897.34746  21316463.3444   21316458.6214
                  29683281.11747  23156301.97146  21779208.0394   21779207.4734
  20308729.73048  15850259.28446  21128609.5474   21128606.1884   25430146.48447
                                  19840732.67744  22591477.4144   22591474.0634
  18427273.35548                  14386279.28947  20341190.1334   20341187.0664
 11  7 28  3 26  0.0000000  0  6G29G02G25G12G10G05
  41562618.82446                  32408945.29144  23228442.3204   23228439.9064
  15240181.25048                  11902377.23646  21316580.5634   21316575.4654
                  29623299.27348  23109562.87946  21767793.9224   21767793.1024
  20316645.39848  15856427.34146  21130115.7664   21130112.3484   25486328.87947
                                  19884511.19244  22602168.7584   22602165.5904
  18389283.54348                  14356676.84847  20333960.9454   20333957.9494
 11  7 28  3 26 30.0000000  0  6G29G02G25G12G10G05
  41444825.67246                  32317158.48745  23206027.0554   23206024.6884
  15240921.45348                  11902954.02646  21316721.7424   21316716.4774
                  29563895.74648  23063274.43046  21756489.8054   21756489.0314
  20325089.24248  15863006.95346  21131722.7344   21131719.5944   25542834.74247
                                  19928541.72044  22612920.4844   22612917.8754
  18351872.47348                  14327525.38547  20326841.8674   20326838.8794
 11  7 28  3 27  0.0000000  0  6G29G02G25G12G10G05
  41327054.72747                  32225388.95445  23183615.8754   23183613.6414
  15241781.33248                  11903624.06246  21316885.2034   21316879.9574
                  29505066.94547  23017433.81446  21745294.9774   21745294.3204
  20334054.91048  15869993.18246  21133428.8524   21133425.2234   25599656.96547
                                  19972818.82344  22623734.5004   22623730.6884
  18315035.21148                  14298821.03847  20319831.8364   20319828.9614
 11  7 28  3 27 30.0000000  0  6G29G02G25G12G10G05
  41209305.10247                  32133636.05445  23161208.9694   23161206.6174
  15242757.80147                  11904384.94246  21317071.2974   21317065.7664
                  29446810.85948  22972039.47346  21734209.3524   21734209.0474
  20343537.72748  15877382.38146  21135233.4534   21135230.0744   25656789.74247
                                  20017337.85845  22634606.5234   22634602.6954
  18278768.66048                  14270561.40947  20312930.5554   20312927.4694
 11  7 28  3 28  0.0000000  0  6G29G02G25G12G10G05
  41091579.81646                  32041902.10645  23138807.0784   23138804.3204
  15243851.93447                  11905237.50546  21317279.2734   21317274.1454
                  29389129.84847  22927093.23646  21723232.9454   21723232.3554
  20353537.77748  15885174.64246  21137136.0864   21137133.0044   25714232.16047
                                  20062098.18345  22645537.2734   22645533.8204
  18243073.82448                  14242747.26747  20306138.0944   20306135.2274
 11  7 28  3 28 30.0000000  0  6G29G02G25G12G10G05
  40973879.69946                  31950187.77445  23116409.0394   23116407.0084
  15245062.68048                  11906180.94046  21317509.6724   21317504.7234
                  29332024.13747  22882595.29446  21712366.2274   21712365.7274
  20364052.94948  15893368.27746  21139137.1094   21139133.4574   25771980.88347
                                  20107097.17044  22656526.5084   22656523.0784
  18207950.06648                  14215378.12547  20299454.0314   20299451.6174
 11  7 28  3 29  0.0000000  0  6G29G02G25G12G10G05
  40856210.38346                  31858497.44345  23094017.1334   23094014.8914
  15246393.50848                  11907217.94046  21317762.9774   21317757.6994
                  29275498.40648  22838549.29146  21701609.7664   21701609.3014
  20375085.34048  15901964.94746  21141236.4224   21141233.1334   25830037.21547
                                  20152335.86645  22667574.5944   22667570.8524
  18173400.57048                  14188456.45847  20292879.6644   20292876.6954
 11  7 28  3 29 30.0000000  0  6G29G02G25G12G10G05
  40738564.60546                  31766825.49445  23071629.6174   23071627.7464
  15247834.90248                  11908341.10946  21318037.4924   21318032.3284
                  29219544.34448  22794948.74246  21690961.7274   21690961.3094
  20386624.10948  15910956.18946  21143432.2894   21143428.9614   25888389.17647
                                  20197804.93045  22678678.2344   22678675.4614
  18139415.99248                  14161974.98647  20286412.6564   20286409.6724
 11  7 28  3 30  0.0000000  0  6G29G02G25G12G10G05
  40620948.96946                  31675177.00745  23049248.5864   23049246.2344
  15249391.80548                  11909554.26746  21318333.4144   21318328.6524
                  29164167.93048  22751798.31246  21680424.2114   21680423.3404
  20398672.85548  15920344.81946  21145725.0164   21145721.9534   25947039.27047
                                  20243506.28644  22689839.6024   22689836.0004
  18106000.93048                  14135937.29147  20280053.8594   20280051.0594
 11  7 28  3 30 30.0000000  0  6G29G02G25G12G10G05
  40503368.48446                  31583555.92545  23026873.0634   23026871.1914
  15251067.21548                  11910859.78546  21318652.4614   21318647.5784
                  29109373.07448  22709101.04646  21669997.0864   21669996.1954
  20411233.17248  15930132.07346  21148115.3284   21148111.7074   26005988.01647
                                  20289440.40945  22701056.6724   22701053.6024
  18073158.08648                  14110345.49047  20273804.0784   20273801.1214
 11  7 28  3 31  0.0000000  0  6G29G02G25G12G10G05
  40385817.87547                  31491958.13145  23004504.1254   23004502.1454
  15252853.99648                  11912252.07346  21318992.3834   21318987.3404
                  29055153.59448  22666852.10846  21659679.6174   21659678.8134
  20424296.48448  15940311.28646  21150601.1254   21150597.9804   26065225.81647
                                  20335599.72744  22712329.1804   22712326.6054
  18040879.98448                  14085193.73847  20267661.5394   20267658.8714
 11  7 28  3 31 30.0000000  0  6G29G02G25G12G10G05
  40268303.83247                  31400388.79945  22982141.6884   22982139.5554
  15254756.76648                  11913734.76346  21319354.4224   21319349.5004
                  29001515.21148  22625055.99246  21649472.2894   21649471.5824
  20437865.84448  15950884.80846  21153183.0084   21153179.8794   26124754.73446
                                  20381985.89944  22723656.8754   22723654.8444
  18009171.28548                  14060485.66747  20261627.7894   20261624.8554
 11  7 28  3 32  0.0000000  0  7G29G02G26G25G12G10G05
  40150825.97347                  31308847.69345  22959786.4454   22959784.0514
  15256772.67648                  11915305.60646  21319737.5394   21319732.5514
  50364745.30917                  24439607.453
                  28948456.13748  22583711.27946  21639375.5634   21639374.8054
  20451937.18448  15961849.49046  21155860.7034   21155857.7384   26184569.82846
                                  20428595.07345  22735039.9144   22735036.8874
  17978029.14148                  14036219.09347  20255701.4224   20255698.7274
 11  7 28  3 32 30.0000000  0  7G29G02G26G25G12G10G05
  40033385.03547                  31217335.36645  22937438.0314   22937435.7504
  15258901.14848                  11916964.14446  21320143.1414   21320137.8404
  50233446.89547  39168410.82043  24414623.0084                   24414620.6724
                  28895976.45748  22542818.04346  21629389.0314   21629388.1684
  20466508.27748  15973203.58946  21158633.6484   21158630.3834   26244668.00847
                                  20475424.83944  22746475.9774   22746473.0314
  17947452.44548                  14012393.11247  20249883.0234   20249880.3984
 11  7 28  3 33  0.0000000  0  7G29G02G26G25G12G10G05
  39915979.19947                  31125850.35545  22915096.8754   22915093.8364
  15261138.21148                  11918707.31846  21320569.1724   21320563.5124
  50102081.26247  39066047.94243  24389624.9844                   24389622.8324
                  28844073.09448  22502373.88446  21619511.9064   21619511.2424
  20481573.33248  15984942.58346  21161500.5554   21161497.2974   26305042.72346
                                  20522470.07444  22757964.0864   22757961.6484
  17917436.81648                  13989004.32747  20244171.3054   20244168.1454
 11  7 28  3 33 30.0000000  0  7G29G02G26G25G12G10G05
  39798604.66047                  31034389.71245  22892761.1954   22892758.3054
  15263477.79348                  11920530.36446  21321013.9774   21321008.5824
  49970646.12947  38963630.91043  24364613.2194                   24364611.7194
                  28792741.02348  22462374.89046  21609743.7814   21609742.8524
  20497125.05948  15997060.79946  21164459.7814   21164456.7304   26365685.67246
                                  20569724.28544  22769505.1174   22769501.6604
  17887976.18448                  13966048.00247  20238564.9694   20238561.9144
 11  7 28  3 34  0.0000000  0  7G29G02G26G25G12G10G05
  39681263.98847                  30942955.50145  22870431.5944   22870429.0514
  15265920.50047                  11922433.77946  21321478.7344   21321473.5594
  49839145.71947  38861163.06043  24339589.7344                   24339587.8954
                  28741981.73048  22422822.20746  21600084.5554   21600084.0314
  20513162.97348  16009557.87146  21167511.7504   21167509.0124   26426594.99646
                                  20617186.08444  22781095.3204   22781092.1724
  17859070.85547                  13943524.39247  20233064.4924   20233061.5354
 11  7 28  3 34 30.0000000  0  7G29G02G26G25G12G10G05
  39563965.69147                  30851554.27945  22848110.6484   22848107.7234
  15268472.85947                  11924422.64646  21321964.6954   21321959.3094
  49707590.21546  38758652.32043  24314555.4224                   24314553.3444
                  28691802.47348  22383721.49346  21590535.8984   21590535.3094
  20529691.05948  16022436.89046  21170657.0474   21170653.6844   26487774.80946
                                  20664858.65044  22792737.5554   22792734.6454
  17830726.74247                  13921438.08847  20227670.7274   20227667.6764
 11  7 28  3 35  0.0000000  0  7G29G02G26G25G12G10G05
  39446711.75446                  30760187.61645  22825797.4614   22825794.8754
  15271134.93448                  11926497.00046  21322470.9534   21322465.8094
  49575982.98846  38656101.21743  24289511.2814                   24289509.2384
                  28642203.93448  22345073.29346  21581097.5314   21581096.9454
  20546708.19548  16035696.98846  21173895.3054   21173892.1454   26549222.67646
                                  20712740.08544  22804430.9694   22804427.8714
  17802943.20348                  13899788.59547  20222383.8364   20222380.7034
 11  7 28  3 35 30.0000000  0  7G29G02G26G25G12G10G05
  39329502.34846                  30668855.65845  22803493.5394   22803491.4694
  15273904.51648                  11928655.12446  21322997.8984   21322992.9384
  49444325.44946  38553510.95043  24264457.8984                   24264455.8404
                  28593184.74648  22306876.54446  21571769.5944   21571768.7074
  20564210.54348  16049335.17546  21177225.8674   21177222.5984   26610934.33646
                                  20760827.07644  22816174.2974   22816171.2464
  17775717.93048                  13878574.10947  20217203.0554   20217199.9964
 11  7 28  3 36  0.0000000  0  7G29G02G26G25G12G10G05
  39212344.50447                  30577563.88745  22781199.3754   22781196.2814
  15276786.83648                  11930901.10746  21323546.4694   21323541.6024
  49312626.58646  38450888.45943  24239396.3444                   24239394.6174
                  28544750.84048  22269135.83946  21562552.4614   21562552.6094
  20582201.69148  16063354.24446  21180649.3914   21180646.0514   26672912.25446
                                  20809121.50644  22827968.3524   22827964.4384
  17749055.96948                  13857798.56947  20212129.4534   20212126.3754
 11  7 28  3 36 30.0000000  0  7G29G02G26G25G12G10G05
  39095238.53147                  30486312.51945  22758914.5704   22758912.4144
  15279780.41848                  11933233.77646  21324116.3444   21324111.0824
  49180888.38346  38348235.35543  24214327.9844                   24214325.1454
                  28496901.25448  22231850.44746  21553447.5394   21553446.7114
  20600678.19548  16077751.50446  21184165.5944   21184162.2074   26735152.07047
                                  20857620.09644  22839812.0394   22839808.3324
  17722954.96547                  13837460.14347  20207162.2894   20207159.3874
 11  7 28  3 37  0.0000000  0  7G29G02G26G25G12G10G05
  38978183.09047                  30395100.52645  22736639.3834   22736637.4414
  15282881.44548                  11935650.17246  21324706.3914   21324700.8754
  49049110.63746  38245551.43843  24189250.6024                   24189248.8054
                  28449632.87948  22195017.95046  21544452.2894   21544451.6914
  20619634.78148  16092522.86946  21187772.6414   21187769.2704   26797647.74647
                                  20906317.99544  22851704.0164   22851701.5124
  17697410.44548                  13817555.34247  20202301.5634   20202298.0124
 11  7 28  3 37 30.0000000  0  7G29G02G26G25G12G10G05
  38861180.46547                  30303929.67645  22714374.8444   22714372.3554
  15286090.55148                  11938150.77046  21325316.7664   21325311.6254
  48917297.59846  38142840.06943  24164167.5784                   24164166.5784
                  28402946.99248  22158639.33646  21535568.5704   21535567.5084
  20639070.10548  16107667.27246  21191471.5084   21191468.3364   26860397.50047
                                  20955213.89144  22863645.2504   22863642.6334
  17672422.29348                  13798084.06547  20197546.0234   20197543.4064
 11  7 28  3 38  0.0000000  0  7G29G02G26G25G12G10G05
  38744236.26647                  30212804.33245  22692121.1334   22692118.5274
  15289411.25448                  11940738.33746  21325949.0084   21325943.7814
  48785456.44946  38040106.73743  24139079.2584                   24139076.6804
                  28356847.69148  22122717.80646  21526796.1414   21526795.5314
  20658986.34448  16123186.41046  21195261.2114   21195257.9384   26923402.61747
                                  21004308.79244  22875634.6954   22875632.5274
  17647994.08248                  13779049.10647  20192898.0004   20192894.6684
 11  7 28  3 38 30.0000000  0  7G29G02G26G25G12G10G05
  38627351.34447                  30121725.21045  22669878.8444   22669875.7624
  15292841.96548                  11943411.62846  21326601.3364   21326596.3244
  48653589.47346  37937353.36543  24113985.7114                   24113983.4024
                  28311334.03548  22087252.62246  21518135.0394   21518134.3484
  20679380.03148  16139077.59046  21199142.2114   21199138.7234   26986659.24247
                                  21053599.68444  22887672.0634   22887669.4614
  17624123.45748                  13760448.63947  20188355.1724   20188352.1414
 11  7 28  3 39  0.0000000  0  7G29G02G26G25G12G10G05
  38510521.71947                  30030689.14445  22647646.0634   22647644.3984
  15296377.20348                  11946166.35846  21327274.2974   21327268.9454
  48521694.09846  37834577.81343  24088887.1644                   24088883.9304
                  28266400.60948  22052239.56546  21509584.3834   21509583.8204
  20700243.45348  16155334.79746  21203112.3444   21203109.0864   27050158.74247
                                  21103079.79844  22899755.7734   22899753.7344
  17600803.83248                  13742277.51547  20183917.7584   20183914.9264
 11  7 28  3 39 30.0000000  0  7G29G02G26G25G12G10G05
  38393755.05547                  29939702.15645  22625426.8364   22625424.5944
  15300022.27748                  11949006.69846  21327968.0784   21327962.8484
  48389779.42246  37731787.18043  24063783.9144                   24063782.0004
                  28222053.30548  22017683.22246  21501145.4384   21501144.9104
  20721580.21948  16171960.84946  21207172.4614   21207169.3984   27113904.12146
                                  21152751.49144  22911886.5234   22911883.2854
  17578040.07848                  13724539.54247  20179586.1884   20179582.6024
 11  7 28  3 40  0.0000000  0  7G29G02G26G25G12G10G05
  38277049.38347                  29848762.69845  22603218.2034   22603215.4884
  15303772.98848                  11951929.33446  21328682.1094   21328676.8364
  48257845.43846  37628981.54143  24038678.6804                   24038675.8444
                  28178288.74248  21983580.96746  21492817.3674   21492816.7664
  20743384.30948  16188951.03746  21211321.6174   21211318.3054   27177889.02746
                                  21202609.83344  22924061.7344   22924059.2424
  17555827.02748                  13707230.68047  20175358.8834   20175356.1094
 11  7 28  3 40 30.0000000  0  7G29G02G26G25G12G10G05
  38160411.01647                  29757875.68745  22581023.0314   22581020.2584
  15307634.10948                  11954938.00146  21329416.3984   21329411.4494
  48125899.89146  37526166.86743  24013569.3204                   24013567.0314
                  28135111.66448  21949936.48546  21484600.9614   21484600.2854
  20765658.57048  16206307.61046  21215560.3594   21215557.5084   27242115.34446
                                  21252656.24144  22936283.6954   22936280.6844
  17534169.12948                  13690354.41147  20171237.9144   20171234.4574
 11  7 28  3 41  0.0000000  0  7G29G02G26G25G12G10G05
  38043840.75047                  29667041.73445  22558840.2344   22558836.7894
  15311604.08248                  11958031.48746  21330172.0234   21330166.7934
  47993945.29746  37423345.19044  23988459.1024                   23988457.9844
                  28092521.03148  21916748.99446  21476496.3674   21476495.6644
  20788399.71148  16224027.96446  21219887.7194   21219884.2584   27306579.32446
                                  21302887.87744  22948550.8754   22948548.4024
  17513064.28948                  13673909.09947  20167221.5784   20167218.1454
 11  7 28  3 41 30.0000000  0  7G29G02G26G25G12G10G05
  37927336.20747                  29576259.01145  22536670.2034   22536667.3984
  15315678.36348                  11961206.26146  21330947.4694   21330942.2384
  47861980.30546  37320515.41744  23963347.1804                   23963345.3834
                  28050512.66848  21884015.20746  21468502.5164   21468502.0044
  20811600.98448  16242106.87546  21224302.6804   21224299.4064   27371273.74646
                                  21353299.07944  22960861.7114   22960859.7894
  17492506.93048                  13657890.39147  20163309.5704   20163306.1564
 11  7 28  3 42  0.0000000  0  7G29G02G26G25G12G10G05
  39386328.17247                  30713135.88545  22814307.1414   22814304.6524
  16895281.71948                  13192066.01946  21631535.5944   21631530.7974
  49305438.43046  38445288.02144  24238028.0864                   24238026.5394
  29584513.16048  23079340.27646  21760412.8914   21760412.1764   22410684.83248
  17488146.23846  21528598.2114   21528594.8484   29011619.22346  22631490.34044
                                  23273009.3054   23273006.3444   19047921.48447
  14869901.75147                  20459295.2424                   20459291.9614
 11  7 28  3 42 30.0000000  0  7G29G02G26G25G12G10G05
  39269967.75847                  30622465.47345  22792163.9534   22792161.7464
  16899571.59048                  13195408.77746  21632352.2114   21632346.7624
  49173471.27046  38342456.56544  24212915.4694                   24212913.3324
  29543677.15648  23047520.01646  21752642.0554   21752641.7974   22434807.95348
  17506943.45846  21533188.5314   21533185.6174   29076774.42646  22682260.56644
                                  23285407.9614   23285405.9774   19028463.15648
  14854739.42047                  20455592.2034                   20455588.9494
 11  7 28  3 43  0.0000000  0  7G29G02G26G25G12G10G05
  39153678.60547                  30531850.59745  22770035.2664   22770032.5824
  16903965.22348                  13198832.38946  21633188.5164   21633182.6214
  49041504.15647  38239625.12744  24187802.8284                   24187801.1524
  29503423.41848  23016153.46746  21744982.2664   21744981.5204   22459384.48048
  17526093.99946  21537865.6094   21537862.1524   29142152.09447  22733204.19144
                                  23297849.3204   23297846.1684   19009549.13348
  14840001.24447                  20451993.1174                   20451989.9964
 11  7 28  3 43 30.0000000  0  7G29G02G26G25G12G10G05
  39037464.00047                  30441293.80045  22747920.1644   22747917.4574
  16908463.62948                  13202337.65346  21634044.3914   21634038.8754
  48909542.04347  38136797.57944  24162690.9614                   24162689.7544
  29463753.44548  22985241.81146  21737433.3834   21737432.2624   22484413.50048
  17545597.12246  21542628.3204   21542625.3874   29207750.91446  22784320.11244
                                  23310332.1644   23310329.7384   18991179.53148
  14825687.28947                  20448497.4144                   20448493.8984
 11  7 28  3 44  0.0000000  0  7G29G02G26G25G12G10G05
  38921327.53547                  30350797.88645  22725820.3054   22725817.5124
  16913068.83648                  13205926.10646  21634920.6254   21634915.2424
  48777590.09047  38033977.89944  24137581.8594                   24137580.0704
  29424669.15248  22954786.52146  21729995.4844   21729994.5434   22509895.01248
  17565452.83946  21547477.3284   21547473.9694   29273570.10246  22835607.75444
                                  23322856.8914   23322854.4184   18973355.20748
  14811798.21647                  20445105.6564                   20445102.3714
 11  7 28  3 44 30.0000000  0  7G29G02G26G25G12G10G05
  38805271.16047                  30260364.40145  22703735.1094   22703732.8834
  16917780.53148                  13209597.56246  21635817.2114   21635812.0434
  48645652.17247  37931169.21544  24112474.4844                   24112472.6254
  29386170.54748  22924787.61846  21722669.6094   21722668.9224   22535826.84448
  17585659.45346  21552411.7894   21552408.5744   29339606.98846  22887065.04644
                                  23335423.0084   23335421.0434   18956075.05148
  14798333.18147                  20441817.4144                   20441814.3714
 11  7 28  3 45  0.0000000  0  7G29G02G26G25G12G10G05
  38689292.11347                  30169991.15645  22681664.8524   22681662.8794
  16922593.51648                  13213347.94646  21636733.1724   21636728.3324
  48513726.54347  37828370.09344  24087369.9534                   24087368.2074
  29348252.54348  22895241.12746  21715454.2664   21715453.3554   22562201.87548
  17606211.40646  21557430.8984   21557427.7114   29405853.80946  22938685.88244
                                  23348030.1024   23348027.3954   18939333.09048
  14785287.51847                  20438631.7344                   20438628.3674
 11  7 28  3 45 30.0000000  0  7G29G02G26G25G12G10G05
  38573393.50047                  30079680.59245  22659610.4534   22659608.1054
  16927509.32848                  13217178.45746  21637668.2814   21637663.3714
  48381818.16047  37725584.38644  24062268.9144                   24062267.1134
  29310916.52348  22866148.12346  21708349.3134   21708348.3244   22589019.64548
  17627108.35946  21562534.3444   21562531.1684   29472309.53546  22990469.53644
                                  23360676.6484   23360673.2734   18923129.74248
  14772661.55147                  20435547.7734                   20435544.7034
 11  7 28  3 46  0.0000000  0  7G29G02G26G25G12G10G05
  38457576.98447                  29989434.01545  22637571.3054   22637568.8984
  16932527.42248                  13221088.66146  21638623.2114   21638618.4804
  48249930.25847  37622814.64344  24037171.4064                   24037169.3984
  29274162.09848  22837508.31646  21701355.3984   21701354.6414   22616276.77348
  17648347.67046  21567721.1724   21567717.9454   29538971.30147  23042413.72744
                                  23373361.4454   23373358.5044   18907463.02048
  14760453.73647                  20432566.6884                   20432563.4454
 11  7 28  3 46 30.0000000  0  7G29G02G26G25G12G10G05
  38341848.34047                  29899255.90545  22615548.7734   22615546.2814
  16937651.51248                  13225081.46346  21639598.6414   21639593.3284
  48118070.30547  37520066.68944  24012078.9454                   24012076.7934
  29237992.98048  22809324.58946  21694472.3674   21694471.4964   22643974.99248
  17669930.68546  21572991.8524   21572988.6994   29605840.16047  23094519.32844
                                  23386085.7194   23386083.8404   18892335.44948
  14748666.04147                  20429688.1484                   20429684.8524
 11  7 28  3 47  0.0000000  0  7G29G02G26G25G12G10G05
  38226204.73847                  29809144.05245  22593542.4304   22593539.7774
  16942876.52348                  13229152.89346  21640592.9774   21640587.7114
  47986236.75847  37417339.27643  23986991.9454                   23986989.9104
  29202404.12948  22781593.01746  21687700.0554   21687699.3014   22672107.00048
  17691851.71946  21578345.2584   21578342.3404   29672908.78146  23146780.51744
                                  23398848.3524   23398846.6724   18877741.43048
  14737294.09047                  20426910.8054                   20426907.6454
